[[{"header":{"parameterUnit":"m.s-1","parameterCategory":1,"la1":31.0,"la2":29.5877,"lo1":-88.7671,"lo2":-86.6584,"dy":0.0162,"dx":0.0185,"nx":115,"ny":88,"refTime":"2024-05-01T12:00:00:Z","depth":0,"parameterNumber":2,"parameterNumberName":"U-component_of_WINDS"},"data":[0.0,0.0,0.0,0.0,0.0,0.0,0.0,0.0,0.0,0.0,0.0,0.0,0.0,0.0,0.0,0.0,0.0,0.0,0.0,0.0,0.0,0.0,0.0,0.0,0.0,0.0,0.0,0.0,0.0,0.0,0.0,0.0,0.0,0.0,0.0,0.0,0.0,0.0,0.0,0.0,0.0,0.0,0.0,0.0,0.0,0.0,0.0,0.0,0.0,0.0,0.0,0.0,0.0,0.0,0.0,0.0,0.0,0.0,0.0,0.0,0.0,0.0,0.0,0.0,0.0,0.0,0.0,0.0,0.0,0.0,0.0,0.0,0.0,0.0,0.0,0.0,0.0,0.0,0.0,0.0,0.0,0.0,0.0,0.0,0.0,0.0,0.0,0.0,0.0,0.0,0.0,0.0,0.0,0.0,0.0,0.0,0.0,0.0,0.0,0.0,0.0,0.0,0.0,0.0,0.0,0.0,0.0,0.0,0.0,0.0,0.0,0.0,0.0,0.0,0.0,0.0,0.0,0.0,0.0,0.0,0.0,0.0,0.0,0.0,0.0,0.0,0.0,0.0,0.0,0.0,0.0,0.0,0.0,0.0,0.0,0.0,0.0,0.0,0.0,0.0,0.0,0.0,0.0,0.0,0.0,0.0,0.0,0.0,0.0,0.0,0.0,0.0,0.0,0.0,0.0,0.0,0.0,0.0,0.0,0.0,0.0,0.0,0.0,0.0,0.0,0.0,0.0,0.0,0.0,0.0,0.0,0.0,0.0,0.0,0.0,0.0,0.0,0.0,0.0,0.0,0.0,0.0,0.0,0.0,0.0,0.0,0.0,0.0,0.0,0.0,0.0,0.0,0.0,0.0,0.0,0.0,0.0,0.0,0.0,0.0,0.0,0.0,0.0,0.0,0.0,0.0,0.0,0.0,0.0,0.0,0.0,0.0,0.0,0.0,0.0,0.0,0.0,0.0,0.0,0.0,0.0,0.0,0.0,0.0,0.0,0.0,0.0,0.0,0.0,0.0,0.0,0.0,0.0,0.0,0.0,0.0,0.0,0.0,0.0,0.0,0.0,0.0,0.0,0.0,0.0,0.0,0.0,0.0,0.0,0.0,0.0,0.0,0.0,0.0,0.0,0.0,0.0,0.0,0.0,0.0,0.0,0.0,0.0,0.0,0.0,0.0,0.0,0.0,0.0,0.0,0.0,0.0,0.0,0.0,0.0,0.0,0.0,0.0,0.0,0.0,0.0,0.0,0.0,0.0,0.0,0.0,0.0,0.0,0.0,0.0,0.0,0.0,0.0,0.0,0.0,0.0,0.0,0.0,0.0,0.0,0.0,0.0,0.0,0.0,0.0,0.0,0.0,0.0,0.0,0.0,0.0,0.0,0.0,0.0,0.0,0.0,0.0,0.0,0.0,0.0,0.0,0.0,0.0,0.0,0.0,0.0,0.0,0.0,0.0,0.0,0.0,0.0,0.0,0.0,0.0,0.0,0.0,0.0,0.0,0.0,0.0,0.0,0.0,0.0,0.0,0.0,0.0,0.0,0.0,0.0,0.0,0.0,0.0,0.0,0.0,0.0,0.0,0.0,0.0,0.0,0.0,0.0,0.0,0.0,0.0,0.0,0.0,0.0,0.0,0.0,0.0,0.0,0.0,0.0,0.0,0.0,0.0,0.0,0.0,0.0,0.0,0.0,0.0,0.0,0.0,0.0,0.0,0.0,0.0,0.0,0.0,0.0,0.0,0.0,0.0,0.0,0.0,0.0,0.0,0.0,0.0,0.0,0.0,0.0,0.0,0.0,0.0,0.0,0.0,0.0,0.0,0.0,0.0,0.0,0.0,0.0,0.0,0.0,0.0,0.0,0.0,0.0,0.0,0.0,0.0,0.0,0.0,0.0,0.0,0.0,0.0,0.0,0.0,0.0,0.0,0.0,0.0,0.0,0.0,0.0,0.0,0.0,0.0,0.0,0.0,0.0,0.0,0.0,0.0,0.0,0.0,0.0,0.0,0.0,0.0,0.0,0.0,0.0,0.0,0.0,0.0,0.0,0.0,0.0,0.0,0.0,0.0,0.0,0.0,0.0,0.0,0.0,0.0,0.0,0.0,0.0,0.0,0.0,0.0,0.0,0.0,0.0,0.0,0.0,0.0,0.0,0.0,0.0,0.0,0.0,0.0,0.0,0.0,0.0,0.0,0.0,0.0,0.0,0.0,0.0,0.0,0.0,0.0,0.0,0.0,0.0,0.0,0.0,0.0,0.0,0.0,0.0,0.0,0.0,0.0,0.0,0.0,0.0,0.0,0.0,0.0,0.0,0.0,0.0,0.0,0.0,0.0,0.0,0.0,0.0,0.0,0.0,0.0,0.0,0.0,0.0,0.0,0.0,0.0,0.0,0.0,0.0,0.0,0.0,0.0,0.0,0.0,0.0,0.0,0.0,0.0,0.0,0.0,0.0,0.0,0.0,0.0,0.0,0.0,0.0,0.0,0.0,0.0,0.0,0.0,0.0,0.0,0.0,0.0,0.0,0.0,0.0,0.0,0.0,0.0,0.0,0.0,0.0,0.0,0.0,0.0,0.0,0.0,0.0,0.0,0.0,0.0,0.0,0.0,0.0,0.0,0.0,0.0,0.0,0.0,0.0,0.0,0.0,0.0,0.0,0.0,0.0,0.0,0.0,0.0,0.0,0.0,0.0,0.0,0.0,0.0,0.0,0.0,0.0,0.0,0.0,0.0,0.0,0.0,0.0,0.0,0.0,0.0,0.0,0.0,0.0,0.0,0.0,0.0,0.0,0.0,0.0,0.0,0.0,0.0,0.0,0.0,0.0,0.0,0.0,0.0,0.0,0.0,0.0,0.0,0.0,0.0,0.0,0.0,0.0,0.0,0.0,0.0,0.0,0.0,0.0,0.0,0.0,0.0,0.0,0.0,0.0,0.0,0.0,0.0,0.0,0.0,0.0,0.0,0.0,0.0,0.0,0.0,0.0,0.0,0.0,0.0,0.0,0.0,0.0,0.0,0.0,0.0,0.0,0.0,0.0,0.0,0.0,0.0,0.0,0.0,0.0,0.0,0.0,0.0,0.0,0.0,0.0,0.0,0.0,0.0,0.0,0.0,0.0,0.0,0.0,0.0,0.0,0.0,0.0,0.0,0.0,0.0,0.0,0.0,0.0,0.0,0.0,0.0,0.0,0.0,0.0,0.0,0.0,0.0,0.0,0.0,0.0,0.0,0.0,0.0,0.0,0.0,0.0,0.0,0.0,0.0,0.0,0.0,0.0,0.0,0.0,0.0,0.0,0.0,0.0,0.0,0.0,0.0,0.0,0.0,0.0,0.0,0.0,0.0,0.0,0.0,0.0,0.0,0.0,0.0,0.0,0.0,0.0,0.0,0.0,0.0,0.0,0.0,0.0,0.0,0.0,0.0,0.0,0.0,0.0,0.0,0.0,0.0,0.0,0.0,0.0,0.0,0.0,0.0,0.0,0.0,0.0,0.0,0.0,0.0,0.0,0.0,0.0,0.0,0.0,0.0,0.0,0.0,0.0,0.0,0.0,0.0,0.0,0.0,0.0,0.0,0.0,0.0,0.0,0.0,0.0,0.0,0.0,0.0,0.0,0.0,0.0,0.0,0.0,0.0,0.0,0.0,0.0,0.0,0.0,0.0,0.0,0.0,0.0,0.0,0.0,0.0,0.0,0.0,0.0,0.0,0.0,0.0,0.0,0.0,0.0,0.0,0.0,0.0,0.0,0.0,0.0,0.0,0.0,0.0,0.0,0.0,0.0,0.0,0.0,0.0,0.0,0.0,0.0,0.0,0.0,0.0,0.0,0.0,0.0,0.0,0.0,0.0,0.0,0.0,0.0,0.0,0.0,0.0,0.0,0.0,0.0,0.0,0.0,0.0,0.0,0.0,0.0,0.0,0.0,0.0,0.0,0.0,0.0,0.0,0.0,0.0,0.0,0.0,0.0,0.0,0.0,0.0,0.0,0.0,0.0,0.0,0.0,0.0,0.0,0.0,0.0,0.0,0.0,0.0,0.0,0.0,0.0,0.0,0.0,0.0,0.0,0.0,0.0,0.0,0.0,0.0,0.0,0.0,0.0,0.0,0.0,0.0,0.0,0.0,0.0,0.0,0.0,0.0,0.0,0.0,0.0,0.0,0.0,0.0,0.0,0.0,0.0,0.0,0.0,0.0,0.0,0.0,0.0,0.0,0.0,0.0,0.0,0.0,0.0,0.0,0.0,0.0,0.0,0.0,0.0,0.0,0.0,0.0,0.0,-4.5293,0.0,0.0,0.0,0.0,0.0,0.0,0.0,0.0,0.0,0.0,0.0,0.0,0.0,0.0,0.0,0.0,0.0,0.0,0.0,0.0,0.0,0.0,0.0,0.0,0.0,0.0,0.0,0.0,0.0,0.0,0.0,0.0,0.0,0.0,0.0,0.0,0.0,0.0,0.0,0.0,0.0,0.0,0.0,0.0,0.0,0.0,0.0,0.0,0.0,0.0,0.0,0.0,0.0,0.0,0.0,0.0,0.0,0.0,0.0,0.0,0.0,0.0,0.0,0.0,0.0,0.0,0.0,0.0,0.0,0.0,0.0,0.0,0.0,0.0,0.0,0.0,0.0,0.0,0.0,0.0,0.0,0.0,0.0,0.0,0.0,0.0,0.0,0.0,0.0,0.0,0.0,0.0,0.0,0.0,0.0,0.0,0.0,0.0,0.0,0.0,0.0,0.0,0.0,0.0,0.0,0.0,0.0,0.0,0.0,0.0,-4.8542,-4.606,-4.8472,-4.8334,-4.5137,0.0,0.0,0.0,0.0,0.0,0.0,0.0,0.0,0.0,0.0,0.0,0.0,0.0,0.0,0.0,0.0,0.0,0.0,0.0,0.0,0.0,0.0,0.0,0.0,0.0,0.0,0.0,0.0,0.0,0.0,0.0,0.0,0.0,0.0,0.0,0.0,0.0,0.0,0.0,0.0,0.0,0.0,0.0,0.0,0.0,0.0,0.0,0.0,0.0,0.0,0.0,0.0,0.0,0.0,0.0,0.0,0.0,0.0,0.0,0.0,0.0,0.0,0.0,0.0,0.0,0.0,0.0,0.0,0.0,0.0,0.0,0.0,0.0,0.0,0.0,0.0,0.0,0.0,0.0,0.0,0.0,0.0,0.0,0.0,0.0,0.0,0.0,0.0,0.0,0.0,0.0,0.0,0.0,0.0,0.0,0.0,0.0,0.0,0.0,0.0,0.0,0.0,0.0,0.0,0.0,0.0,0.0,0.0,0.0,0.0,0.0,0.0,-4.9314,-4.912,-4.5742,0.0,0.0,0.0,0.0,0.0,0.0,0.0,0.0,0.0,0.0,0.0,0.0,0.0,0.0,0.0,0.0,0.0,0.0,0.0,0.0,0.0,0.0,0.0,0.0,0.0,0.0,0.0,0.0,0.0,0.0,0.0,0.0,0.0,0.0,0.0,0.0,0.0,0.0,0.0,0.0,0.0,0.0,0.0,0.0,0.0,0.0,0.0,0.0,0.0,0.0,0.0,0.0,0.0,0.0,0.0,0.0,0.0,0.0,0.0,0.0,0.0,0.0,0.0,0.0,0.0,0.0,0.0,0.0,0.0,0.0,0.0,0.0,0.0,0.0,0.0,0.0,0.0,0.0,0.0,0.0,0.0,0.0,0.0,0.0,0.0,0.0,0.0,0.0,0.0,0.0,0.0,0.0,0.0,0.0,0.0,0.0,0.0,0.0,0.0,0.0,0.0,0.0,0.0,0.0,0.0,0.0,0.0,0.0,0.0,0.0,-4.676,-4.9264,-4.9702,0.0,-4.7402,0.0,0.0,0.0,0.0,0.0,0.0,0.0,0.0,0.0,0.0,0.0,0.0,0.0,0.0,0.0,0.0,0.0,0.0,0.0,0.0,0.0,0.0,0.0,0.0,0.0,0.0,0.0,0.0,0.0,0.0,0.0,0.0,0.0,0.0,0.0,0.0,0.0,0.0,0.0,0.0,0.0,0.0,0.0,0.0,0.0,0.0,0.0,0.0,0.0,0.0,0.0,0.0,0.0,0.0,0.0,0.0,0.0,0.0,0.0,0.0,0.0,0.0,0.0,0.0,0.0,0.0,0.0,0.0,0.0,0.0,0.0,0.0,0.0,0.0,0.0,0.0,0.0,0.0,0.0,0.0,0.0,0.0,0.0,0.0,0.0,0.0,0.0,0.0,0.0,0.0,0.0,0.0,0.0,0.0,0.0,0.0,0.0,0.0,0.0,0.0,0.0,0.0,0.0,0.0,0.0,0.0,0.0,0.0,0.0,0.0,-4.6867,-4.9708,-4.9424,-4.8268,0.0,0.0,0.0,0.0,0.0,0.0,0.0,0.0,0.0,0.0,0.0,0.0,0.0,0.0,0.0,0.0,0.0,0.0,0.0,0.0,0.0,0.0,0.0,0.0,0.0,0.0,0.0,0.0,0.0,0.0,0.0,0.0,0.0,0.0,0.0,0.0,0.0,0.0,0.0,0.0,0.0,0.0,0.0,0.0,0.0,0.0,0.0,0.0,0.0,0.0,0.0,0.0,0.0,0.0,0.0,0.0,0.0,0.0,0.0,0.0,0.0,0.0,0.0,0.0,0.0,0.0,0.0,0.0,0.0,0.0,0.0,0.0,0.0,0.0,0.0,0.0,0.0,0.0,0.0,0.0,0.0,0.0,0.0,0.0,0.0,0.0,0.0,0.0,0.0,0.0,0.0,0.0,0.0,0.0,0.0,0.0,0.0,0.0,0.0,0.0,0.0,0.0,0.0,0.0,0.0,0.0,0.0,0.0,0.0,0.0,-4.6871,-4.7916,-5.0588,-4.9588,-4.7891,-4.5781,0.0,0.0,0.0,0.0,0.0,0.0,0.0,0.0,0.0,0.0,0.0,0.0,0.0,0.0,0.0,0.0,0.0,0.0,0.0,0.0,0.0,0.0,0.0,0.0,0.0,0.0,0.0,0.0,0.0,0.0,0.0,0.0,0.0,0.0,0.0,0.0,0.0,0.0,0.0,0.0,0.0,0.0,0.0,0.0,0.0,0.0,0.0,0.0,0.0,0.0,0.0,0.0,0.0,0.0,0.0,0.0,0.0,0.0,0.0,0.0,0.0,0.0,0.0,0.0,0.0,0.0,0.0,0.0,0.0,0.0,0.0,0.0,0.0,0.0,0.0,0.0,0.0,0.0,0.0,0.0,0.0,0.0,0.0,0.0,0.0,0.0,0.0,0.0,0.0,0.0,0.0,0.0,0.0,0.0,0.0,0.0,0.0,0.0,0.0,0.0,0.0,0.0,0.0,0.0,0.0,0.0,0.0,0.0,-5.1489,-4.948,-4.9899,-5.3146,-5.05,-4.8457,0.0,0.0,0.0,0.0,0.0,0.0,0.0,0.0,0.0,0.0,0.0,0.0,0.0,0.0,0.0,0.0,0.0,0.0,0.0,0.0,0.0,0.0,0.0,0.0,0.0,0.0,0.0,0.0,0.0,0.0,0.0,0.0,0.0,0.0,0.0,0.0,0.0,0.0,0.0,0.0,0.0,0.0,0.0,0.0,0.0,0.0,0.0,0.0,0.0,0.0,0.0,0.0,0.0,0.0,0.0,0.0,0.0,0.0,0.0,0.0,0.0,0.0,0.0,0.0,0.0,0.0,0.0,0.0,0.0,0.0,0.0,0.0,0.0,0.0,0.0,0.0,0.0,0.0,0.0,0.0,0.0,0.0,0.0,0.0,0.0,0.0,0.0,0.0,0.0,0.0,0.0,0.0,0.0,0.0,0.0,0.0,0.0,0.0,0.0,0.0,0.0,0.0,0.0,0.0,0.0,0.0,0.0,0.0,0.0,-4.7289,-4.8596,-5.017,-5.1895,-4.9988,-4.8456,0.0,0.0,0.0,0.0,0.0,0.0,0.0,0.0,0.0,0.0,0.0,0.0,0.0,0.0,0.0,0.0,0.0,0.0,0.0,0.0,0.0,0.0,0.0,0.0,0.0,0.0,0.0,0.0,0.0,0.0,0.0,0.0,0.0,0.0,0.0,0.0,0.0,0.0,0.0,0.0,0.0,0.0,0.0,0.0,0.0,0.0,0.0,0.0,0.0,0.0,0.0,0.0,0.0,0.0,0.0,0.0,0.0,0.0,0.0,0.0,0.0,0.0,0.0,0.0,0.0,0.0,0.0,0.0,0.0,0.0,0.0,0.0,0.0,0.0,0.0,0.0,0.0,0.0,0.0,0.0,0.0,0.0,0.0,0.0,0.0,0.0,0.0,0.0,0.0,0.0,0.0,0.0,0.0,0.0,0.0,0.0,0.0,0.0,0.0,0.0,0.0,0.0,0.0,0.0,0.0,0.0,0.0,0.0,0.0,-4.6714,0.0,-5.1507,-5.1567,-5.0077,-4.829,0.0,0.0,0.0,0.0,0.0,0.0,0.0,0.0,0.0,0.0,0.0,0.0,0.0,0.0,0.0,0.0,0.0,0.0,0.0,0.0,0.0,0.0,0.0,0.0,0.0,0.0,0.0,0.0,0.0,0.0,0.0,0.0,0.0,0.0,0.0,0.0,0.0,0.0,0.0,0.0,0.0,0.0,0.0,0.0,0.0,0.0,0.0,0.0,0.0,0.0,0.0,0.0,0.0,0.0,0.0,0.0,0.0,0.0,0.0,0.0,0.0,0.0,0.0,0.0,0.0,0.0,0.0,0.0,0.0,0.0,0.0,0.0,0.0,0.0,0.0,0.0,0.0,0.0,0.0,0.0,0.0,0.0,0.0,0.0,0.0,0.0,0.0,0.0,0.0,0.0,0.0,0.0,0.0,0.0,0.0,0.0,0.0,0.0,0.0,0.0,0.0,0.0,0.0,0.0,0.0,0.0,0.0,0.0,-4.5966,-5.0776,-5.3336,-5.3857,-5.2531,-5.0819,-4.799,0.0,0.0,0.0,0.0,0.0,0.0,0.0,0.0,0.0,0.0,0.0,0.0,0.0,0.0,0.0,0.0,0.0,0.0,0.0,0.0,0.0,0.0,0.0,0.0,0.0,0.0,0.0,0.0,0.0,0.0,0.0,0.0,0.0,0.0,0.0,0.0,0.0,0.0,0.0,0.0,0.0,0.0,0.0,0.0,0.0,0.0,0.0,0.0,0.0,0.0,0.0,0.0,0.0,0.0,0.0,0.0,0.0,0.0,0.0,0.0,0.0,0.0,0.0,0.0,0.0,0.0,0.0,0.0,0.0,0.0,0.0,0.0,0.0,0.0,0.0,0.0,0.0,0.0,0.0,0.0,0.0,0.0,0.0,0.0,0.0,0.0,0.0,0.0,0.0,0.0,0.0,0.0,0.0,0.0,0.0,0.0,0.0,0.0,0.0,0.0,0.0,0.0,0.0,0.0,0.0,0.0,0.0,0.0,0.0,-4.7751,-5.0707,-5.268,-5.3371,-5.0156,-4.8203,0.0,0.0,0.0,0.0,0.0,0.0,0.0,0.0,0.0,0.0,0.0,0.0,0.0,0.0,0.0,0.0,0.0,0.0,0.0,0.0,0.0,0.0,0.0,0.0,0.0,0.0,0.0,0.0,0.0,0.0,0.0,0.0,0.0,0.0,0.0,0.0,0.0,0.0,0.0,0.0,0.0,0.0,0.0,0.0,0.0,0.0,0.0,0.0,0.0,0.0,0.0,0.0,0.0,0.0,0.0,0.0,0.0,0.0,0.0,0.0,0.0,0.0,0.0,0.0,0.0,0.0,0.0,0.0,0.0,0.0,0.0,0.0,0.0,0.0,0.0,0.0,0.0,0.0,0.0,0.0,0.0,0.0,0.0,0.0,0.0,0.0,0.0,0.0,0.0,0.0,0.0,0.0,0.0,0.0,0.0,0.0,0.0,0.0,0.0,0.0,0.0,0.0,0.0,0.0,0.0,0.0,0.0,0.0,0.0,-4.8237,-5.0979,-5.2994,-5.3965,-5.0675,-4.8751,-4.8353,0.0,0.0,0.0,0.0,0.0,0.0,0.0,0.0,0.0,0.0,0.0,0.0,0.0,0.0,0.0,0.0,0.0,0.0,0.0,0.0,0.0,0.0,0.0,0.0,0.0,0.0,0.0,0.0,0.0,0.0,0.0,0.0,0.0,0.0,0.0,0.0,0.0,0.0,0.0,0.0,0.0,0.0,0.0,0.0,0.0,0.0,0.0,0.0,0.0,0.0,0.0,0.0,0.0,0.0,0.0,0.0,0.0,0.0,0.0,0.0,0.0,0.0,0.0,0.0,0.0,0.0,0.0,0.0,0.0,0.0,0.0,0.0,0.0,0.0,0.0,0.0,0.0,0.0,0.0,0.0,0.0,0.0,0.0,0.0,0.0,0.0,0.0,0.0,0.0,0.0,0.0,0.0,0.0,0.0,0.0,0.0,0.0,0.0,0.0,0.0,0.0,0.0,0.0,0.0,0.0,0.0,0.0,0.0,-5.1374,-5.3676,-5.4671,-5.4258,-5.225,-4.9666,0.0,0.0,0.0,0.0,0.0,0.0,0.0,0.0,0.0,0.0,0.0,0.0,0.0,0.0,0.0,0.0,0.0,0.0,0.0,0.0,0.0,0.0,0.0,0.0,0.0,0.0,0.0,0.0,0.0,0.0,0.0,0.0,0.0,0.0,0.0,0.0,0.0,0.0,0.0,0.0,0.0,0.0,0.0,0.0,0.0,0.0,0.0,0.0,0.0,0.0,0.0,0.0,0.0,0.0,0.0,0.0,0.0,0.0,0.0,0.0,0.0,0.0,0.0,0.0,0.0,0.0,0.0,0.0,0.0,0.0,0.0,0.0,0.0,0.0,0.0,0.0,0.0,0.0,0.0,0.0,0.0,0.0,0.0,0.0,0.0,0.0,0.0,0.0,0.0,0.0,0.0,0.0,0.0,0.0,0.0,0.0,0.0,0.0,0.0,0.0,0.0,0.0,0.0,0.0,0.0,0.0,0.0,0.0,0.0,-5.2578,-5.4121,-5.5532,-5.6738,-5.3902,-5.1546,0.0,0.0,0.0,0.0,0.0,0.0,0.0,0.0,0.0,0.0,0.0,0.0,0.0,0.0,0.0,0.0,0.0,0.0,0.0,0.0,0.0,0.0,0.0,0.0,0.0,0.0,0.0,0.0,0.0,0.0,0.0,0.0,0.0,0.0,0.0,0.0,0.0,0.0,0.0,0.0,0.0,0.0,0.0,0.0,0.0,0.0,0.0,0.0,0.0,0.0,0.0,0.0,0.0,0.0,0.0,0.0,0.0,0.0,0.0,0.0,0.0,0.0,0.0,0.0,0.0,0.0,0.0,0.0,0.0,0.0,0.0,0.0,0.0,0.0,0.0,0.0,0.0,0.0,0.0,0.0,0.0,0.0,0.0,0.0,0.0,0.0,0.0,0.0,0.0,0.0,0.0,0.0,0.0,0.0,0.0,0.0,0.0,0.0,0.0,0.0,0.0,0.0,0.0,0.0,0.0,0.0,0.0,0.0,-5.025,-5.2967,-5.4614,-5.5868,-5.669,-5.4413,-5.2414,0.0,0.0,0.0,0.0,0.0,0.0,0.0,0.0,0.0,0.0,0.0,0.0,0.0,0.0,0.0,0.0,0.0,0.0,0.0,0.0,0.0,0.0,0.0,0.0,0.0,0.0,0.0,0.0,0.0,0.0,0.0,0.0,0.0,0.0,0.0,0.0,0.0,0.0,0.0,0.0,0.0,0.0,0.0,0.0,0.0,0.0,0.0,0.0,0.0,0.0,0.0,0.0,0.0,0.0,0.0,0.0,0.0,0.0,0.0,0.0,0.0,0.0,0.0,0.0,0.0,0.0,0.0,0.0,0.0,0.0,0.0,0.0,0.0,0.0,0.0,0.0,0.0,0.0,0.0,0.0,0.0,0.0,0.0,0.0,0.0,0.0,0.0,0.0,0.0,0.0,0.0,0.0,0.0,0.0,0.0,0.0,0.0,0.0,0.0,0.0,0.0,0.0,0.0,0.0,0.0,0.0,0.0,0.0,-5.0533,-5.2684,-5.4802,-5.5626,-5.4955,-5.4139,-5.2584,0.0,0.0,0.0,0.0,0.0,0.0,0.0,0.0,0.0,0.0,0.0,0.0,0.0,0.0,0.0,0.0,0.0,0.0,0.0,0.0,0.0,0.0,0.0,0.0,0.0,0.0,0.0,0.0,0.0,0.0,0.0,0.0,0.0,0.0,0.0,0.0,0.0,0.0,0.0,0.0,0.0,0.0,0.0,0.0,0.0,0.0,0.0,0.0,0.0,0.0,0.0,0.0,0.0,0.0,0.0,0.0,0.0,0.0,0.0,0.0,0.0,0.0,0.0,0.0,0.0,0.0,0.0,0.0,0.0,0.0,0.0,0.0,0.0,0.0,0.0,0.0,0.0,0.0,0.0,0.0,0.0,0.0,0.0,0.0,0.0,0.0,0.0,0.0,0.0,0.0,0.0,0.0,0.0,0.0,0.0,0.0,0.0,0.0,0.0,0.0,0.0,0.0,0.0,0.0,0.0,0.0,0.0,0.0,-4.9542,-5.1366,-5.3211,-5.4117,-5.4074,-5.3337,-5.2089,0.0,0.0,0.0,0.0,0.0,0.0,0.0,0.0,0.0,0.0,0.0,0.0,0.0,0.0,0.0,0.0,0.0,0.0,0.0,0.0,0.0,0.0,0.0,0.0,0.0,0.0,0.0,0.0,0.0,0.0,0.0,0.0,0.0,0.0,0.0,0.0,0.0,0.0,0.0,0.0,0.0,0.0,0.0,0.0,0.0,0.0,0.0,0.0,-5.2874,0.0,0.0,0.0,0.0,0.0,0.0,0.0,0.0,0.0,0.0,0.0,0.0,0.0,0.0,0.0,0.0,0.0,0.0,0.0,0.0,0.0,0.0,0.0,0.0,0.0,0.0,0.0,0.0,0.0,0.0,0.0,0.0,0.0,0.0,0.0,0.0,0.0,0.0,0.0,0.0,0.0,0.0,0.0,0.0,0.0,0.0,0.0,0.0,0.0,0.0,0.0,0.0,0.0,0.0,0.0,0.0,0.0,0.0,0.0,-4.9078,-5.0579,-5.2081,-5.278,-5.2531,-5.2175,-5.1222,0.0,0.0,0.0,0.0,0.0,0.0,0.0,0.0,0.0,0.0,0.0,0.0,0.0,0.0,0.0,0.0,0.0,0.0,0.0,0.0,0.0,0.0,0.0,0.0,0.0,0.0,0.0,0.0,0.0,0.0,0.0,0.0,0.0,0.0,0.0,0.0,0.0,0.0,0.0,0.0,0.0,0.0,0.0,0.0,0.0,0.0,0.0,0.0,0.0,0.0,0.0,0.0,0.0,0.0,0.0,0.0,0.0,0.0,0.0,0.0,0.0,0.0,0.0,0.0,0.0,0.0,0.0,0.0,0.0,0.0,0.0,0.0,0.0,0.0,0.0,0.0,0.0,0.0,0.0,0.0,0.0,0.0,0.0,0.0,0.0,0.0,0.0,0.0,0.0,0.0,0.0,0.0,0.0,0.0,0.0,0.0,0.0,0.0,0.0,0.0,0.0,0.0,0.0,0.0,0.0,0.0,0.0,-4.7273,-4.8591,-4.9802,-5.1125,-5.1521,-5.0933,-5.0986,-5.0225,-4.8586,0.0,0.0,0.0,0.0,0.0,0.0,0.0,0.0,0.0,0.0,0.0,0.0,0.0,0.0,0.0,0.0,0.0,0.0,0.0,0.0,0.0,0.0,0.0,0.0,0.0,0.0,0.0,0.0,0.0,0.0,0.0,0.0,0.0,0.0,0.0,0.0,0.0,0.0,-4.4412,-4.9289,0.0,0.0,0.0,0.0,0.0,0.0,0.0,0.0,-5.4396,0.0,0.0,0.0,0.0,0.0,0.0,0.0,0.0,0.0,0.0,0.0,0.0,0.0,0.0,0.0,0.0,0.0,0.0,0.0,0.0,0.0,0.0,0.0,0.0,0.0,0.0,0.0,0.0,0.0,0.0,0.0,0.0,0.0,0.0,0.0,0.0,0.0,0.0,0.0,0.0,0.0,0.0,0.0,0.0,0.0,0.0,0.0,0.0,0.0,0.0,0.0,0.0,0.0,0.0,0.0,0.0,-4.6234,-4.6616,-4.7342,-4.8493,-4.9871,-5.0395,-5.0024,-5.0131,-4.9366,-4.765,0.0,0.0,0.0,0.0,0.0,0.0,0.0,0.0,0.0,0.0,0.0,0.0,0.0,0.0,0.0,0.0,0.0,0.0,0.0,0.0,0.0,0.0,0.0,0.0,0.0,0.0,0.0,0.0,0.0,0.0,0.0,0.0,0.0,0.0,0.0,0.0,0.0,0.0,0.0,-5.2447,-5.4482,0.0,0.0,0.0,0.0,0.0,0.0,0.0,0.0,-5.4418,0.0,0.0,0.0,0.0,0.0,0.0,0.0,0.0,0.0,0.0,0.0,0.0,0.0,0.0,0.0,0.0,0.0,0.0,0.0,0.0,0.0,0.0,0.0,0.0,0.0,0.0,0.0,0.0,0.0,0.0,0.0,0.0,0.0,0.0,0.0,0.0,0.0,0.0,0.0,0.0,0.0,0.0,0.0,0.0,0.0,0.0,0.0,0.0,0.0,0.0,0.0,0.0,0.0,0.0,0.0,-4.4586,-4.5588,-4.6469,-4.7305,-4.835,-4.8856,-4.8766,-4.8985,-4.8521,0.0,0.0,0.0,0.0,0.0,0.0,0.0,0.0,0.0,0.0,0.0,0.0,0.0,0.0,0.0,0.0,0.0,0.0,0.0,0.0,0.0,0.0,0.0,0.0,0.0,0.0,0.0,0.0,0.0,0.0,0.0,0.0,0.0,0.0,0.0,0.0,0.0,0.0,0.0,0.0,-5.3219,-5.5134,-5.6141,0.0,0.0,0.0,0.0,0.0,0.0,-5.4446,-5.4126,0.0,0.0,0.0,0.0,0.0,0.0,0.0,0.0,0.0,0.0,0.0,0.0,0.0,0.0,0.0,0.0,0.0,0.0,0.0,0.0,0.0,0.0,0.0,0.0,0.0,0.0,0.0,0.0,0.0,0.0,0.0,0.0,0.0,0.0,0.0,0.0,0.0,0.0,0.0,0.0,0.0,0.0,0.0,0.0,0.0,0.0,0.0,0.0,0.0,0.0,0.0,0.0,0.0,0.0,0.0,-4.3026,-4.4534,-4.5638,-4.6227,-4.6992,-4.7441,-4.7536,-4.7801,-4.7666,0.0,0.0,0.0,0.0,0.0,0.0,0.0,0.0,0.0,0.0,0.0,0.0,0.0,0.0,0.0,0.0,0.0,0.0,0.0,0.0,0.0,0.0,0.0,0.0,0.0,0.0,0.0,0.0,0.0,0.0,0.0,0.0,0.0,0.0,0.0,0.0,0.0,0.0,0.0,0.0,0.0,-5.5529,-5.6395,-5.6697,0.0,0.0,0.0,0.0,-5.4962,-5.4697,0.0,0.0,0.0,0.0,0.0,0.0,0.0,0.0,0.0,0.0,0.0,0.0,0.0,0.0,0.0,0.0,0.0,0.0,0.0,0.0,0.0,0.0,0.0,0.0,0.0,0.0,0.0,0.0,0.0,0.0,0.0,0.0,0.0,0.0,0.0,0.0,0.0,0.0,0.0,0.0,0.0,0.0,0.0,0.0,0.0,0.0,0.0,0.0,0.0,0.0,0.0,0.0,0.0,0.0,0.0,0.0,-4.2991,-4.3722,-4.4492,-4.5348,-4.6175,-4.6641,-4.6653,-4.6688,-4.6827,0.0,0.0,0.0,0.0,0.0,0.0,0.0,0.0,0.0,0.0,0.0,0.0,0.0,0.0,0.0,0.0,0.0,0.0,0.0,0.0,0.0,0.0,0.0,0.0,0.0,0.0,0.0,0.0,0.0,0.0,0.0,0.0,0.0,0.0,0.0,0.0,0.0,0.0,0.0,0.0,0.0,-5.599,-5.5304,-5.5826,-5.5914,0.0,0.0,-5.4709,-5.5723,-5.6479,0.0,0.0,0.0,0.0,0.0,0.0,0.0,0.0,0.0,0.0,0.0,0.0,0.0,0.0,0.0,0.0,0.0,0.0,0.0,0.0,0.0,0.0,0.0,0.0,0.0,0.0,0.0,0.0,0.0,0.0,0.0,0.0,0.0,0.0,0.0,0.0,0.0,0.0,0.0,0.0,0.0,0.0,0.0,0.0,0.0,0.0,0.0,0.0,0.0,0.0,0.0,0.0,0.0,0.0,0.0,-4.0881,-4.1786,-4.2071,-4.2711,-4.376,-4.4348,-4.4755,-4.5066,-4.5304,-4.5354,0.0,0.0,0.0,0.0,0.0,0.0,0.0,0.0,0.0,0.0,0.0,0.0,0.0,0.0,0.0,0.0,0.0,0.0,0.0,0.0,0.0,0.0,0.0,0.0,0.0,0.0,0.0,0.0,0.0,0.0,0.0,0.0,0.0,0.0,0.0,0.0,0.0,0.0,0.0,0.0,0.0,0.0,-5.6347,-5.676,0.0,0.0,0.0,-5.521,-5.5249,0.0,0.0,0.0,0.0,0.0,0.0,0.0,0.0,0.0,0.0,0.0,0.0,0.0,0.0,0.0,0.0,0.0,0.0,0.0,0.0,0.0,0.0,0.0,0.0,0.0,0.0,0.0,0.0,0.0,0.0,0.0,0.0,0.0,0.0,0.0,0.0,0.0,0.0,0.0,0.0,0.0,0.0,0.0,0.0,0.0,0.0,0.0,0.0,0.0,0.0,0.0,0.0,0.0,0.0,0.0,0.0,0.0,-4.0862,-4.0903,-4.1402,-4.246,-4.2868,-4.331,-4.3772,-4.4214,0.0,0.0,0.0,0.0,0.0,0.0,0.0,0.0,0.0,0.0,0.0,0.0,0.0,0.0,0.0,0.0,0.0,0.0,0.0,0.0,0.0,0.0,0.0,0.0,0.0,0.0,0.0,-3.8844,0.0,0.0,0.0,0.0,0.0,0.0,0.0,0.0,0.0,0.0,0.0,0.0,0.0,0.0,-5.5132,-5.6523,-5.7032,-5.702,0.0,0.0,-5.5363,-5.4882,-5.5288,-5.4781,0.0,0.0,0.0,0.0,0.0,0.0,0.0,0.0,0.0,0.0,0.0,0.0,0.0,0.0,0.0,0.0,0.0,0.0,0.0,0.0,0.0,0.0,0.0,0.0,0.0,0.0,0.0,0.0,0.0,0.0,0.0,0.0,0.0,0.0,0.0,0.0,0.0,0.0,0.0,0.0,0.0,0.0,0.0,0.0,0.0,0.0,0.0,0.0,0.0,0.0,0.0,0.0,0.0,0.0,-3.9661,-4.0845,-4.0903,-4.1223,-4.1835,-4.2442,-4.2886,-4.3238,-4.3775,-4.3807,0.0,0.0,0.0,0.0,0.0,0.0,0.0,0.0,0.0,0.0,0.0,0.0,0.0,0.0,0.0,0.0,0.0,0.0,0.0,0.0,0.0,0.0,0.0,0.0,0.0,0.0,0.0,0.0,0.0,0.0,0.0,0.0,0.0,0.0,0.0,0.0,0.0,0.0,0.0,0.0,0.0,-5.3655,-5.4501,-5.5566,-5.6274,0.0,-5.5596,-5.5141,-5.5058,-5.6837,-5.659,-5.1702,0.0,0.0,0.0,0.0,0.0,0.0,0.0,0.0,0.0,0.0,0.0,0.0,0.0,0.0,0.0,0.0,0.0,0.0,0.0,0.0,0.0,0.0,0.0,0.0,0.0,0.0,0.0,0.0,0.0,0.0,0.0,0.0,0.0,0.0,0.0,0.0,0.0,0.0,0.0,0.0,0.0,0.0,0.0,0.0,0.0,0.0,0.0,0.0,0.0,0.0,0.0,0.0,0.0,-3.9229,-3.971,-4.0178,-4.0672,-4.1206,-4.1468,-4.1821,-4.2318,-4.255,-4.2102,0.0,0.0,0.0,0.0,0.0,0.0,0.0,0.0,0.0,0.0,0.0,0.0,0.0,0.0,0.0,0.0,0.0,0.0,0.0,0.0,0.0,0.0,0.0,0.0,0.0,0.0,0.0,0.0,-3.8723,-3.9151,-4.044,0.0,0.0,0.0,0.0,0.0,0.0,0.0,0.0,0.0,0.0,-5.2197,-5.3482,-5.4691,0.0,0.0,-5.5467,-5.5091,-5.4086,-5.4659,-5.4046,-5.0572,-5.0054,0.0,0.0,0.0,0.0,0.0,0.0,0.0,0.0,0.0,0.0,0.0,0.0,0.0,0.0,0.0,0.0,0.0,0.0,0.0,0.0,0.0,0.0,0.0,0.0,0.0,0.0,0.0,0.0,0.0,0.0,0.0,0.0,0.0,0.0,0.0,0.0,0.0,0.0,0.0,0.0,0.0,0.0,0.0,0.0,0.0,0.0,0.0,0.0,0.0,0.0,0.0,0.0,-3.9106,-3.9326,-3.9842,-4.0286,-4.0672,-4.081,-4.111,-4.1512,-4.1495,-4.0842,0.0,0.0,0.0,0.0,0.0,0.0,0.0,0.0,0.0,0.0,0.0,0.0,0.0,0.0,0.0,0.0,0.0,0.0,0.0,0.0,0.0,0.0,0.0,0.0,0.0,0.0,0.0,0.0,-3.9303,-3.9708,-4.064,0.0,0.0,0.0,0.0,0.0,0.0,0.0,0.0,0.0,0.0,-5.1022,-5.2619,-5.3776,-5.4478,-5.444,-5.4836,-5.4719,-5.3555,-5.3499,-5.2748,-5.0243,0.0,0.0,0.0,0.0,0.0,0.0,0.0,0.0,0.0,0.0,0.0,0.0,0.0,0.0,0.0,0.0,0.0,0.0,0.0,0.0,0.0,0.0,0.0,0.0,0.0,0.0,0.0,-4.0045,0.0,0.0,-3.8783,0.0,0.0,0.0,0.0,0.0,0.0,0.0,0.0,0.0,0.0,0.0,0.0,0.0,0.0,0.0,0.0,0.0,0.0,0.0,0.0,0.0,0.0,-3.9301,-4.002,-4.0011,-4.0113,-4.0121,-4.0631,-4.0886,-4.0891,-4.0795,-4.0332,-3.9461,0.0,0.0,0.0,0.0,0.0,0.0,0.0,0.0,0.0,0.0,0.0,0.0,0.0,0.0,0.0,0.0,0.0,0.0,0.0,0.0,0.0,0.0,0.0,0.0,0.0,0.0,-4.1974,-4.0797,-3.9666,0.0,0.0,0.0,0.0,0.0,0.0,0.0,0.0,0.0,0.0,-4.8563,-5.0198,-5.1756,-5.2692,-5.3209,-5.3206,-5.3545,-5.3814,-5.3702,-5.4095,-5.3616,0.0,0.0,0.0,0.0,0.0,0.0,0.0,0.0,0.0,0.0,0.0,0.0,0.0,0.0,0.0,0.0,0.0,0.0,0.0,0.0,0.0,0.0,0.0,0.0,0.0,0.0,0.0,-3.9642,-3.9219,0.0,0.0,0.0,0.0,0.0,0.0,0.0,0.0,0.0,0.0,0.0,-3.5558,-3.6812,0.0,0.0,0.0,0.0,0.0,0.0,0.0,0.0,0.0,0.0,0.0,0.0,-3.7149,-3.7818,-3.8811,-3.9289,-3.9315,-4.0003,-4.0129,-3.9668,-3.9592,-3.8886,-3.7422,0.0,0.0,0.0,0.0,0.0,0.0,0.0,0.0,0.0,0.0,0.0,0.0,0.0,0.0,0.0,0.0,0.0,0.0,0.0,0.0,0.0,0.0,0.0,0.0,0.0,-4.1051,0.0,0.0,0.0,0.0,0.0,0.0,0.0,0.0,0.0,0.0,0.0,-4.4708,-4.6122,-4.77,-4.893,-4.9462,-5.0729,-5.1632,0.0,0.0,0.0,0.0,0.0,0.0,0.0,0.0,0.0,0.0,0.0,0.0,0.0,0.0,-5.4222,-5.0856,-4.9529,-4.8875,-4.8586,0.0,0.0,0.0,0.0,0.0,0.0,0.0,0.0,0.0,0.0,0.0,0.0,0.0,0.0,-3.909,0.0,-3.8692,0.0,0.0,0.0,0.0,0.0,0.0,0.0,0.0,-3.5711,-3.5616,-3.4372,-3.5615,-3.5653,0.0,-3.5589,-3.615,0.0,0.0,0.0,0.0,0.0,0.0,0.0,0.0,-3.6526,-3.6794,-3.7901,-3.8411,-3.8204,-3.8923,-3.8967,-3.827,-3.8231,-3.7426,-3.5728,-3.5431,-3.5098,0.0,0.0,0.0,0.0,0.0,0.0,0.0,0.0,0.0,0.0,0.0,0.0,0.0,0.0,0.0,0.0,0.0,0.0,0.0,0.0,0.0,0.0,0.0,-4.022,0.0,0.0,0.0,0.0,0.0,0.0,0.0,0.0,0.0,-4.3138,-4.3921,-4.4758,-4.5908,-4.7181,-4.7988,-4.8058,0.0,0.0,0.0,0.0,0.0,0.0,0.0,-5.0173,-5.0134,-5.0495,-5.0895,-5.1248,-5.2796,-5.3976,-5.3798,0.0,0.0,-5.2058,-5.0856,-5.0106,-4.9538,-4.9413,-4.9317,-4.9048,-4.9202,-4.899,0.0,0.0,0.0,0.0,0.0,0.0,0.0,0.0,-3.7628,-3.8431,0.0,-3.8307,0.0,0.0,0.0,0.0,-3.4068,-3.4441,0.0,0.0,-3.4765,-3.4961,-3.4235,-3.4248,-3.3929,-3.3404,-3.4024,-3.415,-3.3859,-3.4968,0.0,0.0,0.0,0.0,0.0,0.0,-3.738,-3.6757,-3.7396,-3.7441,-3.687,-3.7454,-3.7423,-3.6785,-3.6836,-3.6129,-3.4636,-3.5685,-3.5353,-3.3261,-3.5621,0.0,0.0,0.0,0.0,0.0,0.0,0.0,0.0,0.0,0.0,0.0,0.0,0.0,0.0,0.0,0.0,0.0,0.0,0.0,0.0,-3.9112,0.0,0.0,0.0,0.0,0.0,0.0,0.0,0.0,0.0,0.0,-4.3541,-4.4528,-4.5386,-4.6253,0.0,0.0,0.0,0.0,-4.7913,-4.8643,-4.9387,-5.013,-5.083,-5.0918,-5.0431,-4.9047,0.0,0.0,-5.1324,-5.1656,-5.1897,-5.1427,-5.2152,-5.3223,-5.5042,-5.3308,-5.1827,-5.1692,-5.0491,-4.9817,-5.0394,-4.9971,-4.9221,-4.0512,0.0,0.0,0.0,0.0,-3.7943,-3.8003,-3.8079,-3.741,-3.7,-3.6786,-3.5791,0.0,0.0,0.0,0.0,0.0,0.0,-3.4151,-3.366,-3.4046,-3.3727,-3.2789,-3.2802,-3.2505,-3.2003,-3.2855,-3.3024,-3.2552,-3.3154,-3.4097,-3.5317,0.0,0.0,0.0,0.0,-3.5599,-3.589,-3.6568,-3.684,-3.6667,-3.6961,-3.6513,-3.5344,-3.6795,-3.6422,-3.3982,-3.5142,-3.5492,-3.478,-3.4921,0.0,0.0,0.0,0.0,0.0,0.0,0.0,0.0,0.0,0.0,0.0,0.0,0.0,0.0,0.0,0.0,0.0,0.0,0.0,-3.9084,-3.8415,-3.8223,0.0,0.0,0.0,0.0,0.0,0.0,0.0,0.0,0.0,-4.2552,-4.3395,-4.4454,0.0,0.0,-4.6701,-4.6737,-4.6754,-4.6881,-4.7177,-4.7439,0.0,-4.8635,-4.8259,-4.8111,-4.8749,-4.9763,-5.0411,-5.0262,-5.0953,-5.1518,-5.1351,-5.2035,-5.2615,-5.249,-5.2258,-5.1682,-5.1144,-5.0625,-5.0423,-5.0596,-5.0481,-4.9875,-3.8831,-3.7652,-3.7804,-3.7896,-3.784,-3.7434,-3.7505,-3.7799,-3.6837,-3.6389,-3.6284,-3.5482,-3.4668,-3.3965,-3.309,0.0,0.0,0.0,-3.3054,-3.2806,-3.282,-3.2495,-3.1876,-3.1888,-3.1599,-3.1125,-3.1648,-3.1655,-3.1138,-3.1746,-3.2563,-3.362,0.0,0.0,-3.4554,-3.4775,-3.4951,-3.5117,-3.5806,-3.6027,-3.5783,-3.5589,-3.5113,-3.4354,-3.5774,-3.5661,-3.3697,-3.4628,-3.4892,-3.427,-3.4063,-3.3866,0.0,0.0,0.0,0.0,0.0,0.0,0.0,0.0,0.0,0.0,0.0,-3.6035,-3.5274,0.0,0.0,0.0,-3.4549,-3.5819,-3.6529,-3.658,0.0,0.0,0.0,0.0,0.0,0.0,0.0,-4.023,-4.0188,-4.0536,-4.1721,-4.2202,-4.3139,-4.4972,-4.569,-4.5957,-4.5734,0.0,-4.5823,-4.6192,-4.5983,-4.6172,-4.723,-4.6756,-4.665,-4.7836,-4.7517,-4.7484,-4.8003,-4.8539,-4.8938,-4.9171,-4.97,-5.0069,-4.9708,-4.9856,-5.0254,-5.0605,-5.0683,-5.0596,-5.0279,-5.0192,-4.9692,-3.7688,-3.724,-3.7638,-3.7781,-3.7697,-3.6741,-3.6857,-3.7642,-3.5992,-3.6162,-3.7551,-3.6347,-3.5785,-3.5593,-3.3581,0.0,-3.2581,-3.1743,-3.1377,-3.1386,-3.1348,-3.1323,-3.1323,-3.1286,-3.1022,-3.0545,-3.0545,-3.0294,-2.9894,-3.0696,-3.1068,-3.1143,-3.2876,-3.355,-3.3164,-3.4526,-3.5014,-3.4467,-3.5078,-3.5096,-3.4503,-3.4009,-3.3673,-3.3545,-3.4271,-3.4329,-3.3491,-3.4127,-3.3914,-3.2624,-3.3147,-3.3007,-3.1939,0.0,0.0,0.0,0.0,0.0,0.0,0.0,0.0,0.0,0.0,0.0,0.0,0.0,0.0,0.0,-3.2501,0.0,-3.2472,-3.4372,0.0,0.0,0.0,-3.7822,-3.7822,-3.8414,-3.8799,-3.8827,0.0,0.0,-4.0862,-4.1023,-4.1598,-4.2854,-4.4316,-4.5077,-4.4563,-4.4467,-4.4637,-4.5252,-4.4852,-4.4902,-4.5959,-4.5693,-4.5488,-4.6047,-4.4636,-4.4041,-4.5062,-4.5383,-4.5335,-4.5792,-4.6157,-4.6704,-4.7028,-4.7276,-4.7776,-4.9935,-5.0345,-5.0154,-4.9413,-4.9279,-4.8817,-3.7688,-3.7147,-3.6879,-3.6752,-3.6752,-3.6488,-3.6547,-3.6616,-3.5398,-3.4856,-3.4791,-3.3659,-3.2682,-3.1897,-3.1363,-3.1129,-3.1102,-3.0916,-3.1022,-3.1361,-3.0984,-3.0796,-3.0783,-3.0369,-3.0118,-2.9993,-2.998,-2.9917,-2.9804,-2.9998,-3.0139,-3.0216,-3.1291,-3.2145,-3.2695,-3.3101,-3.3565,-3.4114,-3.4273,-3.4402,-3.4548,-3.5385,-3.4874,-3.2842,-3.4471,-3.4364,-3.2137,-3.3181,-3.3435,-3.2649,-3.2691,-3.2376,-3.1569,-3.1443,0.0,0.0,0.0,0.0,0.0,0.0,0.0,0.0,0.0,-3.4343,-3.3193,0.0,-3.4351,0.0,-3.2033,-3.2978,-3.4702,-3.5313,0.0,0.0,-3.7585,-3.7822,-3.7822,-3.795,-3.8048,-3.8064,-3.825,-3.8411,-3.859,-3.9627,-4.0248,-4.0082,-4.1745,-4.3185,-4.3555,-4.3183,-4.2895,-4.3098,-4.3014,-4.2963,-4.3335,-4.3234,-4.3213,-4.3333,-4.3287,-4.3433,-4.3742,-4.4555,-4.514,-4.5284,-4.5933,-4.6472,-4.6561,-4.6882,-4.7208,-4.7853,-4.8143,-4.8283,-4.8073,-4.822,-4.8125,-3.7688,-3.7136,-3.6644,-3.6267,-3.5994,-3.5994,-3.6006,-3.5931,-3.5044,-3.4412,-3.3834,-3.298,-3.2127,-3.1348,-3.1323,-3.1198,-3.0972,-3.0959,-3.0984,-3.1022,-3.0758,-3.0482,-3.0231,-2.993,-2.9779,-2.9779,-2.9779,-2.9779,-2.9779,-2.9779,-2.9779,-2.983,-3.0305,-3.0846,-3.1378,-3.2177,-3.2855,-3.338,-3.3808,-3.4189,-3.4502,-3.4971,-3.447,-3.3036,-3.4111,-3.3862,-3.2032,-3.2992,-3.3262,-3.259,-3.2514,-3.2298,-3.1872,-3.1171,-3.013,0.0,0.0,0.0,0.0,0.0,0.0,0.0,0.0,0.0,0.0,0.0,-3.3029,-3.24,-3.2319,-3.3228,-3.5417,-3.559,-3.59,-3.6691,-3.6768,-3.6784,-3.6784,-3.7055,-3.7279,-3.7279,-3.7573,-3.7822,-3.7822,-3.8561,-3.8914,-3.8463,-3.9506,-4.0812,-4.2119,-4.232,-4.2303,-4.2286,-4.2033,-4.1813,-4.1813,-4.1813,-4.1813,-4.1805,-4.1827,-4.1864,-4.1889,-4.2613,-4.3219,-4.3284,-4.4098,-4.4814,-4.4832,-4.5201,-4.5484,-4.5526,-4.5768,-4.617,-4.6688,-4.7059,-4.7058,-3.7651,-3.7084,-3.6606,-3.6044,-3.5495,-3.5433,-3.5395,-3.5357,-3.4806,-3.4311,-3.3759,-3.325,-3.2654,-3.2102,-3.2039,-3.17,-3.1185,-3.1185,-3.0947,-3.052,-3.052,-3.0256,-2.9792,-2.9779,-2.9779,-2.9779,-2.9779,-2.9779,-2.9779,-2.9779,-2.9779,-2.9779,-2.9779,-2.9779,-2.9856,-3.1439,-3.2285,-3.2415,-3.3345,-3.397,-3.4258,-3.3695,-3.3337,-3.3263,-3.3206,-3.285,-3.2212,-3.2731,-3.2731,-3.2109,-3.2108,-3.2109,-3.1934,-3.0622,-2.9617,0.0,-2.7794,0.0,0.0,0.0,0.0,0.0,0.0,0.0,0.0,-3.117,-3.132,-3.3048,-3.2945,-3.344,-3.51,-3.54,-3.5489,-3.5489,-3.5489,-3.5489,-3.5522,-3.6086,-3.6446,-3.6461,-3.7086,-3.7485,-3.7442,-3.7573,-3.7661,-3.7661,-3.787,-3.8731,-4.0354,-4.1181,-4.1473,-4.1698,-4.1177,-4.0572,-4.0651,-4.08,-4.0853,-4.0811,-4.0569,-4.0113,-4.0231,-4.0669,-4.0961,-4.1076,-4.2002,-4.2688,-4.2674,-4.316,-4.3464,-4.3658,-4.3936,-4.4408,-4.5339,-4.5916,-4.5897,-3.7425,-3.6568,-3.6455,-3.6044,-3.5458,-3.5019,-3.4831,-3.4793,-3.4286,-3.3746,-3.3206,-3.2629,-3.2077,-3.1524,-3.111,-3.0633,-3.0093,-3.0093,-3.0043,-2.9942,-2.9955,-2.9892,-2.9792,-2.9779,-2.9779,-2.9779,-2.9779,-2.9779,-2.9779,-2.9779,-2.9779,-2.9779,-2.9779,-2.9779,-2.983,0.0,0.0,0.0,-3.2393,-3.2891,-3.2968,-3.2841,-3.2512,-3.1954,-3.1531,0.0,-3.0363,-3.0433,-3.0241,-2.9712,-3.0101,0.0,0.0,0.0,0.0,0.0,0.0,0.0,0.0,0.0,0.0,0.0,-2.8893,-2.8937,-2.9501,-3.0418,-3.1174,-3.1629,-3.3129,-3.4038,-3.3903,-3.4861,-3.5489,-3.5489,-3.5489,-3.5489,-3.5504,-3.5619,-3.5686,-3.5733,-3.5861,-3.5941,-3.6022,-3.643,-3.6813,-3.6889,-3.7397,-3.7911,-3.8371,-3.8679,-3.8683,-3.8651,-3.8731,-3.8489,-3.8428,-3.8991,-3.9421,-3.9375,-3.9865,-4.0045,-4.0096,-4.0521,-4.088,-4.088,-4.149,-4.2142,-4.2559,-4.2807,-4.2995,-4.341,-4.3565,-4.3749,-4.4248,-4.4884,-4.5268,-3.7111,-3.6392,-3.6069,-3.5642,0.0,-3.455,-3.4161,-3.3884,-3.3608,-3.3169,-3.2629,-3.234,-3.1763,-3.0997,-3.0733,-3.0319,-2.9792,-2.9779,-2.9779,-2.9779,-2.9779,-2.9779,-2.9779,-2.9779,-2.9779,-2.9779,-2.9779,-2.9779,-2.9779,-2.9779,-2.9779,-2.9779,-2.9779,-2.9779,-2.9779,-2.9779,-3.0241,-3.1167,-3.1669,-3.2141,-3.2544,-3.2268,-3.2116,-3.2089,-3.1523,0.0,0.0,0.0,0.0,0.0,0.0,0.0,0.0,-2.9089,0.0,-2.7921,-2.7793,-2.7604,-2.7308,-2.7611,-2.7769,-2.7756,-2.7703,-2.7872,-2.8387,-2.9415,-3.0221,-3.0612,-3.1861,-3.2648,-3.2677,-3.3513,-3.4259,-3.4691,-3.4341,-3.4409,-3.5246,-3.5067,-3.4971,-3.5424,-3.5489,-3.5489,-3.5489,-3.5799,-3.6023,-3.6054,-3.6399,-3.6692,-3.6738,-3.7324,-3.7822,-3.7822,-3.7822,-3.7822,-3.7851,-3.8064,-3.8358,-3.8458,-3.9005,-3.942,-3.9489,-4.0078,-4.0521,-4.0528,-4.0967,-4.149,-4.1768,-4.2282,-4.2788,-4.305,-4.3322,-4.3531,-4.3724,-4.4175,-4.4625,-3.692,-3.6367,-3.5768,-3.5194,-3.4675,-3.4135,-3.3533,-3.293,0.0,0.0,0.0,-3.2014,-3.1436,-3.058,-3.0507,-3.0218,-2.9804,-2.9779,-2.9779,-2.9779,-2.9779,-2.9779,-2.9779,-2.9779,-2.9779,-2.9779,-2.9779,-2.9779,-2.9779,-2.9779,-2.9779,-2.9779,-2.9779,-2.9779,-2.9779,-2.9779,-3.0177,-3.0895,-3.097,-3.1328,-3.2055,-3.1558,-3.1544,-3.2092,-3.1463,-3.1097,-3.1002,-3.0988,-3.0711,-3.0065,-3.012,-2.9936,-2.9397,-2.8599,-2.7951,-2.749,-2.6599,-2.6214,-2.6452,-2.6349,-2.6314,-2.6487,-2.6914,-2.7349,-2.7714,-2.8448,-2.9082,-2.9558,-3.0221,-3.0928,-3.1557,-3.2117,-3.2814,-3.3642,-3.3066,-3.329,-3.4658,-3.4461,-3.4361,-3.5085,-3.5359,-3.5489,-3.5489,-3.5522,-3.5489,-3.5489,-3.5619,-3.5489,-3.5651,-3.6554,-3.7235,-3.7235,-3.7191,-3.7324,-3.7383,-3.7485,-3.7573,-3.7602,-3.8218,-3.869,-3.8843,-3.9358,-3.9833,-3.9859,-4.0358,-4.0774,-4.0949,-4.1664,-4.2422,-4.2637,-4.305,-4.3392,-4.3515,-4.3726,-4.4046,-3.6908,-3.6355,-3.578,-3.5182,-3.4688,-3.4135,-3.3307,-3.2353,-3.2328,-3.2277,-3.2164,-3.1235,-3.0718,-3.0595,-3.0118,-2.988,-2.9792,-2.9779,-2.9779,-2.9779,-2.9779,-2.9779,-2.9779,-2.9779,-2.9779,-2.9779,-2.9779,-2.9779,-2.9779,-2.9779,-2.9779,-2.9779,-2.9779,-2.9779,-2.9779,-2.9779,-2.9856,-2.9998,-2.9998,-3.0075,-3.0177,-3.0114,-3.0101,-3.0152,-2.9617,-2.9033,-2.8611,-2.8647,-2.8115,-2.719,-2.7538,-2.7538,-2.7024,-2.6417,-2.6236,-2.6548,-2.5328,-2.5107,-2.638,-2.5699,-2.5581,-2.6383,-2.6575,-2.6627,-2.6739,-2.7863,-2.8432,-2.8133,-2.9236,-3.0339,-3.0914,-3.1488,-3.2068,-3.2673,-3.2664,-3.2735,-3.3087,-3.3602,-3.3979,-3.4245,-3.4986,-3.5472,-3.5504,-3.5489,-3.5489,-3.5489,-3.5489,-3.5489,-3.5522,-3.5651,-3.5782,-3.5814,-3.5829,-3.5829,-3.6053,-3.6399,-3.6707,-3.6768,-3.744,-3.795,-3.795,-3.8635,-3.9129,-3.9102,-3.9774,-4.0351,-4.078,-4.0995,-4.1599,-4.2324,-4.2713,-4.2976,-4.3357,-4.3529,-4.3712,-3.6644,-3.6304,-3.5454,-3.4919,-3.4663,-3.3822,-3.298,-3.2202,-3.1901,-3.1599,-3.1311,-3.0821,-3.0444,-3.0156,-2.9905,-2.9779,-2.9779,-2.9779,-2.9779,-2.9779,-2.9779,-2.9779,-2.9779,-2.9779,-2.9779,-2.9779,-2.9779,-2.9779,-2.9779,-2.9779,-2.9779,-2.9779,-2.9779,-2.9779,-2.9779,-2.9779,-2.9779,-2.9779,-2.9779,-2.9779,-2.9779,-2.9779,-2.9779,-2.9779,-2.9528,-2.9126,-2.8537,-2.8512,-2.8047,-2.6989,-2.719,-2.7065,-2.6524,-2.5743,-2.565,-2.6358,-2.4802,-2.4602,-2.6358,-2.6094,-2.6025,-2.6452,-2.6487,-2.6487,-2.6487,-2.7067,-2.7297,-2.7079,-2.7994,-2.8763,-2.9307,-2.9872,-3.0536,-3.133,-3.1216,-3.1379,-3.2058,-3.2286,-3.2876,-3.3822,-3.4394,-3.4887,-3.5439,-3.5489,-3.5489,-3.5489,-3.5489,-3.5489,-3.5489,-3.5489,-3.5489,-3.5489,-3.5489,-3.5504,-3.5489,-3.575,-3.5975,-3.6006,-3.6631,-3.71,-3.7233,-3.806,-3.8772,-3.8951,-3.9542,-4.0112,-4.0466,-4.0709,-4.1133,-4.1495,-4.2342,-4.2751,-4.3032,-4.3268,-4.3612,-3.6417,-3.6317,-3.5177,-3.4587,-3.4274,-3.3445,-3.2679,-3.2001,-3.1587,-3.1022,-3.0482,-3.0432,-3.0193,-2.9817,-2.9779,-2.9779,-2.9779,-2.9779,-2.9779,-2.9779,-2.9779,-2.9779,-2.9779,-2.9779,-2.9779,-2.9779,-2.9779,-2.9779,-2.9779,-2.9779,-2.9779,-2.9779,-2.9779,-2.9779,-2.9779,-2.9779,-2.9779,-2.9779,-2.9654,-2.9666,-2.9779,-2.9779,-2.9729,-2.9603,-2.9591,-2.9277,-2.8624,-2.8313,-2.7754,-2.6836,-2.6572,-2.6268,-2.5828,-2.4991,-2.4874,-2.5533,-2.3962,-2.3621,-2.5298,-2.5924,-2.6133,-2.6147,-2.6361,-2.6386,-2.6172,-2.6361,-2.6487,-2.6537,-2.6933,-2.7364,-2.7916,-2.8297,-2.8933,-2.9887,-2.9704,-2.9892,-3.0905,-3.1046,-3.1626,-3.3182,-3.379,-3.4394,-3.5198,-3.5489,-3.5489,-3.5489,-3.5489,-3.5489,-3.5489,-3.5489,-3.5489,-3.5489,-3.5489,-3.5489,-3.5489,-3.5522,-3.5522,-3.5489,-3.5975,-3.6275,-3.6554,-3.7512,-3.8398,-3.858,-3.9262,-3.9808,-4.007,-4.0417,-4.075,-4.1036,-4.166,-4.2262,-4.2462,-4.2902,-4.3426,-3.6417,-3.6254,-3.5177,-3.4148,-3.3294,-3.3119,-3.2453,-3.1537,-3.1399,-3.0809,-2.9942,-2.988,-2.9854,-2.9792,-2.9779,-2.9779,-2.9779,-2.9779,-2.9779,-2.9779,-2.9779,-2.9779,-2.9779,-2.9779,-2.9779,-2.9779,-2.9779,-2.9779,-2.9779,-2.9779,-2.9779,-2.9779,-2.9779,-2.9779,-2.9779,-2.9779,-2.9779,-2.9779,-2.9277,-2.9264,-2.9754,-2.9779,-2.9541,-2.8976,-2.8976,-2.8511,-2.7557,-2.6578,-2.5828,-2.5218,-2.4418,-2.3863,-2.3772,-2.3255,-2.3198,-2.3691,-2.1984,-2.1355,-2.2433,-2.4143,-2.504,-2.5028,-2.5854,-2.6013,-2.5209,-2.5921,-2.6474,-2.6512,-2.6549,-2.6851,-2.7281,-2.7469,-2.7968,-2.8835,-2.8685,-2.8484,-2.921,-2.9978,-3.0882,-3.1861,-3.3158,-3.4361,-3.5231,-3.5489,-3.5489,-3.5489,-3.5489,-3.5489,-3.5489,-3.5489,-3.5489,-3.5489,-3.5489,-3.5489,-3.5489,-3.5489,-3.5489,-3.5504,-3.5554,-3.5686,-3.5926,-3.6337,-3.7024,-3.786,-3.8427,-3.9093,-3.9782,-4.0179,-4.0319,-4.072,-4.1076,-4.1291,-4.1771,-4.2362,-4.2903,-3.6417,-3.6304,-3.5177,-3.4085,-3.3119,-3.2704,-3.2114,-3.1386,-3.106,-3.0495,-2.9842,-2.9779,-2.9779,-2.9779,-2.9779,-2.9779,-2.9779,-2.9779,-2.9779,-2.9779,-2.9779,-2.9779,-2.9779,-2.9779,-2.9779,-2.9779,-2.9779,-2.9779,-2.9779,-2.9779,-2.9779,-2.9779,-2.9779,-2.9779,-2.9779,-2.9779,-2.9779,-2.9767,-2.9227,-2.9013,-2.9214,-2.8963,-2.8837,-2.8863,-2.8574,-2.8097,-2.7297,-2.6311,-2.5552,-2.4981,-2.4036,-2.3478,-2.3478,-2.2513,-2.2302,-2.2972,-2.2169,-2.1555,-2.166,-2.2712,-2.3546,-2.398,-2.4457,-2.4829,-2.5231,-2.5435,-2.5724,-2.6373,-2.6487,-2.6725,-2.7216,-2.7316,-2.7482,-2.7934,-2.8298,-2.8549,-2.8436,-2.9046,-3.015,-3.194,-3.2521,-3.347,-3.4996,-3.5489,-3.5489,-3.5489,-3.5489,-3.5489,-3.5489,-3.5489,-3.5489,-3.5489,-3.5489,-3.5489,-3.5489,-3.5489,-3.5489,-3.5489,-3.5489,-3.5489,-3.5542,-3.5721,-3.6254,-3.7006,-3.7457,-3.8182,-3.9186,-3.9394,-3.9603,-4.0169,-4.0797,-4.1087,-4.1686,-4.1979,-4.2402,-3.6417,-3.6241,-3.5177,-3.4085,-3.3099,-3.2629,-3.2127,-3.1574,-3.106,-3.0532,-3.003,-2.9867,-2.9779,-2.9779,-2.9779,-2.9779,-2.9779,-2.9779,-2.9779,-2.9779,-2.9779,-2.9779,-2.9779,-2.9779,-2.9779,-2.9779,-2.9779,-2.9779,-2.974,-2.9443,-2.9314,-2.9326,-2.9326,-2.9326,-2.9365,-2.9573,-2.9779,-2.9729,-2.9089,-2.8737,-2.8762,-2.8097,-2.7921,-2.8386,-2.8097,-2.7512,-2.6678,-2.5684,-2.4853,-2.4215,-2.3231,-2.2713,-2.2654,-2.1723,-2.1403,-2.1826,-2.1607,-2.1237,-2.0835,-2.1455,-2.2083,-2.2626,-2.2923,-2.3459,-2.4062,-2.4333,-2.4723,-2.5273,-2.5936,-2.6474,-2.6989,-2.709,-2.7153,-2.7293,-2.7946,-2.8147,-2.8147,-2.8386,-2.9376,-3.1491,-3.1888,-3.2735,-3.4857,-3.5489,-3.5489,-3.5489,-3.5489,-3.5489,-3.5489,-3.5489,-3.5489,-3.5489,-3.5489,-3.5489,-3.5489,-3.5489,-3.5489,-3.5489,-3.5489,-3.5489,-3.5489,-3.5566,-3.5828,-3.666,-3.6668,-3.7267,-3.8597,-3.8962,-3.8881,-3.9551,-4.0077,-4.0556,-4.1059,-4.1375,-4.1771,-3.6417,-3.6241,-3.5165,-3.4073,-3.3111,-3.3048,-3.2692,-3.2077,-3.1537,-3.1035,-3.0495,-3.0005,-2.9779,-2.9779,-2.9779,-2.9779,-2.9779,-2.9779,-2.9779,-2.9779,-2.9779,-2.9779,-2.9779,-2.9779,-2.9779,-2.9779,-2.9779,-2.974,-2.9663,-2.8727,-2.8176,-2.8164,-2.8176,-2.8176,-2.8386,-2.9248,-2.9792,-2.9691,-2.8737,-2.8398,-2.8612,-2.7369,-2.6901,-2.726,-2.7331,-2.6618,-2.5278,-2.4154,-2.3169,-2.2226,-2.1385,-2.0789,-2.0789,-2.0701,-2.0325,-1.966,-1.9486,-1.9465,-1.956,-2.0294,-2.0803,-2.0928,-2.1654,-2.1913,-2.152,-2.2615,-2.3341,-2.305,-2.4674,-2.5795,-2.6436,-2.6587,-2.6788,-2.7165,-2.6901,-2.7216,-2.7984,-2.7758,-2.8365,-3.0183,-3.1389,-3.2789,-3.5065,-3.5489,-3.5489,-3.5489,-3.5489,-3.5489,-3.5489,-3.5489,-3.5489,-3.5489,-3.5489,-3.5489,-3.5489,-3.5489,-3.5489,-3.5489,-3.5489,-3.5489,-3.5489,-3.5589,-3.5946,-3.6229,-3.626,-3.6859,-3.8149,-3.8635,-3.8497,-3.8745,-3.8962,-3.9432,-4.0177,-4.0614,-4.1087,-3.599,-3.5253,-3.45,-3.3746,-3.3111,-3.2692,-3.239,-3.2139,-3.1273,-3.0796,-3.0545,-3.0043,-2.9779,-2.9779,-2.9779,-2.9779,-2.9779,-2.9779,-2.9779,-2.9779,-2.9779,-2.9779,-2.9779,-2.9779,-2.9779,-2.9779,-2.9779,-2.9404,-2.8715,-2.8295,-2.7723,-2.7157,-2.7087,-2.74,-2.8044,-2.8518,-2.9067,-2.9601,-2.8674,-2.821,-2.8285,-2.7165,-2.631,-2.5849,-2.5838,-2.5563,-2.5016,-2.3404,-2.2366,-2.2,-2.1078,-2.0615,-2.0556,-2.0077,-1.9492,-1.8936,-1.8623,-1.8586,-1.8824,-1.8937,-1.9247,-1.9746,-2.0105,-2.0642,-2.1039,-2.1489,-2.2041,-2.3057,-2.3734,-2.4688,-2.5724,-2.626,-2.6562,-2.6751,-2.6939,-2.7128,-2.7507,-2.7731,-2.8356,-2.9777,-3.1399,-3.3125,-3.3901,-3.4866,-3.5457,-3.5489,-3.5489,-3.5489,-3.5489,-3.5489,-3.5489,-3.5489,-3.5489,-3.5489,-3.5489,-3.5489,-3.5489,-3.5489,-3.5489,-3.5489,-3.5489,-3.5145,-3.5347,-3.5622,-3.5687,-3.5907,-3.702,-3.8015,-3.793,-3.8497,-3.8635,-3.869,-3.9209,-3.9708,-4.0295,-3.5567,-3.4655,-3.4135,-3.3583,-3.3099,-3.2654,-3.2378,-3.2152,-3.1436,-3.0906,-3.0595,-3.0218,-2.9967,-2.9804,-2.9779,-2.9779,-2.9779,-2.9779,-2.9779,-2.9779,-2.9779,-2.9779,-2.9779,-2.9779,-2.9779,-2.9702,-2.9404,-2.8806,-2.8084,-2.7389,-2.6655,-2.6005,-2.6318,-2.683,-2.7574,-2.8267,-2.9079,-2.9526,-2.885,-2.831,-2.8034,-2.7205,-2.6186,-2.5147,-2.4707,-2.4337,-2.4036,-2.2702,-2.1849,-2.1517,-2.0934,-2.0546,-2.0312,-1.9687,-1.9092,-1.8627,-1.8208,-1.8125,-1.8315,-1.813,-1.8269,-1.8821,-1.8888,-1.9333,-2.0211,-2.0227,-2.0895,-2.1896,-2.2949,-2.3763,-2.4764,-2.5656,-2.6285,-2.6474,-2.6826,-2.7128,-2.7304,-2.748,-2.8209,-2.9554,-3.1154,-3.2439,-3.3313,-3.4421,-3.5023,-3.519,-3.534,-3.5489,-3.5489,-3.5489,-3.5489,-3.5489,-3.5489,-3.5489,-3.5489,-3.5489,-3.5489,-3.5489,-3.5489,-3.5489,-3.54,-3.5013,-3.4803,-3.5013,-3.5093,-3.5211,-3.583,-3.6955,-3.7754,-3.8337,-3.8414,-3.8358,-3.8646,-3.8821,-3.9581,-3.5182,-3.463,-3.4123,-3.3545,-3.3124,-3.2943,-3.2692,-3.224,-3.2102,-3.1449,-3.067,-3.057,-3.0256,-2.988,-2.9779,-2.9779,-2.9779,-2.9779,-2.9779,-2.9779,-2.9779,-2.9779,-2.9779,-2.9779,-2.9779,-2.974,-2.8727,-2.8176,-2.7884,-2.6232,-2.521,-2.5126,-2.5891,-2.6472,-2.6648,-2.853,-2.9611,-2.9641,-2.9114,-2.8537,-2.8109,-2.7469,-2.647,-2.5099,-2.4192,-2.3331,-2.2291,-2.2027,-2.1517,-2.0789,-2.0644,-2.039,-1.9932,-1.9463,-1.9053,-1.8613,-1.8188,-1.8037,-1.8027,-1.7993,-1.8008,-1.8134,-1.8042,-1.8221,-1.8488,-1.8952,-1.945,-2.0008,-2.149,-2.2944,-2.3643,-2.4879,-2.59,-2.6386,-2.6575,-2.6776,-2.704,-2.6873,-2.7408,-2.9426,-3.0646,-3.1612,-3.3,-3.4022,-3.4442,-3.4608,-3.4981,-3.5295,-3.525,-3.5325,-3.5489,-3.5444,-3.5459,-3.5489,-3.5489,-3.5489,-3.5489,-3.5489,-3.5489,-3.5489,-3.5429,-3.513,-3.4803,-3.4816,-3.4472,-3.4587,-3.5049,-3.6107,-3.7025,-3.7564,-3.7696,-3.8109,-3.8636,-3.9013,-3.9227,-3.4831,-3.4568,-3.3709,-3.3244,-3.3018,-3.2654,-3.2365,-3.2135,-3.1825,-3.126,-3.0708,-3.062,-3.0306,-2.9892,-2.9779,-2.9779,-2.9779,-2.9779,-2.9779,-2.9779,-2.9779,-2.9779,-2.9779,-2.9779,-2.9779,-2.974,-2.9456,-2.845,-2.7128,-2.6307,-2.563,-2.5041,-2.5168,-2.616,-2.7522,-2.8307,-2.8937,-2.9589,-2.885,-2.8273,-2.8034,-2.7228,-2.6198,-2.5135,-2.4671,-2.4084,-2.3047,-2.1745,-2.0934,-2.0605,-2.0605,-2.0282,-1.958,-1.9072,-1.8617,-1.8262,-1.8096,-1.8008,-1.8008,-1.8008,-1.8008,-1.8008,-1.8008,-1.8008,-1.8008,-1.8236,-1.8721,-1.9308,-2.0841,-2.2115,-2.3028,-2.4554,-2.5766,-2.6436,-2.6487,-2.6549,-2.6864,-2.7088,-2.7792,-2.8839,-3.0202,-3.1292,-3.2015,-3.295,-3.3829,-3.3889,-3.4397,-3.4726,-3.4382,-3.4981,-3.522,-3.4936,-3.5175,-3.5429,-3.534,-3.5355,-3.5429,-3.5415,-3.54,-3.5489,-3.5429,-3.5145,-3.4801,-3.4337,-3.4008,-3.4029,-3.4515,-3.522,-3.6119,-3.6832,-3.7078,-3.7838,-3.8884,-3.9042,-3.8814,-3.468,-3.46,-3.3533,-3.3124,-3.3043,-3.2679,-3.2416,-3.2227,-3.2089,-3.1599,-3.1022,-3.0909,-3.0595,-3.0143,-2.9892,-2.9792,-2.9779,-2.9779,-2.9779,-2.9779,-2.9779,-2.9779,-2.9779,-2.9779,-2.9779,-2.9702,-2.9365,-2.849,-2.7157,-2.6678,-2.6141,-2.5546,-2.5828,-2.6685,-2.8096,-2.8557,-2.9157,-2.9602,-2.89,-2.831,-2.7971,-2.7231,-2.6235,-2.5182,-2.5004,-2.448,-2.3478,-2.1973,-2.1126,-2.1049,-2.0828,-2.0194,-1.9412,-1.9023,-1.8588,-1.8135,-1.8008,-1.8008,-1.8008,-1.8008,-1.8008,-1.8008,-1.8008,-1.8008,-1.8008,-1.8008,-1.8395,-1.9295,-2.0402,-2.1634,-2.2971,-2.4333,-2.559,-2.6424,-2.6487,-2.6611,-2.6918,-2.7384,-2.8191,-2.9154,-3.021,-3.0861,-3.151,-3.2536,-3.332,-3.3335,-3.3934,-3.4279,-3.3933,-3.4442,-3.4532,-3.4726,-3.513,-3.5235,-3.513,-3.5205,-3.5355,-3.5325,-3.528,-3.5415,-3.5474,-3.4936,-3.4533,-3.3709,-3.323,-3.3186,-3.3591,-3.4414,-3.5263,-3.5805,-3.6494,-3.7215,-3.7919,-3.7563,-3.7386,-3.468,-3.453,-3.3545,-3.3124,-3.3111,-3.3011,-3.2641,-3.234,-3.2692,-3.2277,-3.1499,-3.1411,-3.1148,-3.062,-3.0168,-2.993,-2.9829,-2.9779,-2.9779,-2.9779,-2.9779,-2.9779,-2.9779,-2.9779,-2.9779,-2.9624,-2.8858,-2.8267,-2.7884,-2.7157,-2.6607,-2.6678,-2.7389,-2.8084,-2.8478,-2.9275,-2.9702,-2.9665,-2.9101,-2.8536,-2.8072,-2.7469,-2.659,-2.5241,-2.5146,-2.4814,-2.3988,-2.2776,-2.2,-2.18,-2.0873,-2.0067,-1.9434,-1.9248,-1.8721,-1.8057,-1.8027,-1.8086,-1.8066,-1.8203,-1.8193,-1.8223,-1.8223,-1.8057,-1.8125,-1.8399,-1.8775,-1.9435,-2.0456,-2.1675,-2.323,-2.4419,-2.5415,-2.6362,-2.6714,-2.7007,-2.755,-2.7802,-2.872,-2.9853,-3.0358,-3.0643,-3.1455,-3.2602,-3.2886,-3.2871,-3.3499,-3.3814,-3.3513,-3.3646,-3.4183,-3.4341,-3.4253,-3.4082,-3.3696,-3.3908,-3.4105,-3.4499,-3.4581,-3.4845,-3.4976,-3.4487,-3.3784,-3.3006,-3.2602,-3.2527,-3.2749,-3.3533,-3.4496,-3.5354,-3.5975,-3.6524,-3.6734,-3.662,-3.6411,-3.468,-3.4555,-3.3533,-3.3124,-3.3018,-3.2629,-3.2378,-3.2198,-3.2378,-3.2127,-3.1574,-3.1825,-3.1687,-3.1148,-3.0633,-3.0407,-3.0281,-2.9955,-2.9779,-2.9779,-2.9779,-2.9779,-2.9779,-2.9779,-2.9779,-2.9702,-2.9404,-2.8937,-2.8136,-2.7855,-2.7695,-2.7683,-2.8016,-2.8557,-2.9287,-2.9624,-2.9779,-2.9641,-2.88,-2.831,-2.8034,-2.7205,-2.6559,-2.6201,-2.6084,-2.5945,-2.5546,-2.4024,-2.2339,-2.1028,-2.011,-1.9551,-1.9307,-1.8799,-1.8398,-1.8203,-1.832,-1.8442,-1.849,-1.874,-1.8906,-1.8955,-1.8857,-1.8809,-1.8506,-1.9454,-1.9876,-2.0345,-2.1531,-2.2893,-2.3613,-2.4653,-2.5911,-2.7115,-2.7351,-2.7517,-2.7934,-2.8876,-2.9858,-3.0269,-3.0807,-3.1219,-3.1588,-3.2153,-3.2542,-3.2228,-3.2766,-3.3395,-3.2795,-3.2794,-3.3314,-3.2507,-3.2249,-3.2198,-3.2198,-3.2475,-3.2834,-3.3434,-3.3696,-3.3906,-3.3947,-3.3709,-3.2856,-3.1959,-3.2004,-3.2003,-3.2086,-3.2516,-3.3606,-3.4713,-3.4959,-3.5284,-3.6146,-3.638,-3.5865,-3.4881,-3.465,-3.3784,-3.3294,-3.3056,-3.2704,-3.2579,-3.2579,-3.2566,-3.2416,-3.2177,-3.2139,-3.2039,-3.1675,-3.0959,-3.062,-3.0545,-3.0043,-2.9792,-2.9779,-2.9779,-2.9779,-2.9779,-2.9779,-2.9779,-2.9779,-2.9779,-2.9443,-2.8937,-2.8819,-2.8819,-2.8806,-2.8819,-2.9197,-2.9663,-2.9779,-2.9779,-2.9628,-2.8913,-2.8411,-2.8373,-2.7607,-2.7115,-2.6977,-2.6979,-2.6962,-2.6148,-2.5049,-2.333,-2.1191,-2.0126,-1.9746,-1.9541,-1.9111,-1.873,-1.8594,-1.8779,-1.8906,-1.8955,-1.916,-1.9268,-1.9277,-1.9277,-1.9413,-1.9591,-2.0382,-2.0761,-2.1722,-2.2848,-2.364,-2.4453,-2.539,-2.6253,-2.7031,-2.7802,-2.8363,-2.8716,-2.9659,-3.0404,-3.0777,-3.1175,-3.1496,-3.1511,-3.2123,-3.2093,-3.1899,-3.2378,-3.2318,-3.1901,-3.2149,-3.2116,-3.1433,-3.1012,-3.1093,-3.1243,-3.1487,-3.1783,-3.2344,-3.2836,-3.3027,-3.3097,-3.2961,-3.2437,-3.1765,-3.16,-3.1553,-3.171,-3.1999,-3.2749,-3.3525,-3.3709,-3.4135,-3.4944,-3.5324,-3.4916,-3.5182,-3.4675,-3.4135,-3.3571,-3.3162,-3.3124,-3.3061,-3.3099,-3.3074,-3.3061,-3.2948,-3.2503,-3.2365,-3.224,-3.1386,-3.0834,-3.0796,-3.0256,-2.9905,-2.9829,-2.9779,-2.9779,-2.9779,-2.9779,-2.9779,-2.9779,-2.9779,-2.974,-2.9573,-2.9663,-2.974,-2.9611,-2.9663,-2.974,-2.9702,-2.9611,-2.9585,-2.9344,-2.8528,-2.8234,-2.8287,-2.7866,-2.748,-2.7482,-2.7708,-2.7248,-2.636,-2.5546,-2.4254,-2.0995,-2.0741,-2.0396,-2.0015,-1.9863,-1.9609,-1.9307,-1.9268,-1.9346,-1.9375,-1.9443,-1.962,-1.9732,-1.9649,-1.9839,-2.0606,-2.1133,-2.1826,-2.2832,-2.3611,-2.453,-2.5369,-2.6197,-2.6557,-2.7007,-2.8051,-2.9129,-3.0056,-3.0374,-3.0718,-3.1351,-3.1482,-3.1511,-3.1735,-3.2019,-3.2288,-3.2019,-3.2333,-3.2138,-3.159,-3.1317,-3.1157,-3.0742,-3.0452,-3.0275,-3.0412,-3.0583,-3.0904,-3.13,-3.1864,-3.2208,-3.2374,-3.2273,-3.2049,-3.1765,-3.157,-3.1496,-3.1553,-3.1918,-3.2329,-3.2529,-3.2823,-3.3107,-3.3413,-3.3524,-3.3326,-3.5169,-3.4675,-3.4123,-3.3583,-3.3174,-3.3124,-3.3124,-3.3124,-3.3124,-3.3124,-3.3086,-3.2973,-3.291,-3.283,-3.2114,-3.1863,-3.1637,-3.0834,-3.0231,-2.9804,-2.9779,-2.9779,-2.9779,-2.9779,-2.9779,-2.9779,-2.9779,-2.9779,-2.9779,-2.9779,-2.9779,-2.9779,-2.9663,-2.9779,-2.9624,-2.8858,-2.8478,-2.8223,-2.7151,-2.7097,-2.7647,-2.7438,-2.7471,-2.7887,-2.8084,-2.7545,-2.6622,-2.6029,-2.4685,-2.2857,-2.1673,-2.1022,-2.0139,-1.9678,-1.9502,-1.9512,-1.9668,-1.9805,-1.9844,-2.0116,-2.0645,-2.1142,-2.0611,-2.0581,-2.1272,-2.2281,-2.2775,-2.3478,-2.4699,-2.5754,-2.6154,-2.6386,-2.6701,-2.7217,-2.7723,-2.862,-2.995,-3.0807,-3.119,-3.1409,-3.1511,-3.169,-3.2168,-3.2228,-3.2333,-3.2273,-3.2183,-3.2123,-3.1513,-3.0754,-3.035,-3.0056,-2.924,-2.9037,-2.9311,-2.9574,-2.9995,-3.0426,-3.0965,-3.1409,-3.1588,-3.1854,-3.1735,-3.163,-3.154,-3.1525,-3.163,-3.1554,-3.1891,-3.1918,-3.2066,-3.2393,-3.2573,-3.2307,-3.2245,-3.5617,-3.5044,-3.4788,-3.4198,-3.3533,-3.3458,-3.3363,-3.3162,-3.3124,-3.3124,-3.3124,-3.3124,-3.3124,-3.3074,-3.2491,-3.219,-3.1964,-3.111,-3.0319,-2.9892,-2.9779,-2.9779,-2.9779,-2.9779,-2.9779,-2.9779,-2.9779,-2.9779,-2.9779,-2.9779,-2.9779,-2.9702,-2.9326,-2.8937,-2.8858,-2.7896,-2.74,-2.7418,-2.7076,-2.7102,-2.753,-2.7982,-2.8194,-2.8687,-2.8662,-2.8164,-2.7728,-2.7457,-2.593,-2.414,-2.3015,-2.1918,-2.0529,-2.0019,-1.993,-1.9989,-2.0293,-2.0518,-2.0625,-2.0762,-2.1271,-2.2189,-2.1286,-2.183,-2.2468,-2.3475,-2.3899,-2.4602,-2.5664,-2.6474,-2.6487,-2.6487,-2.6769,-2.7061,-2.7471,-2.8117,-2.9048,-3.0178,-3.1131,-3.1351,-3.1496,-3.1869,-3.2198,-3.2392,-3.2422,-3.2362,-3.1959,-3.184,-3.1324,-3.0587,-2.9933,-2.9342,-2.8203,-2.7764,-2.8086,-2.8518,-2.9123,-2.9616,-3.0176,-3.0556,-3.0845,-3.1191,-3.1525,-3.1496,-3.1511,-3.1809,-3.1884,-3.1735,-3.1795,-3.2376,-3.2586,-3.2273,-3.2153,-3.233,-3.2164,-3.6044,-3.5495,-3.5495,-3.4951,-3.4098,-3.3922,-3.3633,-3.3244,-3.3149,-3.3124,-3.3124,-3.3124,-3.3124,-3.3011,-3.2616,-3.234,-3.1868,-3.0947,-3.0109,-2.9626,-2.9363,-2.9339,-2.9404,-2.9611,-2.9779,-2.9779,-2.9779,-2.974,-2.9534,-2.9663,-2.9456,-2.9209,-2.8648,-2.8148,-2.7735,-2.683,-2.6213,-2.6273,-2.6446,-2.7065,-2.7613,-2.8421,-2.8905,-2.9515,-2.9302,-2.9026,-2.8786,-2.8398,-2.7326,-2.5002,-2.4361,-2.3039,-2.1641,-2.0673,-2.0674,-2.0674,-2.0947,-2.1025,-2.1064,-2.1261,-2.172,-2.2567,-2.1478,-2.1877,-2.3438,-2.3784,-2.4182,-2.5216,-2.6082,-2.6487,-2.6487,-2.6487,-2.6549,-2.6759,-2.7253,-2.7556,-2.804,-2.919,-3.0197,-3.1264,-3.1457,-3.1737,-3.2169,-3.2422,-3.2437,-3.2377,-3.1974,-3.1588,-3.1102,-3.0709,-3.0246,-2.9542,-2.8644,-2.7614,-2.7752,-2.778,-2.8349,-2.8817,-2.9375,-2.9785,-3.0187,-3.094,-3.1365,-3.1467,-3.1585,-3.1869,-3.2049,-3.1944,-3.2243,-3.2961,-3.2871,-3.2348,-3.2318,-3.2467,-3.2243,-3.6031,-3.5495,-3.5495,-3.5119,-3.4517,-3.411,-3.3822,-3.3696,-3.3244,-3.3124,-3.3124,-3.3124,-3.3124,-3.3036,-3.3048,-3.2654,-3.1697,-3.0548,-2.9555,-2.8955,-2.8591,-2.8398,-2.853,-2.904,-2.9495,-2.9779,-2.9573,-2.9118,-2.8897,-2.9197,-2.8673,-2.7585,-2.7643,-2.7562,-2.6625,-2.5714,-2.5094,-2.501,-2.4882,-2.5378,-2.6532,-2.7209,-2.8171,-2.9326,-2.9282,-2.9373,-2.9209,-2.8324,-2.7344,-2.6806,-2.4719,-2.3515,-2.257,-2.1411,-2.0938,-2.1074,-2.1229,-2.1366,-2.1366,-2.1611,-2.203,-2.2316,-2.1689,-2.1468,-2.2552,-2.318,-2.3787,-2.4539,-2.5748,-2.6524,-2.6487,-2.6575,-2.6776,-2.6984,-2.7063,-2.7263,-2.8075,-2.8772,-2.9572,-3.0768,-3.1166,-3.1519,-3.1928,-3.2318,-3.2422,-3.2572,-3.2572,-3.2153,-3.1708,-3.1431,-3.1137,-3.0361,-2.9496,-2.8447,-2.7635,-2.7536,-2.7688,-2.8095,-2.8605,-2.907,-2.9665,-3.0747,-3.1263,-3.1516,-3.1663,-3.1854,-3.1974,-3.2198,-3.2677,-3.335,-3.2931,-3.2378,-3.2751,-3.3051,-3.2736,-3.6241,-3.5943,-3.5621,-3.5182,-3.4688,-3.4135,-3.3734,-3.3445,-3.3194,-3.3124,-3.3124,-3.3111,-3.2893,-3.2704,-3.2616,-3.19,-3.0558,-2.9802,-2.8704,-2.7865,-2.7406,-2.729,-2.729,-2.7919,-2.8051,-2.8039,-2.8039,-2.8199,-2.8056,-2.7947,-2.7516,-2.6812,-2.6573,-2.6108,-2.5504,-2.45,-2.4049,-2.3844,-2.3963,-2.4425,-2.563,-2.6141,-2.7464,-2.8319,-2.849,-2.87,-2.9328,-2.7862,-2.6822,-2.6251,-2.4818,-2.3678,-2.2828,-2.2139,-2.1348,-2.1572,-2.1748,-2.1834,-2.1853,-2.2141,-2.2469,-2.2792,-2.192,-2.1955,-2.267,-2.328,-2.3585,-2.4682,-2.5792,-2.6914,-2.6939,-2.6914,-2.719,-2.7568,-2.7431,-2.7493,-2.7899,-2.8376,-2.9273,-3.0281,-3.0821,-3.1243,-3.1712,-3.2062,-3.2348,-3.2662,-3.2916,-3.2586,-3.2065,-3.1897,-3.1598,-3.0616,-2.9669,-2.8786,-2.7803,-2.7463,-2.7248,-2.7524,-2.8007,-2.8494,-2.9187,-3.027,-3.1188,-3.1797,-3.1895,-3.1885,-3.2766,-3.332,-3.3559,-3.3633,-3.338,-3.32,-3.3455,-3.3529,-3.326,-3.6194,-3.6157,-3.5617,-3.5082,-3.4618,-3.4123,-3.3658,-3.3325,-3.3131,-3.3124,-3.3124,-3.3099,-3.283,-3.2423,-3.1829,-3.0873,-2.9047,-2.8698,-2.7429,-2.6627,-2.6238,-2.6141,-2.6182,-2.6442,-2.6689,-2.6883,-2.6378,-2.6614,-2.6982,-2.6964,-2.64,-2.5641,-2.4872,-2.4617,-2.4296,-2.3671,-2.3178,-2.3387,-2.3877,-2.4447,-2.4999,-2.5922,-2.6883,-2.7643,-2.6924,-2.7424,-2.8502,-2.7093,-2.6248,-2.5698,-2.4759,-2.3646,-2.3026,-2.2431,-2.2148,-2.2187,-2.2393,-2.248,-2.251,-2.2617,-2.277,-2.2931,-2.2078,-2.2471,-2.3122,-2.3451,-2.4018,-2.555,-2.676,-2.7444,-2.7444,-2.7444,-2.772,-2.8059,-2.8134,-2.8034,-2.8094,-2.8379,-2.8737,-2.9605,-3.0358,-3.1051,-3.1591,-3.1461,-3.1695,-3.186,-3.2138,-3.1942,-3.1587,-3.1961,-3.1601,-3.0649,-2.9718,-2.8926,-2.8158,-2.754,-2.7251,-2.7056,-2.7694,-2.8285,-2.8999,-2.9797,-3.069,-3.1555,-3.1915,-3.2113,-3.3235,-3.4034,-3.3878,-3.3787,-3.384,-3.3814,-3.3679,-3.3844,-3.3829,-3.5596,-3.5558,-3.5006,-3.4776,-3.4593,-3.411,-3.3859,-3.3734,-3.3269,-3.3124,-3.3124,-3.3111,-3.3006,-3.2448,-3.1278,-3.0368,-2.8993,-2.7247,-2.6023,-2.5476,-2.5147,-2.4999,-2.5126,-2.6099,-2.6069,-2.5924,-2.5326,-2.5073,-2.5453,-2.6019,-2.5379,-2.4176,-2.4413,-2.4372,-2.3551,-2.3266,-2.3091,-2.3135,-2.3256,-2.38,-2.4713,-2.5755,-2.6295,-2.6554,-2.6431,-2.6565,-2.6976,-2.5891,-2.5345,-2.597,-2.4321,-2.3796,-2.4171,-2.3494,-2.3075,-2.2847,-2.2734,-2.2519,-2.2565,-2.2769,-2.2812,-2.277,-2.2317,-2.2306,-2.2757,-2.4079,-2.511,-2.6214,-2.7361,-2.7972,-2.8009,-2.8009,-2.831,-2.8486,-2.8549,-2.8561,-2.8599,-2.8699,-2.9037,-2.9044,-2.9857,-3.0841,-3.1584,-3.1237,-3.0989,-3.1158,-3.1251,-3.109,-3.1035,-3.1369,-3.1709,-3.0819,-2.9519,-2.8657,-2.8247,-2.7668,-2.7316,-2.6901,-2.7496,-2.8157,-2.882,-2.9531,-3.0217,-3.0986,-3.1465,-3.2288,-3.3352,-3.3864,-3.3871,-3.4046,-3.4289,-3.4008,-3.3604,-3.3873,-3.4399,-3.5495,-3.542,-3.4568,-3.4437,-3.4555,-3.3809,-3.3621,-3.3746,-3.3319,-3.3124,-3.3124,-3.3124,-3.2486,-3.1333,-3.0061,-2.861,-2.7037,-2.5701,-2.4767,-2.4351,-2.4051,-2.3897,-2.393,-2.4307,-2.4563,-2.4699,-2.439,-2.4291,-2.4428,-2.4405,-2.3978,-2.3781,-2.369,-2.3637,-2.3135,-2.3091,-2.3101,-2.3091,-2.3135,-2.3353,-2.3844,-2.4339,-2.4925,-2.5462,-2.4967,-2.5347,-2.5777,-2.4723,-2.4467,-2.501,-2.3887,-2.3353,-2.3637,-2.3377,-2.3081,-2.3062,-2.2978,-2.2881,-2.2857,-2.3013,-2.2847,-2.2656,-2.2519,-2.2445,-2.2747,-2.4319,-2.5683,-2.5942,-2.7586,-2.8375,-2.8499,-2.8537,-2.8913,-2.9089,-2.8963,-2.8737,-2.8837,-2.9239,-2.9416,-2.9315,-2.935,-3.0311,-3.1021,-3.0616,-3.0266,-3.0294,-3.0401,-3.033,-3.0342,-3.0548,-3.0885,-3.103,-2.9663,-2.8297,-2.8009,-2.762,-2.7419,-2.7228,-2.7607,-2.8239,-2.8707,-2.9331,-3.0089,-3.0679,-3.1218,-3.2194,-3.3372,-3.3755,-3.3808,-3.4301,-3.4786,-3.4382,-3.4038,-3.4547,-3.4936,-3.5495,-3.5395,-3.4361,-3.4223,-3.4555,-3.3545,-3.3407,-3.3809,-3.3319,-3.3124,-3.3124,-3.3043,-3.1938,-3.0168,-2.9209,-2.7782,-2.5325,-2.4842,-2.421,-2.3649,-2.3315,-2.3374,-2.3526,-2.3452,-2.3462,-2.3276,-2.3974,-2.4185,-2.4085,-2.3914,-2.3831,-2.3789,-2.3585,-2.3315,-2.3164,-2.3101,-2.3101,-2.3101,-2.3101,-2.3135,-2.3222,-2.3178,-2.3724,-2.3887,-2.381,-2.3887,-2.5062,-2.4231,-2.3757,-2.392,-2.3637,-2.3178,-2.3222,-2.3178,-2.3101,-2.3091,-2.3033,-2.3042,-2.3033,-2.3052,-2.2906,-2.275,-2.2633,-2.2715,-2.2919,-2.4809,-2.5959,-2.5425,-2.7396,-2.8364,-2.8772,-2.8848,-2.9035,-2.9297,-2.946,-2.9043,-2.8741,-2.9042,-2.9153,-2.8966,-2.9085,-2.972,-3.0111,-2.9834,-2.959,-2.949,-2.9502,-2.9564,-2.9736,-2.9913,-3.0092,-3.0409,-2.9455,-2.8222,-2.8009,-2.7733,-2.7507,-2.7607,-2.8009,-2.836,-2.8822,-2.9375,-3.0043,-3.06,-3.0994,-3.1924,-3.297,-3.34,-3.382,-3.4353,-3.4773,-3.4681,-3.4681,-3.5115,-3.5355,-3.5495,-3.5408,-3.4361,-3.4261,-3.4675,-3.3545,-3.3407,-3.3909,-3.3332,-3.3124,-3.3124,-3.3,-3.2081,-3.0438,-2.918,-2.7767,-2.5923,-2.4901,-2.4392,-2.4137,-2.3975,-2.3779,-2.374,-2.374,-2.375,-2.3809,-2.417,-2.457,-2.4785,-2.4512,-2.416,-2.3828,-2.3711,-2.3432,-2.3218,-2.3101,-2.3101,-2.3101,-2.3101,-2.3101,-2.3101,-2.3101,-2.3222,-2.3266,-2.3178,-2.3222,-2.3353,-2.3178,-2.3178,-2.343,-2.3222,-2.3101,-2.3101,-2.3101,-2.3101,-2.3101,-2.3101,-2.3101,-2.3101,-2.3101,-2.3081,-2.3052,-2.3013,-2.2964,-2.3085,-2.4086,-2.4777,-2.5166,-2.7071,-2.7981,-2.8476,-2.8876,-2.8917,-2.8588,-2.8502,-2.8231,-2.8139,-2.8685,-2.873,-2.8509,-2.876,-2.9282,-2.9668,-2.9457,-2.9285,-2.921,-2.9026,-2.9125,-2.9365,-2.9537,-2.949,-2.9454,-2.8847,-2.8235,-2.8122,-2.7959,-2.7908,-2.816,-2.8549,-2.875,-2.8988,-2.9555,-3.0037,-3.0215,-3.0595,-3.1573,-3.2415,-3.287,-3.3485,-3.4313,-3.4741,-3.4861,-3.4801,-3.4921,-3.522,-3.5855,-3.5458,-3.5044,-3.4981,-3.5107,-3.4048,-3.3897,-3.4198,-3.3483,-3.3124,-3.3124,-3.3013,-3.213,-3.0593,-2.9278,-2.7876,-2.6235,-2.4945,-2.4582,-2.4385,-2.4238,-2.418,-2.417,-2.417,-2.418,-2.4268,-2.46,-2.4853,-2.499,-2.5078,-2.4746,-2.4355,-2.3994,-2.3535,-2.3237,-2.314,-2.313,-2.311,-2.3101,-2.3101,-2.3101,-2.3101,-2.3101,-2.3101,-2.3101,-2.3101,-2.3135,-2.3135,-2.3101,-2.3101,-2.3101,-2.3101,-2.3101,-2.3101,-2.3101,-2.3101,-2.3101,-2.3101,-2.3101,-2.3101,-2.3101,-2.3101,-2.3091,-2.3101,-2.3178,-2.4125,-2.467,-2.5483,-2.6644,-2.7602,-2.7279,-2.7976,-2.8335,-2.7614,-2.725,-2.7221,-2.7221,-2.7678,-2.7787,-2.7337,-2.7912,-2.8548,-2.8917,-2.922,-2.9076,-2.8904,-2.8735,-2.8725,-2.9089,-2.9365,-2.9428,-2.9327,-2.8825,-2.8649,-2.8574,-2.8461,-2.8348,-2.8699,-2.9063,-2.9189,-2.9315,-2.9478,-2.9909,-2.9998,-3.0241,-3.1156,-3.1888,-3.2379,-3.3146,-3.4095,-3.4799,-3.5265,-3.5115,-3.4846,-3.513,-3.6144,-3.5793,-3.5793,-3.5746,-3.5642,-3.4613,-3.4317,-3.4512,-3.3746,-3.3194,-3.3124,-3.3056,-3.2012,-3.0408,-2.9385,-2.7841,-2.6336,-2.5285,-2.4938,-2.4795,-2.4736,-2.4639,-2.4609,-2.4609,-2.4619,-2.4717,-2.5019,-2.5293,-2.5332,-2.5605,-2.5225,-2.4707,-2.4307,-2.3935,-2.3457,-2.333,-2.333,-2.3276,-2.314,-2.3101,-2.3101,-2.3101,-2.3101,-2.3101,-2.3101,-2.3101,-2.3101,-2.3101,-2.3101,-2.3101,-2.3101,-2.3101,-2.3101,-2.3101,-2.3101,-2.3101,-2.3101,-2.3101,-2.3101,-2.3101,-2.3101,-2.3101,-2.3101,-2.3101,-2.3343,-2.3833,-2.4092,-2.4339,-2.5911,-2.6819,-2.6099,-2.6912,-2.7075,-2.6378,-2.676,-2.6689,-2.6058,-2.6099,-2.6171,-2.6119,-2.6901,-2.7775,-2.8612,-2.9071,-2.9363,-2.9176,-2.89,-2.8988,-2.934,-2.9566,-2.9666,-2.9503,-2.9176,-2.9139,-2.9139,-2.8888,-2.8725,-2.9139,-2.9453,-2.9553,-2.9691,-2.9779,-2.9818,-2.9934,-3.0279,-3.0884,-3.1609,-3.2437,-3.3191,-3.3979,-3.4452,-3.4831,-3.51,-3.4891,-3.5235,-3.638,-3.6405,-3.6355,-3.6367,-3.6216,-3.5152,-3.4668,-3.4713,-3.4098,-3.3533,-3.3106,-3.3081,-3.1821,-3.0044,-2.9489,-2.8103,-2.6408,-2.573,-2.5499,-2.5391,-2.5195,-2.5088,-2.5059,-2.5059,-2.5059,-2.5166,-2.54,-2.5596,-2.5664,-2.5645,-2.541,-2.5117,-2.4795,-2.4492,-2.3838,-2.3769,-2.3779,-2.3721,-2.3389,-2.3208,-2.3169,-2.3149,-2.3101,-2.3101,-2.3101,-2.3101,-2.3101,-2.3101,-2.3101,-2.3101,-2.3101,-2.3101,-2.3101,-2.3101,-2.3101,-2.3101,-2.3101,-2.3101,-2.3101,-2.3101,-2.3101,-2.3101,-2.3101,-2.3101,-2.3101,-2.3222,-2.3343,-2.3681,-2.4628,-2.5083,-2.5263,-2.5724,-2.5599,-2.5431,-2.5724,-2.5683,-2.502,-2.4766,-2.4882,-2.5052,-2.5922,-2.6924,-2.8028,-2.8937,-2.9521,-2.9554,-2.9189,-2.9264,-2.9566,-2.9691,-2.9767,-2.9691,-2.944,-2.944,-2.9377,-2.9164,-2.9151,-2.9553,-2.9754,-2.9779,-2.9779,-2.9779,-2.9818,-2.9856,-3.0177,-3.0671,-3.1633,-3.2623,-3.2949,-3.321,-3.3704,-3.4113,-3.4517,-3.4981,-3.5325,-3.6144,-3.5868,-3.6254,-3.6417,-3.6254,-3.519,-3.4868,-3.5019,-3.4324,-3.3596,-3.3212,-3.3124,-3.2239,-3.0822,-2.9544,-2.8412,-2.704,-2.5878,-2.5684,-2.5654,-2.5527,-2.5537,-2.5498,-2.5459,-2.5478,-2.5537,-2.5654,-2.5684,-2.5664,-2.5684,-2.5469,-2.5176,-2.5088,-2.4756,-2.4355,-2.4199,-2.4209,-2.4131,-2.3828,-2.3574,-2.3535,-2.3266,-2.311,-2.311,-2.3101,-2.3101,-2.3101,-2.3101,-2.3101,-2.3101,-2.3101,-2.3101,-2.3101,-2.3101,-2.3101,-2.3101,-2.3101,-2.3101,-2.3101,-2.3101,-2.3101,-2.3101,-2.3101,-2.3101,-2.3101,-2.3101,-2.3101,-2.3309,-2.4049,-2.4296,-2.4092,-2.4798,-2.4755,-2.4016,-2.3973,-2.393,-2.3637,-2.3714,-2.3877,-2.4049,-2.4681,-2.6337,-2.7643,-2.8897,-2.9611,-2.9779,-2.9478,-2.9453,-2.9704,-2.9741,-2.9779,-2.9779,-2.9679,-2.9679,-2.9616,-2.9415,-2.9365,-2.9641,-2.9767,-2.9779,-2.9779,-2.9779,-2.9779,-2.9818,-3.0101,-3.0495,-3.1289,-3.1928,-3.2061,-3.2319,-3.2933,-3.3602,-3.4128,-3.4756,-3.54,-3.5755,-3.5307,-3.6056,-3.6179,-3.5755,-3.5215,-3.5006,-3.4806,-3.4022,-3.3395,-3.3075,-3.2667,-3.1689,-3.0451,-2.9315,-2.8085,-2.6945,-2.6149,-2.5684,-2.5684,-2.5674,-2.5645,-2.5654,-2.5684,-2.5625,-2.5684,-2.5684,-2.5684,-2.5684,-2.5684,-2.5586,-2.54,-2.5283,-2.5185,-2.4912,-2.4785,-2.4639,-2.4531,-2.4258,-2.3906,-2.375,-2.3525,-2.3266,-2.3149,-2.3101,-2.3101,-2.3101,-2.3101,-2.3101,-2.3101,-2.3101,-2.3101,-2.3101,-2.3101,-2.3101,-2.3101,-2.3101,-2.3101,-2.3101,-2.3101,-2.3101,-2.3101,-2.3101,-2.3101,-2.3101,-2.3101,-2.3101,-2.3343,-2.393,-2.3714,-2.3464,-2.4168,-2.3877,-2.3135,-2.3135,-2.3135,-2.3178,-2.3299,-2.3343,-2.3507,-2.3844,-2.5535,-2.7267,-2.8648,-2.9779,-2.9779,-2.9767,-2.9779,-2.9779,-2.9779,-2.9779,-2.9779,-2.9779,-2.9754,-2.9754,-2.9704,-2.9691,-2.9767,-2.9779,-2.9779,-2.9779,-2.9779,-2.9779,-2.9779,-2.996,-3.024,-3.0742,-3.1142,-3.1245,-3.1703,-3.2438,-3.3072,-3.3707,-3.4442,-3.519,-3.5169,-3.4926,-3.5893,-3.5717,-3.4926,-3.5119,-3.4768,-3.3884,-3.3413,-3.3088,-3.2884,-3.1733,-3.0631,-2.9315,-2.8143,-2.7078,-2.61,-2.5771,-2.5732,-2.5684,-2.5684,-2.5684,-2.5684,-2.5684,-2.5684,-2.5684,-2.5684,-2.5684,-2.5684,-2.5684,-2.5654,-2.5635,-2.5567,-2.5499,-2.542,-2.5264,-2.5098,-2.4971,-2.4668,-2.4346,-2.4111,-2.3887,-2.3672,-2.3452,-2.3296,-2.3281,-2.3208,-2.3149,-2.311,-2.3101,-2.3101,-2.3101,-2.3101,-2.3101,-2.3101,-2.3101,-2.3101,-2.3101,-2.3101,-2.3101,-2.3101,-2.3101,-2.3101,-2.3101,-2.3101,-2.3101,-2.3101,-2.3101,-2.3387,-2.3309,-2.3266,-2.3299,-2.3299,-2.3091,-2.3091,-2.3091,-2.3091,-2.3135,-2.3135,-2.3266,-2.343,-2.4723,-2.6584,-2.8079,-2.9443,-2.9779,-2.9779,-2.9779,-2.9779,-2.9779,-2.9779,-2.9779,-2.9779,-2.9779,-2.9779,-2.9779,-2.9779,-2.9779,-2.9779,-2.9779,-2.9779,-2.9779,-2.9779,-2.9779,-2.9779,-2.9986,-3.0173,-3.029,-3.0418,-3.1016,-3.165,-3.2113,-3.2608,-3.3991,-3.4756,-3.4864,-3.4756,-3.5445,-3.5378,-3.4738,-3.443,-3.396,-3.3357,-3.3508,-3.3052,-3.1721,-3.1368,-2.9954,-2.819,-2.772,-2.6802,-2.61,-2.5684,-2.5684,-2.5684,-2.5684,-2.5684,-2.5684,-2.5684,-2.5684,-2.5684,-2.5684,-2.5684,-2.5684,-2.5684,-2.5684,-2.5674,-2.5684,-2.5684,-2.5635,-2.5596,-2.5537,-2.54,-2.5059,-2.4805,-2.456,-2.4365,-2.415,-2.3965,-2.3643,-2.3574,-2.3516,-2.3208,-2.313,-2.3101,-2.3101,-2.3101,-2.3101,-2.3101,-2.3101,-2.3101,-2.3101,-2.3101,-2.3101,-2.3101,-2.3101,-2.3101,-2.3101,-2.3101,-2.3101,-2.3101,-2.3101,-2.3101,-2.3101,-2.3101,-2.3101,-2.3101,-2.3101,-2.3101,-2.3101,-2.3101,-2.3101,-2.3101,-2.3091,-2.3222,-2.3387,-2.4467,-2.6295,-2.7614,-2.8846,-2.9443,-2.9779,-2.9779,-2.9779,-2.9779,-2.9779,-2.9779,-2.9779,-2.9779,-2.9779,-2.9779,-2.9779,-2.9779,-2.9779,-2.9779,-2.9779,-2.9779,-2.9779,-2.9779,-2.9779,-2.9554,-2.9289,-2.9555,-3.0029,-3.008,-3.0608,-3.1063,-3.1712,-3.3142,-3.4381,-3.4261,-3.4186,-3.4856,-3.4856,-3.4361,-3.3809,-3.337,-3.3126,-3.2927,-3.191,-3.0508,-2.9966,-2.8947,-2.7767,-2.7078,-2.638,-2.5781,-2.5684,-2.5684,-2.5684,-2.5684,-2.5684,-2.5684,-2.5684,-2.5684,-2.5684,-2.5684,-2.5684,-2.5684,-2.5684,-2.5684,-2.5684,-2.5684,-2.5684,-2.5664,-2.5654,-2.5664,-2.5577,-2.5459,-2.5254,-2.5029,-2.4805,-2.4648,-2.4404,-2.4043,-2.3867,-2.3769,-2.3408,-2.3149,-2.3101,-2.3101,-2.3101,-2.3101,-2.3101,-2.3101,-2.3101,-2.3101,-2.3101,-2.3101,-2.3101,-2.3101,-2.3101,-2.3101,-2.3101,-2.3101,-2.3101,-2.3101,-2.3101,-2.3101,-2.3101,-2.3101,-2.3101,-2.3101,-2.3101,-2.3101,-2.3101,-2.3101,-2.3101,-2.3178,-2.3256,-2.3887,-2.4798,-2.6036,-2.7267,-2.8255,-2.8806,-2.9404,-2.9779,-2.9779,-2.9779,-2.9779,-2.9779,-2.9779,-2.9779,-2.9779,-2.9779,-2.9779,-2.9779,-2.9779,-2.9779,-2.9779,-2.9779,-2.9779,-2.9779,-2.9779,-2.9555,-2.9315,-2.9538,-2.9878,-2.9922,-3.0123,-3.0789,-3.1545,-3.2562,-3.3646,-3.3583,-3.3269,-3.4186,-3.4324,-3.3872,-3.3357,-3.305,-3.2797,-3.1637,-3.0451,-2.9407,-2.8226,-2.7673,-2.7088,-2.639,-2.5965,-2.5684,-2.5684,-2.5684,-2.5684,-2.5684,-2.5684,-2.5684,-2.5684,-2.5684,-2.5684,-2.5684,-2.5684,-2.5684,-2.5684,-2.5684,-2.5684,-2.5684,-2.5684,-2.5684,-2.5684,-2.5684,-2.5654,-2.5596,-2.5508,-2.5273,-2.5088,-2.4932,-2.46,-2.4248,-2.3955,-2.3848,-2.3574,-2.3198,-2.3208,-2.3169,-2.3198,-2.3101,-2.3101,-2.3101,-2.3101,-2.3101,-2.3101,-2.3101,-2.3101,-2.3101,-2.3101,-2.3101,-2.3101,-2.3101,-2.3101,-2.3101,-2.3101,-2.3101,-2.3101,-2.3101,-2.3101,-2.3101,-2.3101,-2.3101,-2.3101,-2.3101,-2.3101,-2.3135,-2.3266,-2.3594,-2.451,-2.5252,-2.6438,-2.7429,-2.8096,-2.8755,-2.9314,-2.9779,-2.9779,-2.9779,-2.9779,-2.9779,-2.9779,-2.9779,-2.9779,-2.9779,-2.9779,-2.9779,-2.9779,-2.9779,-2.9779,-2.9779,-2.9779,-2.9767,-2.9719,-2.9579,-2.9876,-2.9979,-2.9835,-3.0133,-3.0754,-3.1505,-3.2331,-3.3054,-3.3458,-3.3671,-3.3533,-3.3608,-3.3809,-3.3307,-3.2556,-3.1545,-3.0361,-2.9727,-2.9223,-2.8132,-2.703,-2.6255,-2.5965,-2.5684,-2.5684,-2.5684,-2.5684,-2.5684,-2.5684,-2.5684,-2.5684,-2.5684,-2.5684,-2.5684,-2.5684,-2.5684,-2.5684,-2.5684,-2.5684,-2.5684,-2.5684,-2.5684,-2.5684,-2.5684,-2.5693,-2.5762,-2.5674,-2.5732,-2.5625,-2.5576,-2.5469,-2.5254,-2.499,-2.4717,-2.4551,-2.4297,-2.415,-2.4102,-2.3779,-2.3506,-2.313,-2.312,-2.311,-2.3101,-2.314,-2.314,-2.3101,-2.3101,-2.3101,-2.3101,-2.3101,-2.3101,-2.3101,-2.3101,-2.3101,-2.3101,-2.3101,-2.3101,-2.3101,-2.3101,-2.3101,-2.3101,-2.3222,-2.3222,-2.3178,-2.3178,-2.3178,-2.3266,-2.343,-2.4006,-2.4702,-2.5483,-2.6479,-2.7256,-2.7964,-2.8676,-2.9482,-2.9779,-2.9779,-2.9779,-2.9779,-2.9779,-2.9779,-2.9779,-2.9779,-2.9779,-2.9779,-2.9779,-2.9779,-2.9779,-2.9779,-2.9779,-2.9767,-2.9757,-2.9909,-3.0294,-3.0298,-2.9874,-3.0513,-3.1306,-3.1523,-3.2156,-3.278,-3.3257,-3.347,-3.3206,-3.3244,-3.3445,-3.3194,-3.2698,-3.1921,-3.0721,-2.9909,-2.9131,-2.7626,-2.6342,-2.5742,-2.5684,-2.5684,-2.5684,-2.5684,-2.5684,-2.5684,-2.5684,-2.5684,-2.5684,-2.5684,-2.5684,-2.5684,-2.5684,-2.5684,-2.5684,-2.5684,-2.5684,-2.5684,-2.5684,-2.5684,-2.5684,-2.5693,-2.585,-2.6016,-2.582,-2.582,-2.5977,-2.6006,-2.583,-2.5723,-2.5518,-2.5293,-2.4941,-2.4668,-2.4473,-2.4385,-2.415,-2.4023,-2.3818,-2.3789,-2.3588,-2.3461,-2.3428,-2.3296,-2.3179,-2.3101,-2.311,-2.313,-2.3101,-2.3101,-2.3101,-2.3101,-2.3101,-2.3101,-2.3101,-2.3101,-2.3101,-2.3101,-2.3101,-2.3101,-2.3671,-2.4082,-2.4082,-2.4049,-2.3671,-2.3135,-2.3474,-2.393,-2.45,-2.4702,-2.5734,-2.6871,-2.7481,-2.8557,-2.9314,-2.9779,-2.9779,-2.9779,-2.9779,-2.9779,-2.9779,-2.9779,-2.9779,-2.9779,-2.9779,-2.9779,-2.9779,-2.9779,-2.9779,-2.9779,-2.9818,-2.9908,-3.015,-3.0553,-3.0118,-2.9559,-3.0658,-3.1949,-3.2004,-3.2024,-3.2896,-3.3136,-3.3124,-3.3124,-3.3124,-3.3124,-3.3124,-3.3018,-3.2728,-3.1697,-3.0393,-2.9123,-2.7037,-2.6014,-2.5732,-2.5684,-2.5684,-2.5684,-2.5684,-2.5684,-2.5684,-2.5684,-2.5684,-2.5684,-2.5684,-2.5684,-2.5742,-2.584,-2.5732,-2.5684,-2.5684,-2.5684,-2.5684,-2.5684,-2.5684,-2.5693,-2.5801,-2.6006,-2.6191,-2.6191,-2.6162,-2.6269,-2.6367,-2.6094,-2.584,-2.5703,-2.5566,-2.5166,-2.4873,-2.4629,-2.457,-2.457,-2.4385,-2.4287,-2.4199,-2.3984,-2.3818,-2.3682,-2.3535,-2.3305,-2.3159,-2.3179,-2.3179,-2.314,-2.312,-2.313,-2.313,-2.313,-2.311,-2.311,-2.3101,-2.3101,-2.3101,-2.3101,-2.3343,-2.4092,-2.4914,-2.4957,-2.4999,-2.4382,-2.3637,-2.3973,-2.4425,-2.4553,-2.4713,-2.542,-2.6502,-2.7464,-2.8542,-2.9365,-2.9663,-2.9779,-2.9779,-2.9779,-2.9779,-2.9779,-2.9779,-2.9779,-2.9779,-2.9779,-2.9779,-2.9779,-2.9779,-2.9779,-2.9779,-2.9856,-3.0011,-3.0355,-3.074,-3.0156,-2.9461,-3.0908,-3.2166,-3.1519,-3.1798,-3.3152,-3.3124,-3.3124,-3.3124,-3.3124,-3.3124,-3.3124,-3.2805,-3.2279,-3.1595,-3.0287,-2.8913,-2.7864,-2.6754,-2.5684,-2.5684,-2.5684,-2.5684,-2.5684,-2.5684,-2.5684,-2.5684,-2.5684,-2.5684,-2.5684,-2.5684,-2.5771,-2.5937,-2.6016,-2.5742,-2.5684,-2.5684,-2.5684,-2.5684,-2.5703,-2.5762,-2.5977,-2.623,-2.6445,-2.6592,-2.6582,-2.6426,-2.6387,-2.6123,-2.6035,-2.6074,-2.5908,-2.5703,-2.5508,-2.545,-2.5343,-2.5088,-2.4756,-2.4531,-2.4394,-2.417,-2.3906,-2.3789,-2.373,-2.3545,-2.335,-2.335,-2.3623,-2.3545,-2.3266,-2.3276,-2.3257,-2.3237,-2.3188,-2.3169,-2.314,-2.313,-2.3101,-2.3135,-2.3637,-2.4253,-2.5336,-2.588,-2.6005,-2.585,-2.5641,-2.5724,-2.585,-2.5766,-2.6005,-2.6378,-2.7209,-2.7643,-2.8688,-2.9534,-2.9702,-2.9779,-2.9779,-2.9779,-2.9779,-2.9779,-2.9779,-2.9779,-2.9779,-2.9779,-2.9779,-2.9779,-2.9779,-2.9779,-2.9779,-2.9934,-3.0075,-3.0482,-3.0758,-3.0494,-3.0134,-3.1483,-3.2258,-3.1514,-3.1771,-3.3322]},{"header":{"parameterUnit":"m.s-1","parameterCategory":1,"la1":31.0,"la2":29.5877,"lo1":-88.7671,"lo2":-86.6584,"dy":0.0162,"dx":0.0185,"nx":115,"ny":88,"refTime":"2024-05-01T12:00:00:Z","depth":0,"parameterNumber":3,"parameterNumberName":"V-component_of_WINDS"},"data":[0.0,0.0,0.0,0.0,0.0,0.0,0.0,0.0,0.0,0.0,0.0,0.0,0.0,0.0,0.0,0.0,0.0,0.0,0.0,0.0,0.0,0.0,0.0,0.0,0.0,0.0,0.0,0.0,0.0,0.0,0.0,0.0,0.0,0.0,0.0,0.0,0.0,0.0,0.0,0.0,0.0,0.0,0.0,0.0,0.0,0.0,0.0,0.0,0.0,0.0,0.0,0.0,0.0,0.0,0.0,0.0,0.0,0.0,0.0,0.0,0.0,0.0,0.0,0.0,0.0,0.0,0.0,0.0,0.0,0.0,0.0,0.0,0.0,0.0,0.0,0.0,0.0,0.0,0.0,0.0,0.0,0.0,0.0,0.0,0.0,0.0,0.0,0.0,0.0,0.0,0.0,0.0,0.0,0.0,0.0,0.0,0.0,0.0,0.0,0.0,0.0,0.0,0.0,0.0,0.0,0.0,0.0,0.0,0.0,0.0,0.0,0.0,0.0,0.0,0.0,0.0,0.0,0.0,0.0,0.0,0.0,0.0,0.0,0.0,0.0,0.0,0.0,0.0,0.0,0.0,0.0,0.0,0.0,0.0,0.0,0.0,0.0,0.0,0.0,0.0,0.0,0.0,0.0,0.0,0.0,0.0,0.0,0.0,0.0,0.0,0.0,0.0,0.0,0.0,0.0,0.0,0.0,0.0,0.0,0.0,0.0,0.0,0.0,0.0,0.0,0.0,0.0,0.0,0.0,0.0,0.0,0.0,0.0,0.0,0.0,0.0,0.0,0.0,0.0,0.0,0.0,0.0,0.0,0.0,0.0,0.0,0.0,0.0,0.0,0.0,0.0,0.0,0.0,0.0,0.0,0.0,0.0,0.0,0.0,0.0,0.0,0.0,0.0,0.0,0.0,0.0,0.0,0.0,0.0,0.0,0.0,0.0,0.0,0.0,0.0,0.0,0.0,0.0,0.0,0.0,0.0,0.0,0.0,0.0,0.0,0.0,0.0,0.0,0.0,0.0,0.0,0.0,0.0,0.0,0.0,0.0,0.0,0.0,0.0,0.0,0.0,0.0,0.0,0.0,0.0,0.0,0.0,0.0,0.0,0.0,0.0,0.0,0.0,0.0,0.0,0.0,0.0,0.0,0.0,0.0,0.0,0.0,0.0,0.0,0.0,0.0,0.0,0.0,0.0,0.0,0.0,0.0,0.0,0.0,0.0,0.0,0.0,0.0,0.0,0.0,0.0,0.0,0.0,0.0,0.0,0.0,0.0,0.0,0.0,0.0,0.0,0.0,0.0,0.0,0.0,0.0,0.0,0.0,0.0,0.0,0.0,0.0,0.0,0.0,0.0,0.0,0.0,0.0,0.0,0.0,0.0,0.0,0.0,0.0,0.0,0.0,0.0,0.0,0.0,0.0,0.0,0.0,0.0,0.0,0.0,0.0,0.0,0.0,0.0,0.0,0.0,0.0,0.0,0.0,0.0,0.0,0.0,0.0,0.0,0.0,0.0,0.0,0.0,0.0,0.0,0.0,0.0,0.0,0.0,0.0,0.0,0.0,0.0,0.0,0.0,0.0,0.0,0.0,0.0,0.0,0.0,0.0,0.0,0.0,0.0,0.0,0.0,0.0,0.0,0.0,0.0,0.0,0.0,0.0,0.0,0.0,0.0,0.0,0.0,0.0,0.0,0.0,0.0,0.0,0.0,0.0,0.0,0.0,0.0,0.0,0.0,0.0,0.0,0.0,0.0,0.0,0.0,0.0,0.0,0.0,0.0,0.0,0.0,0.0,0.0,0.0,0.0,0.0,0.0,0.0,0.0,0.0,0.0,0.0,0.0,0.0,0.0,0.0,0.0,0.0,0.0,0.0,0.0,0.0,0.0,0.0,0.0,0.0,0.0,0.0,0.0,0.0,0.0,0.0,0.0,0.0,0.0,0.0,0.0,0.0,0.0,0.0,0.0,0.0,0.0,0.0,0.0,0.0,0.0,0.0,0.0,0.0,0.0,0.0,0.0,0.0,0.0,0.0,0.0,0.0,0.0,0.0,0.0,0.0,0.0,0.0,0.0,0.0,0.0,0.0,0.0,0.0,0.0,0.0,0.0,0.0,0.0,0.0,0.0,0.0,0.0,0.0,0.0,0.0,0.0,0.0,0.0,0.0,0.0,0.0,0.0,0.0,0.0,0.0,0.0,0.0,0.0,0.0,0.0,0.0,0.0,0.0,0.0,0.0,0.0,0.0,0.0,0.0,0.0,0.0,0.0,0.0,0.0,0.0,0.0,0.0,0.0,0.0,0.0,0.0,0.0,0.0,0.0,0.0,0.0,0.0,0.0,0.0,0.0,0.0,0.0,0.0,0.0,0.0,0.0,0.0,0.0,0.0,0.0,0.0,0.0,0.0,0.0,0.0,0.0,0.0,0.0,0.0,0.0,0.0,0.0,0.0,0.0,0.0,0.0,0.0,0.0,0.0,0.0,0.0,0.0,0.0,0.0,0.0,0.0,0.0,0.0,0.0,0.0,0.0,0.0,0.0,0.0,0.0,0.0,0.0,0.0,0.0,0.0,0.0,0.0,0.0,0.0,0.0,0.0,0.0,0.0,0.0,0.0,0.0,0.0,0.0,0.0,0.0,0.0,0.0,0.0,0.0,0.0,0.0,0.0,0.0,0.0,0.0,0.0,0.0,0.0,0.0,0.0,0.0,0.0,0.0,0.0,0.0,0.0,0.0,0.0,0.0,0.0,0.0,0.0,0.0,0.0,0.0,0.0,0.0,0.0,0.0,0.0,0.0,0.0,0.0,0.0,0.0,0.0,0.0,0.0,0.0,0.0,0.0,0.0,0.0,0.0,0.0,0.0,0.0,0.0,0.0,0.0,0.0,0.0,0.0,0.0,0.0,0.0,0.0,0.0,0.0,0.0,0.0,0.0,0.0,0.0,0.0,0.0,0.0,0.0,0.0,0.0,0.0,0.0,0.0,0.0,0.0,0.0,0.0,0.0,0.0,0.0,0.0,0.0,0.0,0.0,0.0,0.0,0.0,0.0,0.0,0.0,0.0,0.0,0.0,0.0,0.0,0.0,0.0,0.0,0.0,0.0,0.0,0.0,0.0,0.0,0.0,0.0,0.0,0.0,0.0,0.0,0.0,0.0,0.0,0.0,0.0,0.0,0.0,0.0,0.0,0.0,0.0,0.0,0.0,0.0,0.0,0.0,0.0,0.0,0.0,0.0,0.0,0.0,0.0,0.0,0.0,0.0,0.0,0.0,0.0,0.0,0.0,0.0,0.0,0.0,0.0,0.0,0.0,0.0,0.0,0.0,0.0,0.0,0.0,0.0,0.0,0.0,0.0,0.0,0.0,0.0,0.0,0.0,0.0,0.0,0.0,0.0,0.0,0.0,0.0,0.0,0.0,0.0,0.0,0.0,0.0,0.0,0.0,0.0,0.0,0.0,0.0,0.0,0.0,0.0,0.0,0.0,0.0,0.0,0.0,0.0,0.0,0.0,0.0,0.0,0.0,0.0,0.0,0.0,0.0,0.0,0.0,0.0,0.0,0.0,0.0,0.0,0.0,0.0,0.0,0.0,0.0,0.0,0.0,0.0,0.0,0.0,0.0,0.0,0.0,0.0,0.0,0.0,0.0,0.0,0.0,0.0,0.0,0.0,0.0,0.0,0.0,0.0,0.0,0.0,0.0,0.0,0.0,0.0,0.0,0.0,0.0,0.0,0.0,0.0,0.0,0.0,0.0,0.0,0.0,0.0,0.0,0.0,0.0,0.0,0.0,0.0,0.0,0.0,0.0,0.0,0.0,0.0,0.0,0.0,0.0,0.0,0.0,0.0,0.0,0.0,0.0,0.0,0.0,0.0,0.0,0.0,0.0,0.0,0.0,0.0,0.0,0.0,0.0,0.0,0.0,0.0,0.0,0.0,0.0,0.0,0.0,0.0,0.0,0.0,0.0,0.0,0.0,0.0,0.0,0.0,0.0,0.0,0.0,0.0,0.0,0.0,0.0,0.0,0.0,0.0,0.0,0.0,0.0,0.0,0.0,0.0,0.0,0.0,0.0,0.0,0.0,0.0,0.0,0.0,0.0,0.0,0.0,0.0,0.0,0.0,0.0,0.0,0.0,0.0,0.0,0.0,0.0,0.0,0.0,0.0,0.0,0.0,0.0,0.0,0.0,0.0,0.0,0.0,0.0,0.0,0.0,0.0,0.0,0.0,0.0,0.0,0.0,0.0,0.0,0.0,0.0,0.0,0.0,0.0,0.0,0.0,0.0,0.0,0.0,0.0,0.0,0.0,0.0,0.0,0.0,0.0,0.0,0.0,0.0,0.0,0.0,0.0,0.0,0.0,0.0,0.0,0.0,0.0,0.0,0.0,0.0,0.0,0.0,0.0,0.0,0.0,0.0,0.0,0.0,0.0,0.0,0.0,0.0,0.0,0.0,0.0,0.0,0.0,0.0,0.0,0.0,0.0,0.0,0.0,0.0,0.0,0.0,0.0,0.0,0.0,0.0,0.0,0.0,0.0,0.0,0.0,0.0,0.0,0.0,0.0,0.0,0.0,0.0,0.0,0.0,0.0,0.0,0.0,0.0,0.0,0.0,0.0,0.0,0.0,0.0,0.0,0.0,0.0,0.0,0.0,0.0,0.0,0.0,0.0,0.0,0.0,0.0,0.0,0.0,0.0,0.0,0.0,0.0,0.0,0.0,0.0,0.0,0.0,0.0,0.0,0.0,0.0,0.0,0.0,0.0,0.0,0.0,0.0,0.8014,0.4182,0.4401,0.3168,0.0,0.0,0.0,0.0,0.0,0.0,0.0,0.0,0.0,0.0,0.0,0.0,0.0,0.0,0.0,0.0,0.0,0.0,0.0,0.0,0.0,0.0,0.0,0.0,0.0,0.0,0.0,0.0,0.0,0.0,0.0,0.0,0.0,0.0,0.0,0.0,0.0,0.0,0.0,0.0,0.0,0.0,0.0,0.0,0.0,0.0,0.0,0.0,0.0,0.0,0.0,0.0,0.0,0.0,0.0,0.0,0.0,0.0,0.0,0.0,0.0,0.0,0.0,0.0,0.0,0.0,0.0,0.0,0.0,0.0,0.0,0.0,0.0,0.0,0.0,0.0,0.0,0.0,0.0,0.0,0.0,0.0,0.0,0.0,0.0,0.0,0.0,0.0,0.0,0.0,0.0,0.0,0.0,0.0,0.0,0.0,0.0,0.0,0.0,0.0,0.0,0.0,0.0,0.0,0.0,0.0,0.0,0.0,0.0,0.0,0.0,0.0,0.0,0.4423,0.3112,0.0,0.0,0.0,0.0,0.0,0.0,0.0,0.0,0.0,0.0,0.0,0.0,0.0,0.0,0.0,0.0,0.0,0.0,0.0,0.0,0.0,0.0,0.0,0.0,0.0,0.0,0.0,0.0,0.0,0.0,0.0,0.0,0.0,0.0,0.0,0.0,0.0,0.0,0.0,0.0,0.0,0.0,0.0,0.0,0.0,0.0,0.0,0.0,0.0,0.0,0.0,0.0,0.0,0.0,0.0,0.0,0.0,0.0,0.0,0.0,0.0,0.0,0.0,0.0,0.0,0.0,0.0,0.0,0.0,0.0,0.0,0.0,0.0,0.0,0.0,0.0,0.0,0.0,0.0,0.0,0.0,0.0,0.0,0.0,0.0,0.0,0.0,0.0,0.0,0.0,0.0,0.0,0.0,0.0,0.0,0.0,0.0,0.0,0.0,0.0,0.0,0.0,0.0,0.0,0.0,0.0,0.0,0.0,0.0,0.0,0.0,0.835,0.4744,0.4239,0.0,0.0,0.0,0.0,0.0,0.0,0.0,0.0,0.0,0.0,0.0,0.0,0.0,0.0,0.0,0.0,0.0,0.0,0.0,0.0,0.0,0.0,0.0,0.0,0.0,0.0,0.0,0.0,0.0,0.0,0.0,0.0,0.0,0.0,0.0,0.0,0.0,0.0,0.0,0.0,0.0,0.0,0.0,0.0,0.0,0.0,0.0,0.0,0.0,0.0,0.0,0.0,0.0,0.0,0.0,0.0,0.0,0.0,0.0,0.0,0.0,0.0,0.0,0.0,0.0,0.0,0.0,0.0,0.0,0.0,0.0,0.0,0.0,0.0,0.0,0.0,0.0,0.0,0.0,0.0,0.0,0.0,0.0,0.0,0.0,0.0,0.0,0.0,0.0,0.0,0.0,0.0,0.0,0.0,0.0,0.0,0.0,0.0,0.0,0.0,0.0,0.0,0.0,0.0,0.0,0.0,0.0,0.0,0.0,0.0,0.0,0.0,0.9057,0.4403,0.259,0.1106,0.0,0.0,0.0,0.0,0.0,0.0,0.0,0.0,0.0,0.0,0.0,0.0,0.0,0.0,0.0,0.0,0.0,0.0,0.0,0.0,0.0,0.0,0.0,0.0,0.0,0.0,0.0,0.0,0.0,0.0,0.0,0.0,0.0,0.0,0.0,0.0,0.0,0.0,0.0,0.0,0.0,0.0,0.0,0.0,0.0,0.0,0.0,0.0,0.0,0.0,0.0,0.0,0.0,0.0,0.0,0.0,0.0,0.0,0.0,0.0,0.0,0.0,0.0,0.0,0.0,0.0,0.0,0.0,0.0,0.0,0.0,0.0,0.0,0.0,0.0,0.0,0.0,0.0,0.0,0.0,0.0,0.0,0.0,0.0,0.0,0.0,0.0,0.0,0.0,0.0,0.0,0.0,0.0,0.0,0.0,0.0,0.0,0.0,0.0,0.0,0.0,0.0,0.0,0.0,0.0,0.0,0.0,0.0,0.0,0.0,1.2449,0.9694,0.4426,0.1461,0.0,0.0,0.0,0.0,0.0,0.0,0.0,0.0,0.0,0.0,0.0,0.0,0.0,0.0,0.0,0.0,0.0,0.0,0.0,0.0,0.0,0.0,0.0,0.0,0.0,0.0,0.0,0.0,0.0,0.0,0.0,0.0,0.0,0.0,0.0,0.0,0.0,0.0,0.0,0.0,0.0,0.0,0.0,0.0,0.0,0.0,0.0,0.0,0.0,0.0,0.0,0.0,0.0,0.0,0.0,0.0,0.0,0.0,0.0,0.0,0.0,0.0,0.0,0.0,0.0,0.0,0.0,0.0,0.0,0.0,0.0,0.0,0.0,0.0,0.0,0.0,0.0,0.0,0.0,0.0,0.0,0.0,0.0,0.0,0.0,0.0,0.0,0.0,0.0,0.0,0.0,0.0,0.0,0.0,0.0,0.0,0.0,0.0,0.0,0.0,0.0,0.0,0.0,0.0,0.0,0.0,0.0,0.0,0.0,0.0,1.3316,1.2739,1.0039,0.4767,0.1653,0.0,0.0,0.0,0.0,0.0,0.0,0.0,0.0,0.0,0.0,0.0,0.0,0.0,0.0,0.0,0.0,0.0,0.0,0.0,0.0,0.0,0.0,0.0,0.0,0.0,0.0,0.0,0.0,0.0,0.0,0.0,0.0,0.0,0.0,0.0,0.0,0.0,0.0,0.0,0.0,0.0,0.0,0.0,0.0,0.0,0.0,0.0,0.0,0.0,0.0,0.0,0.0,0.0,0.0,0.0,0.0,0.0,0.0,0.0,0.0,0.0,0.0,0.0,0.0,0.0,0.0,0.0,0.0,0.0,0.0,0.0,0.0,0.0,0.0,0.0,0.0,0.0,0.0,0.0,0.0,0.0,0.0,0.0,0.0,0.0,0.0,0.0,0.0,0.0,0.0,0.0,0.0,0.0,0.0,0.0,0.0,0.0,0.0,0.0,0.0,0.0,0.0,0.0,0.0,0.0,0.0,0.0,0.0,0.0,0.0,1.2395,0.8952,0.5827,0.3174,0.1091,-0.037,0.0,0.0,0.0,0.0,0.0,0.0,0.0,0.0,0.0,0.0,0.0,0.0,0.0,0.0,0.0,0.0,0.0,0.0,0.0,0.0,0.0,0.0,0.0,0.0,0.0,0.0,0.0,0.0,0.0,0.0,0.0,0.0,0.0,0.0,0.0,0.0,0.0,0.0,0.0,0.0,0.0,0.0,0.0,0.0,0.0,0.0,0.0,0.0,0.0,0.0,0.0,0.0,0.0,0.0,0.0,0.0,0.0,0.0,0.0,0.0,0.0,0.0,0.0,0.0,0.0,0.0,0.0,0.0,0.0,0.0,0.0,0.0,0.0,0.0,0.0,0.0,0.0,0.0,0.0,0.0,0.0,0.0,0.0,0.0,0.0,0.0,0.0,0.0,0.0,0.0,0.0,0.0,0.0,0.0,0.0,0.0,0.0,0.0,0.0,0.0,0.0,0.0,0.0,0.0,0.0,0.0,0.0,0.0,0.0,1.1485,0.0,0.3715,0.2364,0.0382,-0.1001,0.0,0.0,0.0,0.0,0.0,0.0,0.0,0.0,0.0,0.0,0.0,0.0,0.0,0.0,0.0,0.0,0.0,0.0,0.0,0.0,0.0,0.0,0.0,0.0,0.0,0.0,0.0,0.0,0.0,0.0,0.0,0.0,0.0,0.0,0.0,0.0,0.0,0.0,0.0,0.0,0.0,0.0,0.0,0.0,0.0,0.0,0.0,0.0,0.0,0.0,0.0,0.0,0.0,0.0,0.0,0.0,0.0,0.0,0.0,0.0,0.0,0.0,0.0,0.0,0.0,0.0,0.0,0.0,0.0,0.0,0.0,0.0,0.0,0.0,0.0,0.0,0.0,0.0,0.0,0.0,0.0,0.0,0.0,0.0,0.0,0.0,0.0,0.0,0.0,0.0,0.0,0.0,0.0,0.0,0.0,0.0,0.0,0.0,0.0,0.0,0.0,0.0,0.0,0.0,0.0,0.0,0.0,0.0,1.4053,1.0619,0.6963,0.4239,0.2638,-0.0277,-0.1886,0.0,0.0,0.0,0.0,0.0,0.0,0.0,0.0,0.0,0.0,0.0,0.0,0.0,0.0,0.0,0.0,0.0,0.0,0.0,0.0,0.0,0.0,0.0,0.0,0.0,0.0,0.0,0.0,0.0,0.0,0.0,0.0,0.0,0.0,0.0,0.0,0.0,0.0,0.0,0.0,0.0,0.0,0.0,0.0,0.0,0.0,0.0,0.0,0.0,0.0,0.0,0.0,0.0,0.0,0.0,0.0,0.0,0.0,0.0,0.0,0.0,0.0,0.0,0.0,0.0,0.0,0.0,0.0,0.0,0.0,0.0,0.0,0.0,0.0,0.0,0.0,0.0,0.0,0.0,0.0,0.0,0.0,0.0,0.0,0.0,0.0,0.0,0.0,0.0,0.0,0.0,0.0,0.0,0.0,0.0,0.0,0.0,0.0,0.0,0.0,0.0,0.0,0.0,0.0,0.0,0.0,0.0,0.0,0.0,0.8796,0.6114,0.3453,0.0932,-0.0109,-0.1367,0.0,0.0,0.0,0.0,0.0,0.0,0.0,0.0,0.0,0.0,0.0,0.0,0.0,0.0,0.0,0.0,0.0,0.0,0.0,0.0,0.0,0.0,0.0,0.0,0.0,0.0,0.0,0.0,0.0,0.0,0.0,0.0,0.0,0.0,0.0,0.0,0.0,0.0,0.0,0.0,0.0,0.0,0.0,0.0,0.0,0.0,0.0,0.0,0.0,0.0,0.0,0.0,0.0,0.0,0.0,0.0,0.0,0.0,0.0,0.0,0.0,0.0,0.0,0.0,0.0,0.0,0.0,0.0,0.0,0.0,0.0,0.0,0.0,0.0,0.0,0.0,0.0,0.0,0.0,0.0,0.0,0.0,0.0,0.0,0.0,0.0,0.0,0.0,0.0,0.0,0.0,0.0,0.0,0.0,0.0,0.0,0.0,0.0,0.0,0.0,0.0,0.0,0.0,0.0,0.0,0.0,0.0,0.0,0.0,0.818,0.5808,0.3125,0.0059,-0.094,-0.1915,-0.2852,0.0,0.0,0.0,0.0,0.0,0.0,0.0,0.0,0.0,0.0,0.0,0.0,0.0,0.0,0.0,0.0,0.0,0.0,0.0,0.0,0.0,0.0,0.0,0.0,0.0,0.0,0.0,0.0,0.0,0.0,0.0,0.0,0.0,0.0,0.0,0.0,0.0,0.0,0.0,0.0,0.0,0.0,0.0,0.0,0.0,0.0,0.0,0.0,0.0,0.0,0.0,0.0,0.0,0.0,0.0,0.0,0.0,0.0,0.0,0.0,0.0,0.0,0.0,0.0,0.0,0.0,0.0,0.0,0.0,0.0,0.0,0.0,0.0,0.0,0.0,0.0,0.0,0.0,0.0,0.0,0.0,0.0,0.0,0.0,0.0,0.0,0.0,0.0,0.0,0.0,0.0,0.0,0.0,0.0,0.0,0.0,0.0,0.0,0.0,0.0,0.0,0.0,0.0,0.0,0.0,0.0,0.0,0.0,0.8367,0.5938,0.3224,0.0059,-0.2395,-0.3146,0.0,0.0,0.0,0.0,0.0,0.0,0.0,0.0,0.0,0.0,0.0,0.0,0.0,0.0,0.0,0.0,0.0,0.0,0.0,0.0,0.0,0.0,0.0,0.0,0.0,0.0,0.0,0.0,0.0,0.0,0.0,0.0,0.0,0.0,0.0,0.0,0.0,0.0,0.0,0.0,0.0,0.0,0.0,0.0,0.0,0.0,0.0,0.0,0.0,0.0,0.0,0.0,0.0,0.0,0.0,0.0,0.0,0.0,0.0,0.0,0.0,0.0,0.0,0.0,0.0,0.0,0.0,0.0,0.0,0.0,0.0,0.0,0.0,0.0,0.0,0.0,0.0,0.0,0.0,0.0,0.0,0.0,0.0,0.0,0.0,0.0,0.0,0.0,0.0,0.0,0.0,0.0,0.0,0.0,0.0,0.0,0.0,0.0,0.0,0.0,0.0,0.0,0.0,0.0,0.0,0.0,0.0,0.0,0.0,0.7039,0.545,0.3214,0.0124,-0.0647,-0.1294,0.0,0.0,0.0,0.0,0.0,0.0,0.0,0.0,0.0,0.0,0.0,0.0,0.0,0.0,0.0,0.0,0.0,0.0,0.0,0.0,0.0,0.0,0.0,0.0,0.0,0.0,0.0,0.0,0.0,0.0,0.0,0.0,0.0,0.0,0.0,0.0,0.0,0.0,0.0,0.0,0.0,0.0,0.0,0.0,0.0,0.0,0.0,0.0,0.0,0.0,0.0,0.0,0.0,0.0,0.0,0.0,0.0,0.0,0.0,0.0,0.0,0.0,0.0,0.0,0.0,0.0,0.0,0.0,0.0,0.0,0.0,0.0,0.0,0.0,0.0,0.0,0.0,0.0,0.0,0.0,0.0,0.0,0.0,0.0,0.0,0.0,0.0,0.0,0.0,0.0,0.0,0.0,0.0,0.0,0.0,0.0,0.0,0.0,0.0,0.0,0.0,0.0,0.0,0.0,0.0,0.0,0.0,0.0,1.1025,0.7503,0.562,0.3478,0.099,-0.0237,-0.0915,0.0,0.0,0.0,0.0,0.0,0.0,0.0,0.0,0.0,0.0,0.0,0.0,0.0,0.0,0.0,0.0,0.0,0.0,0.0,0.0,0.0,0.0,0.0,0.0,0.0,0.0,0.0,0.0,0.0,0.0,0.0,0.0,0.0,0.0,0.0,0.0,0.0,0.0,0.0,0.0,0.0,0.0,0.0,0.0,0.0,0.0,0.0,0.0,0.0,0.0,0.0,0.0,0.0,0.0,0.0,0.0,0.0,0.0,0.0,0.0,0.0,0.0,0.0,0.0,0.0,0.0,0.0,0.0,0.0,0.0,0.0,0.0,0.0,0.0,0.0,0.0,0.0,0.0,0.0,0.0,0.0,0.0,0.0,0.0,0.0,0.0,0.0,0.0,0.0,0.0,0.0,0.0,0.0,0.0,0.0,0.0,0.0,0.0,0.0,0.0,0.0,0.0,0.0,0.0,0.0,0.0,0.0,0.0,1.1724,0.9171,0.6244,0.389,0.2219,-0.0413,-0.1205,0.0,0.0,0.0,0.0,0.0,0.0,0.0,0.0,0.0,0.0,0.0,0.0,0.0,0.0,0.0,0.0,0.0,0.0,0.0,0.0,0.0,0.0,0.0,0.0,0.0,0.0,0.0,0.0,0.0,0.0,0.0,0.0,0.0,0.0,0.0,0.0,0.0,0.0,0.0,0.0,0.0,0.0,0.0,0.0,0.0,0.0,0.0,0.0,0.0,0.0,0.0,0.0,0.0,0.0,0.0,0.0,0.0,0.0,0.0,0.0,0.0,0.0,0.0,0.0,0.0,0.0,0.0,0.0,0.0,0.0,0.0,0.0,0.0,0.0,0.0,0.0,0.0,0.0,0.0,0.0,0.0,0.0,0.0,0.0,0.0,0.0,0.0,0.0,0.0,0.0,0.0,0.0,0.0,0.0,0.0,0.0,0.0,0.0,0.0,0.0,0.0,0.0,0.0,0.0,0.0,0.0,0.0,0.0,1.2008,1.0567,0.671,0.3903,0.2243,0.0524,-0.0284,0.0,0.0,0.0,0.0,0.0,0.0,0.0,0.0,0.0,0.0,0.0,0.0,0.0,0.0,0.0,0.0,0.0,0.0,0.0,0.0,0.0,0.0,0.0,0.0,0.0,0.0,0.0,0.0,0.0,0.0,0.0,0.0,0.0,0.0,0.0,0.0,0.0,0.0,0.0,0.0,0.0,0.0,0.0,0.0,0.0,0.0,0.0,0.0,0.4742,0.0,0.0,0.0,0.0,0.0,0.0,0.0,0.0,0.0,0.0,0.0,0.0,0.0,0.0,0.0,0.0,0.0,0.0,0.0,0.0,0.0,0.0,0.0,0.0,0.0,0.0,0.0,0.0,0.0,0.0,0.0,0.0,0.0,0.0,0.0,0.0,0.0,0.0,0.0,0.0,0.0,0.0,0.0,0.0,0.0,0.0,0.0,0.0,0.0,0.0,0.0,0.0,0.0,0.0,0.0,0.0,0.0,0.0,0.0,1.218,1.0982,0.7493,0.4908,0.3328,0.1822,0.095,0.0,0.0,0.0,0.0,0.0,0.0,0.0,0.0,0.0,0.0,0.0,0.0,0.0,0.0,0.0,0.0,0.0,0.0,0.0,0.0,0.0,0.0,0.0,0.0,0.0,0.0,0.0,0.0,0.0,0.0,0.0,0.0,0.0,0.0,0.0,0.0,0.0,0.0,0.0,0.0,0.0,0.0,0.0,0.0,0.0,0.0,0.0,0.0,0.0,0.0,0.0,0.0,0.0,0.0,0.0,0.0,0.0,0.0,0.0,0.0,0.0,0.0,0.0,0.0,0.0,0.0,0.0,0.0,0.0,0.0,0.0,0.0,0.0,0.0,0.0,0.0,0.0,0.0,0.0,0.0,0.0,0.0,0.0,0.0,0.0,0.0,0.0,0.0,0.0,0.0,0.0,0.0,0.0,0.0,0.0,0.0,0.0,0.0,0.0,0.0,0.0,0.0,0.0,0.0,0.0,0.0,0.0,1.4453,1.251,1.1326,0.8555,0.6212,0.4512,0.3007,0.2193,0.2121,0.0,0.0,0.0,0.0,0.0,0.0,0.0,0.0,0.0,0.0,0.0,0.0,0.0,0.0,0.0,0.0,0.0,0.0,0.0,0.0,0.0,0.0,0.0,0.0,0.0,0.0,0.0,0.0,0.0,0.0,0.0,0.0,0.0,0.0,0.0,0.0,0.0,0.0,2.2325,1.8859,0.0,0.0,0.0,0.0,0.0,0.0,0.0,0.0,0.4819,0.0,0.0,0.0,0.0,0.0,0.0,0.0,0.0,0.0,0.0,0.0,0.0,0.0,0.0,0.0,0.0,0.0,0.0,0.0,0.0,0.0,0.0,0.0,0.0,0.0,0.0,0.0,0.0,0.0,0.0,0.0,0.0,0.0,0.0,0.0,0.0,0.0,0.0,0.0,0.0,0.0,0.0,0.0,0.0,0.0,0.0,0.0,0.0,0.0,0.0,0.0,0.0,0.0,0.0,0.0,0.0,2.0766,1.645,1.3743,1.2654,0.9977,0.7139,0.4377,0.2901,0.2587,0.3436,0.0,0.0,0.0,0.0,0.0,0.0,0.0,0.0,0.0,0.0,0.0,0.0,0.0,0.0,0.0,0.0,0.0,0.0,0.0,0.0,0.0,0.0,0.0,0.0,0.0,0.0,0.0,0.0,0.0,0.0,0.0,0.0,0.0,0.0,0.0,0.0,0.0,0.0,0.0,1.9674,1.6527,0.0,0.0,0.0,0.0,0.0,0.0,0.0,0.0,0.3805,0.0,0.0,0.0,0.0,0.0,0.0,0.0,0.0,0.0,0.0,0.0,0.0,0.0,0.0,0.0,0.0,0.0,0.0,0.0,0.0,0.0,0.0,0.0,0.0,0.0,0.0,0.0,0.0,0.0,0.0,0.0,0.0,0.0,0.0,0.0,0.0,0.0,0.0,0.0,0.0,0.0,0.0,0.0,0.0,0.0,0.0,0.0,0.0,0.0,0.0,0.0,0.0,0.0,0.0,0.0,2.0614,1.7272,1.4931,1.3732,1.1107,0.8615,0.6366,0.4987,0.4512,0.0,0.0,0.0,0.0,0.0,0.0,0.0,0.0,0.0,0.0,0.0,0.0,0.0,0.0,0.0,0.0,0.0,0.0,0.0,0.0,0.0,0.0,0.0,0.0,0.0,0.0,0.0,0.0,0.0,0.0,0.0,0.0,0.0,0.0,0.0,0.0,0.0,0.0,0.0,0.0,1.9042,1.6462,1.5503,0.0,0.0,0.0,0.0,0.0,0.0,0.4704,0.3785,0.0,0.0,0.0,0.0,0.0,0.0,0.0,0.0,0.0,0.0,0.0,0.0,0.0,0.0,0.0,0.0,0.0,0.0,0.0,0.0,0.0,0.0,0.0,0.0,0.0,0.0,0.0,0.0,0.0,0.0,0.0,0.0,0.0,0.0,0.0,0.0,0.0,0.0,0.0,0.0,0.0,0.0,0.0,0.0,0.0,0.0,0.0,0.0,0.0,0.0,0.0,0.0,0.0,0.0,0.0,1.9892,1.7824,1.5993,1.4465,1.2372,1.0246,0.8222,0.7197,0.6487,0.0,0.0,0.0,0.0,0.0,0.0,0.0,0.0,0.0,0.0,0.0,0.0,0.0,0.0,0.0,0.0,0.0,0.0,0.0,0.0,0.0,0.0,0.0,0.0,0.0,0.0,0.0,0.0,0.0,0.0,0.0,0.0,0.0,0.0,0.0,0.0,0.0,0.0,0.0,0.0,0.0,1.6911,1.5972,1.2894,0.0,0.0,0.0,0.0,0.5474,0.4966,0.0,0.0,0.0,0.0,0.0,0.0,0.0,0.0,0.0,0.0,0.0,0.0,0.0,0.0,0.0,0.0,0.0,0.0,0.0,0.0,0.0,0.0,0.0,0.0,0.0,0.0,0.0,0.0,0.0,0.0,0.0,0.0,0.0,0.0,0.0,0.0,0.0,0.0,0.0,0.0,0.0,0.0,0.0,0.0,0.0,0.0,0.0,0.0,0.0,0.0,0.0,0.0,0.0,0.0,0.0,0.0,1.9876,1.8615,1.6746,1.4461,1.4172,1.2171,0.8174,0.797,0.7364,0.0,0.0,0.0,0.0,0.0,0.0,0.0,0.0,0.0,0.0,0.0,0.0,0.0,0.0,0.0,0.0,0.0,0.0,0.0,0.0,0.0,0.0,0.0,0.0,0.0,0.0,0.0,0.0,0.0,0.0,0.0,0.0,0.0,0.0,0.0,0.0,0.0,0.0,0.0,0.0,0.0,1.9347,1.7437,1.4568,1.246,0.0,0.0,0.891,0.7089,0.5812,0.0,0.0,0.0,0.0,0.0,0.0,0.0,0.0,0.0,0.0,0.0,0.0,0.0,0.0,0.0,0.0,0.0,0.0,0.0,0.0,0.0,0.0,0.0,0.0,0.0,0.0,0.0,0.0,0.0,0.0,0.0,0.0,0.0,0.0,0.0,0.0,0.0,0.0,0.0,0.0,0.0,0.0,0.0,0.0,0.0,0.0,0.0,0.0,0.0,0.0,0.0,0.0,0.0,0.0,0.0,2.1794,2.072,2.018,1.8738,1.6307,1.5541,1.4004,1.1393,1.0668,0.964,0.0,0.0,0.0,0.0,0.0,0.0,0.0,0.0,0.0,0.0,0.0,0.0,0.0,0.0,0.0,0.0,0.0,0.0,0.0,0.0,0.0,0.0,0.0,0.0,0.0,0.0,0.0,0.0,0.0,0.0,0.0,0.0,0.0,0.0,0.0,0.0,0.0,0.0,0.0,0.0,0.0,0.0,1.7834,1.501,0.0,0.0,0.0,0.9115,0.7396,0.0,0.0,0.0,0.0,0.0,0.0,0.0,0.0,0.0,0.0,0.0,0.0,0.0,0.0,0.0,0.0,0.0,0.0,0.0,0.0,0.0,0.0,0.0,0.0,0.0,0.0,0.0,0.0,0.0,0.0,0.0,0.0,0.0,0.0,0.0,0.0,0.0,0.0,0.0,0.0,0.0,0.0,0.0,0.0,0.0,0.0,0.0,0.0,0.0,0.0,0.0,0.0,0.0,0.0,0.0,0.0,0.0,2.1328,2.1293,2.0305,1.8187,1.6886,1.5603,1.4381,1.3097,0.0,0.0,0.0,0.0,0.0,0.0,0.0,0.0,0.0,0.0,0.0,0.0,0.0,0.0,0.0,0.0,0.0,0.0,0.0,0.0,0.0,0.0,0.0,0.0,0.0,0.0,0.0,1.3708,0.0,0.0,0.0,0.0,0.0,0.0,0.0,0.0,0.0,0.0,0.0,0.0,0.0,0.0,1.7847,1.8434,1.6017,1.4151,0.0,0.0,0.9949,0.857,0.7832,0.6908,0.0,0.0,0.0,0.0,0.0,0.0,0.0,0.0,0.0,0.0,0.0,0.0,0.0,0.0,0.0,0.0,0.0,0.0,0.0,0.0,0.0,0.0,0.0,0.0,0.0,0.0,0.0,0.0,0.0,0.0,0.0,0.0,0.0,0.0,0.0,0.0,0.0,0.0,0.0,0.0,0.0,0.0,0.0,0.0,0.0,0.0,0.0,0.0,0.0,0.0,0.0,0.0,0.0,0.0,2.2155,2.1319,2.1293,2.0666,1.9397,1.818,1.6947,1.5631,1.4435,1.3028,0.0,0.0,0.0,0.0,0.0,0.0,0.0,0.0,0.0,0.0,0.0,0.0,0.0,0.0,0.0,0.0,0.0,0.0,0.0,0.0,0.0,0.0,0.0,0.0,0.0,0.0,0.0,0.0,0.0,0.0,0.0,0.0,0.0,0.0,0.0,0.0,0.0,0.0,0.0,0.0,0.0,1.933,1.9635,1.8592,1.7676,0.0,1.4443,1.1972,1.1891,0.9448,0.7387,0.6807,0.0,0.0,0.0,0.0,0.0,0.0,0.0,0.0,0.0,0.0,0.0,0.0,0.0,0.0,0.0,0.0,0.0,0.0,0.0,0.0,0.0,0.0,0.0,0.0,0.0,0.0,0.0,0.0,0.0,0.0,0.0,0.0,0.0,0.0,0.0,0.0,0.0,0.0,0.0,0.0,0.0,0.0,0.0,0.0,0.0,0.0,0.0,0.0,0.0,0.0,0.0,0.0,0.0,2.2364,2.2068,2.2271,2.1854,2.0657,2.0169,1.9335,1.8072,1.757,1.6109,0.0,0.0,0.0,0.0,0.0,0.0,0.0,0.0,0.0,0.0,0.0,0.0,0.0,0.0,0.0,0.0,0.0,0.0,0.0,0.0,0.0,0.0,0.0,0.0,0.0,0.0,0.0,0.0,1.2349,1.2485,1.2945,0.0,0.0,0.0,0.0,0.0,0.0,0.0,0.0,0.0,0.0,1.8998,1.9466,1.8498,0.0,0.0,1.5448,1.3736,1.3485,1.2431,1.1488,1.0923,0.9956,0.0,0.0,0.0,0.0,0.0,0.0,0.0,0.0,0.0,0.0,0.0,0.0,0.0,0.0,0.0,0.0,0.0,0.0,0.0,0.0,0.0,0.0,0.0,0.0,0.0,0.0,0.0,0.0,0.0,0.0,0.0,0.0,0.0,0.0,0.0,0.0,0.0,0.0,0.0,0.0,0.0,0.0,0.0,0.0,0.0,0.0,0.0,0.0,0.0,0.0,0.0,0.0,2.2578,2.2705,2.2945,2.2677,2.1854,2.1471,2.089,2.0079,1.957,1.8184,0.0,0.0,0.0,0.0,0.0,0.0,0.0,0.0,0.0,0.0,0.0,0.0,0.0,0.0,0.0,0.0,0.0,0.0,0.0,0.0,0.0,0.0,0.0,0.0,0.0,0.0,0.0,0.0,1.3151,1.3479,1.4192,0.0,0.0,0.0,0.0,0.0,0.0,0.0,0.0,0.0,0.0,1.8571,1.9152,1.8517,1.7964,1.8017,1.6569,1.5368,1.5104,1.4648,1.4134,1.3521,0.0,0.0,0.0,0.0,0.0,0.0,0.0,0.0,0.0,0.0,0.0,0.0,0.0,0.0,0.0,0.0,0.0,0.0,0.0,0.0,0.0,0.0,0.0,0.0,0.0,0.0,0.0,2.3178,0.0,0.0,2.4946,0.0,0.0,0.0,0.0,0.0,0.0,0.0,0.0,0.0,0.0,0.0,0.0,0.0,0.0,0.0,0.0,0.0,0.0,0.0,0.0,0.0,0.0,2.2748,2.3105,2.3159,2.3101,2.3047,2.1889,2.1284,2.123,1.9677,1.8647,1.8296,0.0,0.0,0.0,0.0,0.0,0.0,0.0,0.0,0.0,0.0,0.0,0.0,0.0,0.0,0.0,0.0,0.0,0.0,0.0,0.0,0.0,0.0,0.0,0.0,0.0,0.0,1.5277,1.4799,1.4929,0.0,0.0,0.0,0.0,0.0,0.0,0.0,0.0,0.0,0.0,1.7675,1.8209,1.8838,1.9178,1.9301,1.9366,1.8046,1.6968,1.6997,1.5703,1.4366,0.0,0.0,0.0,0.0,0.0,0.0,0.0,0.0,0.0,0.0,0.0,0.0,0.0,0.0,0.0,0.0,0.0,0.0,0.0,0.0,0.0,0.0,0.0,0.0,0.0,0.0,0.0,2.6239,2.5958,0.0,0.0,0.0,0.0,0.0,0.0,0.0,0.0,0.0,0.0,0.0,3.1876,3.193,0.0,0.0,0.0,0.0,0.0,0.0,0.0,0.0,0.0,0.0,0.0,0.0,2.4414,2.4854,2.4429,2.4253,2.4211,2.3096,2.2358,2.2102,2.1553,2.0513,1.8965,0.0,0.0,0.0,0.0,0.0,0.0,0.0,0.0,0.0,0.0,0.0,0.0,0.0,0.0,0.0,0.0,0.0,0.0,0.0,0.0,0.0,0.0,0.0,0.0,0.0,1.5297,0.0,0.0,0.0,0.0,0.0,0.0,0.0,0.0,0.0,0.0,0.0,1.733,1.6901,1.7361,1.7809,1.8003,1.8464,1.9176,0.0,0.0,0.0,0.0,0.0,0.0,0.0,0.0,0.0,0.0,0.0,0.0,0.0,0.0,0.9561,0.8967,0.8733,0.8618,0.8567,0.0,0.0,0.0,0.0,0.0,0.0,0.0,0.0,0.0,0.0,0.0,0.0,0.0,0.0,2.8205,0.0,2.7854,0.0,0.0,0.0,0.0,0.0,0.0,0.0,0.0,3.3814,3.4394,3.4598,3.4619,3.413,0.0,3.1695,2.947,0.0,0.0,0.0,0.0,0.0,0.0,0.0,0.0,2.5576,2.5704,2.5505,2.5303,2.5048,2.4028,2.324,2.2768,2.2296,2.1228,1.95,1.8053,1.6788,0.0,0.0,0.0,0.0,0.0,0.0,0.0,0.0,0.0,0.0,0.0,0.0,0.0,0.0,0.0,0.0,0.0,0.0,0.0,0.0,0.0,0.0,0.0,1.6301,0.0,0.0,0.0,0.0,0.0,0.0,0.0,0.0,0.0,2.0345,1.9041,1.8311,1.849,1.8407,1.8541,1.9112,0.0,0.0,0.0,0.0,0.0,0.0,0.0,2.1362,2.0128,1.8816,1.7525,1.6466,1.4332,1.2523,1.1988,0.0,0.0,0.9238,0.8967,0.8835,0.8791,0.8713,0.8696,0.8648,0.8676,0.8638,0.0,0.0,0.0,0.0,0.0,0.0,0.0,0.0,2.953,2.929,0.0,2.9195,0.0,0.0,0.0,0.0,3.1424,3.3332,0.0,0.0,3.4841,3.5114,3.4761,3.4775,3.4377,3.377,3.4173,3.3268,3.0958,2.732,0.0,0.0,0.0,0.0,0.0,0.0,2.6296,2.5858,2.6307,2.6277,2.5697,2.4732,2.3956,2.3322,2.197,2.0859,2.0048,1.9375,1.8502,1.7361,1.7277,0.0,0.0,0.0,0.0,0.0,0.0,0.0,0.0,0.0,0.0,0.0,0.0,0.0,0.0,0.0,0.0,0.0,0.0,0.0,0.0,1.7979,0.0,0.0,0.0,0.0,0.0,0.0,0.0,0.0,0.0,0.0,2.1178,1.9651,1.9441,2.1568,0.0,0.0,0.0,0.0,2.2215,2.2683,2.3029,2.3376,2.377,2.3811,2.3516,2.2741,0.0,0.0,1.7049,1.4995,1.3301,1.1755,1.1562,1.1131,1.0077,0.946,0.9197,0.9173,0.8903,0.8784,0.8886,0.8811,0.8679,3.7285,0.0,0.0,0.0,0.0,3.6482,3.6222,3.5743,3.5115,3.4352,3.3488,3.3013,0.0,0.0,0.0,0.0,0.0,0.0,3.498,3.6017,3.6271,3.6726,3.7307,3.7321,3.6984,3.6333,3.5777,3.4952,3.3783,3.16,2.9186,2.6673,0.0,0.0,0.0,0.0,2.8317,2.8548,2.7996,2.7572,2.738,2.5941,2.4803,2.3952,2.2493,2.1939,2.2439,2.0959,1.9927,1.9478,1.8276,0.0,0.0,0.0,0.0,0.0,0.0,0.0,0.0,0.0,0.0,0.0,0.0,0.0,0.0,0.0,0.0,0.0,0.0,0.0,1.8225,1.7811,1.8129,0.0,0.0,0.0,0.0,0.0,0.0,0.0,0.0,0.0,2.3345,2.217,2.1442,0.0,0.0,2.1344,2.1918,2.1926,2.2298,2.365,2.3911,0.0,2.4447,2.4325,2.3791,2.2732,2.1573,2.0432,1.9483,1.7172,1.526,1.4785,1.2913,1.1364,1.0918,0.9981,0.9229,0.9018,0.8927,0.8834,0.8865,0.8844,0.8794,4.1823,4.0465,3.8892,3.8228,3.8255,3.868,3.8584,3.8214,3.798,3.7354,3.6443,3.556,3.4744,3.4039,3.3968,0.0,0.0,0.0,3.6151,3.7162,3.7097,3.7382,3.7988,3.8003,3.7659,3.7011,3.6488,3.5859,3.5195,3.3821,3.2069,2.9941,0.0,0.0,2.8675,2.905,2.9327,2.9402,2.8995,2.8657,2.84,2.6636,2.5104,2.3944,2.3232,2.3048,2.3486,2.2595,2.1856,2.1414,2.0518,1.9112,0.0,0.0,0.0,0.0,0.0,0.0,0.0,0.0,0.0,0.0,0.0,2.1598,2.1195,0.0,0.0,0.0,2.081,2.0732,2.0353,2.0381,0.0,0.0,0.0,0.0,0.0,0.0,0.0,2.4173,2.3554,2.3344,2.4027,2.3453,2.2998,2.3162,2.278,2.2726,2.3302,0.0,2.3727,2.495,2.4967,2.5069,2.5577,2.5386,2.4674,2.3331,2.2094,2.1079,2.0624,1.8632,1.691,1.6095,1.431,1.2484,1.1819,1.0996,1.0053,0.9151,0.8937,0.8865,0.8866,0.8794,0.8706,4.4915,4.399,4.0185,3.8615,3.8697,3.9659,3.9524,3.8641,3.9021,3.8864,3.8212,3.7067,3.6415,3.622,3.609,0.0,3.6106,3.6921,3.731,3.7404,3.736,3.733,3.733,3.7285,3.6971,3.6402,3.6402,3.6103,3.5469,3.4543,3.4129,3.4061,3.2307,3.115,3.0589,3.0212,2.9707,2.9114,2.963,2.958,2.8888,2.6991,2.5317,2.3872,2.4164,2.4149,2.3779,2.4063,2.3857,2.311,2.3318,2.2107,1.9238,0.0,0.0,0.0,0.0,0.0,0.0,0.0,0.0,0.0,0.0,0.0,0.0,0.0,0.0,0.0,2.281,0.0,2.3323,2.4461,0.0,0.0,0.0,2.6483,2.6483,2.5546,2.4957,2.4914,0.0,0.0,2.395,2.3984,2.4199,2.4992,2.4312,2.4221,2.547,2.548,2.5771,2.5995,2.583,2.5859,2.6334,2.6248,2.554,2.4226,2.3174,2.2018,2.1073,1.9498,1.803,1.6893,1.5444,1.4112,1.2766,1.2447,1.1746,0.965,0.9161,0.9013,0.8935,0.88,0.8608,4.4915,4.4172,4.2706,4.2092,4.2092,4.2347,4.2322,4.2029,4.1172,4.0453,3.9759,3.8466,3.7349,3.6452,3.6399,3.6367,3.6416,3.66,3.6971,3.7375,3.6926,3.6701,3.6686,3.6193,3.5893,3.5744,3.5729,3.5654,3.5519,3.5279,3.5133,3.5067,3.3925,3.2926,3.2129,3.1965,3.1506,3.0649,3.0792,3.0236,2.8925,2.8021,2.7186,2.6417,2.5391,2.5139,2.5735,2.4441,2.3959,2.4436,2.3588,2.2512,2.1444,2.156,0.0,0.0,0.0,0.0,0.0,0.0,0.0,0.0,0.0,2.3548,2.26,0.0,2.4221,0.0,2.2796,2.3523,2.4468,2.4957,0.0,0.0,2.6378,2.6483,2.6483,2.6265,2.6088,2.6099,2.5861,2.5726,2.5846,2.5367,2.4967,2.4864,2.4528,2.4495,2.5146,2.4932,2.4766,2.4883,2.4834,2.4805,2.5019,2.4961,2.4761,2.4392,2.3259,2.231,2.2048,2.0071,1.841,1.7895,1.6097,1.4597,1.4179,1.3222,1.2319,1.1599,1.0783,1.0043,0.9999,0.9264,0.8486,4.4915,4.4257,4.3574,4.3125,4.2895,4.2895,4.291,4.2821,4.1856,4.101,4.0322,3.9305,3.8287,3.736,3.733,3.718,3.6911,3.6896,3.6926,3.6971,3.6656,3.6327,3.6028,3.5669,3.5489,3.5489,3.5489,3.5489,3.5489,3.5489,3.5489,3.5472,3.4938,3.4409,3.3871,3.3031,3.2357,3.1815,3.1389,3.0448,2.895,2.8382,2.7976,2.7659,2.683,2.6515,2.6819,2.6009,2.5696,2.5982,2.5289,2.4449,2.3584,2.3703,2.3329,0.0,0.0,0.0,0.0,0.0,0.0,0.0,0.0,0.0,0.0,0.0,2.523,2.4862,2.4968,2.5612,2.6993,2.7186,2.7423,2.79,2.7959,2.7971,2.7971,2.7545,2.7209,2.7209,2.6801,2.6483,2.6483,2.6132,2.5817,2.5579,2.5411,2.5132,2.4625,2.4434,2.4424,2.4414,2.4268,2.4141,2.4141,2.4141,2.4141,2.4075,2.3364,2.273,2.2685,2.1072,1.9753,1.9612,1.7705,1.598,1.5931,1.485,1.396,1.3756,1.2854,1.1887,1.1263,1.0164,0.92,4.487,4.4097,4.3529,4.2955,4.2396,4.2321,4.2276,4.2231,4.1572,4.0891,4.0232,3.9538,3.8916,3.8257,3.8182,3.7778,3.7165,3.7165,3.6881,3.6372,3.6372,3.6058,3.5504,3.5489,3.5489,3.5489,3.5489,3.5489,3.5489,3.5489,3.5489,3.5489,3.5489,3.5489,3.5424,3.3788,3.2925,3.277,3.1852,3.0721,2.9389,2.8905,2.8662,2.8598,2.8486,2.8181,2.7694,2.8079,2.8079,2.7545,2.7605,2.7062,2.5802,2.6038,2.5917,0.0,2.5637,0.0,0.0,0.0,0.0,0.0,0.0,0.0,0.0,2.5809,2.6573,2.8039,2.7767,2.8059,2.9453,2.9704,2.9779,2.9779,2.9779,2.9779,2.974,2.8897,2.8347,2.8295,2.7504,2.6924,2.7017,2.6801,2.6678,2.6678,2.6517,2.588,2.4608,2.4561,2.4796,2.4685,2.4376,2.4438,2.4305,2.4093,2.4004,2.392,2.3482,2.3101,2.3052,2.2024,2.1266,2.1042,1.9363,1.79,1.7731,1.673,1.5981,1.5675,1.4754,1.3736,1.2574,1.113,1.0175,4.4601,4.3484,4.3349,4.2955,4.2351,4.1826,4.1602,4.1557,4.0861,4.0217,3.9574,3.8886,3.8227,3.7569,3.7075,3.6507,3.5863,3.5863,3.5804,3.5684,3.5699,3.5624,3.5504,3.5489,3.5489,3.5489,3.5489,3.5489,3.5489,3.5489,3.5489,3.5489,3.5489,3.5489,3.5472,0.0,0.0,0.0,3.282,3.2181,3.1906,3.1784,3.1534,3.1128,3.0582,0.0,2.9514,2.9582,2.9331,2.8755,2.9195,0.0,0.0,0.0,0.0,0.0,0.0,0.0,0.0,0.0,0.0,0.0,2.8084,2.7701,2.8241,2.818,2.8192,2.8417,2.8545,2.8561,2.8448,2.9252,2.9779,2.9779,2.9779,2.9779,2.9792,2.9624,2.9482,2.9456,2.93,2.917,2.904,2.8398,2.7804,2.7735,2.7046,2.6423,2.6065,2.6028,2.6092,2.607,2.588,2.5961,2.5981,2.52,2.4633,2.4485,2.3717,2.3178,2.3091,2.2173,2.1337,2.1337,2.0124,1.8818,1.7956,1.7458,1.699,1.6015,1.5588,1.5064,1.3792,1.1712,1.0036,4.4227,4.3275,4.2985,4.2476,0.0,4.1175,4.0711,4.0382,4.0053,3.9529,3.8886,3.8542,3.7853,3.6941,3.6626,3.6133,3.5504,3.5489,3.5489,3.5489,3.5489,3.5489,3.5489,3.5489,3.5489,3.5489,3.5489,3.5489,3.5489,3.5489,3.5489,3.5489,3.5489,3.5489,3.5489,3.5489,3.5019,3.4013,3.3518,3.3066,3.2615,3.2338,3.2186,3.2159,3.1592,0.0,0.0,0.0,0.0,0.0,0.0,0.0,0.0,2.9795,0.0,2.9294,2.987,3.0125,2.9866,3.0066,3.0238,3.0224,3.0299,2.9824,2.8761,2.878,2.893,2.9114,2.9581,2.9851,2.9878,3.0642,3.0983,3.0558,3.0921,3.0846,3.0037,3.0216,3.0266,2.9856,2.9779,2.9779,2.9779,2.9314,2.8976,2.8937,2.8502,2.8091,2.7999,2.718,2.6483,2.6483,2.6483,2.6483,2.6442,2.6099,2.563,2.5515,2.467,2.4039,2.3963,2.2965,2.2173,2.212,2.1212,2.0124,1.9588,1.8549,1.7505,1.685,1.6251,1.5683,1.4895,1.3295,1.1697,4.3902,4.3245,4.2626,4.2036,4.1324,4.0681,3.9963,3.9245,0.0,0.0,0.0,3.8153,3.7464,3.6525,3.6357,3.6013,3.5519,3.5489,3.5489,3.5489,3.5489,3.5489,3.5489,3.5489,3.5489,3.5489,3.5489,3.5489,3.5489,3.5489,3.5489,3.5489,3.5489,3.5489,3.5489,3.5489,3.51,3.4312,3.4245,3.3891,3.3122,3.2679,3.2665,3.3087,3.2581,3.2202,3.2103,3.2089,3.1733,3.0998,3.1054,3.0797,3.0177,3.0668,3.0839,3.0598,3.1144,3.1519,3.1524,3.1611,3.164,3.1496,3.2004,3.1323,2.8951,2.9139,2.9529,2.9882,3.0353,3.0861,3.142,3.2047,3.2176,3.1509,3.2141,3.1938,3.0595,3.0758,3.0871,3.0165,2.9934,2.9779,2.9779,2.974,2.9779,2.9779,2.9624,2.9779,2.9585,2.8303,2.7302,2.7302,2.7395,2.718,2.7098,2.6924,2.6801,2.676,2.5839,2.5126,2.4925,2.4178,2.3464,2.342,2.2429,2.1623,2.1203,1.9761,1.8226,1.777,1.6904,1.6062,1.5784,1.4949,1.3782,4.3888,4.323,4.2641,4.2021,4.1339,4.0681,3.9694,3.8556,3.8527,3.8467,3.8332,3.7225,3.669,3.6462,3.5893,3.5609,3.5504,3.5489,3.5489,3.5489,3.5489,3.5489,3.5489,3.5489,3.5489,3.5489,3.5489,3.5489,3.5489,3.5489,3.5489,3.5489,3.5489,3.5489,3.5489,3.5489,3.5424,3.5279,3.5279,3.5213,3.51,3.5026,3.5011,3.507,3.4448,3.3843,3.3278,3.3247,3.2701,3.1486,3.196,3.196,3.1294,3.0863,3.0786,3.129,3.1488,3.1564,3.1508,3.2092,3.216,3.1582,3.16,3.1453,3.1101,3.0945,3.069,3.0301,3.0143,3.0207,3.0847,3.1488,3.2068,3.2319,3.2522,3.2451,3.2092,3.1609,3.1204,3.097,3.0279,2.983,2.9792,2.9779,2.9779,2.9779,2.9779,2.9779,2.974,2.9585,2.9365,2.9326,2.9339,2.9339,2.9,2.8438,2.7976,2.7896,2.6953,2.6265,2.6265,2.521,2.451,2.4553,2.3487,2.2482,2.1569,2.1114,1.9898,1.8403,1.7638,1.7037,1.6157,1.5629,1.5051,4.3574,4.317,4.2252,4.1707,4.1309,4.0307,3.9305,3.8377,3.8018,3.7659,3.7315,3.6731,3.6282,3.5938,3.5639,3.5489,3.5489,3.5489,3.5489,3.5489,3.5489,3.5489,3.5489,3.5489,3.5489,3.5489,3.5489,3.5489,3.5489,3.5489,3.5489,3.5489,3.5489,3.5489,3.5489,3.5489,3.5489,3.5489,3.5489,3.5489,3.5489,3.5489,3.5489,3.5489,3.519,3.4711,3.4084,3.4054,3.3425,3.2093,3.2333,3.2183,3.154,3.1578,3.1604,3.1552,3.2249,3.2353,3.1552,3.1796,3.1853,3.1524,3.1496,3.1496,3.1496,3.1412,3.1264,3.1014,3.109,3.1527,3.2193,3.2815,3.3106,3.2871,3.3622,3.3577,3.2409,3.2569,3.2307,3.1402,3.0833,3.0394,2.9869,2.9779,2.9779,2.9779,2.9779,2.9779,2.9779,2.9779,2.9779,2.9779,2.9779,2.9792,2.9779,2.9404,2.9067,2.9028,2.8108,2.7452,2.7238,2.6036,2.4999,2.4755,2.3877,2.2984,2.2315,2.1702,2.0845,2.007,1.8411,1.7544,1.6897,1.6339,1.5337,4.3305,4.3185,4.1923,4.122,4.0846,3.9858,3.8945,3.8138,3.7644,3.6971,3.6327,3.6267,3.5983,3.5534,3.5489,3.5489,3.5489,3.5489,3.5489,3.5489,3.5489,3.5489,3.5489,3.5489,3.5489,3.5489,3.5489,3.5489,3.5489,3.5489,3.5489,3.5489,3.5489,3.5489,3.5489,3.5489,3.5489,3.5489,3.534,3.5355,3.5489,3.5489,3.5429,3.528,3.5265,3.4891,3.4113,3.4194,3.3744,3.2627,3.2667,3.2511,3.2038,3.235,3.2416,3.2099,3.283,3.2812,3.1662,3.1658,3.1562,3.1092,3.1346,3.1376,3.1122,3.1346,3.1496,3.1555,3.1885,3.2467,3.3049,3.3648,3.3877,3.3485,3.4322,3.4236,3.2709,3.322,3.3182,3.1626,3.1235,3.0833,3.0062,2.9779,2.9779,2.9779,2.9779,2.9779,2.9779,2.9779,2.9779,2.9779,2.9779,2.9779,2.9779,2.974,2.974,2.9779,2.9067,2.8597,2.8176,2.6819,2.5535,2.5294,2.4296,2.3507,2.3135,2.2403,2.1667,2.1078,1.9815,1.8596,1.8133,1.7171,1.5913,4.3305,4.311,4.1923,4.0696,3.9679,3.9469,3.8676,3.7584,3.7419,3.6716,3.5684,3.5609,3.5579,3.5504,3.5489,3.5489,3.5489,3.5489,3.5489,3.5489,3.5489,3.5489,3.5489,3.5489,3.5489,3.5489,3.5489,3.5489,3.5489,3.5489,3.5489,3.5489,3.5489,3.5489,3.5489,3.5489,3.5489,3.5489,3.4891,3.4876,3.5459,3.5489,3.5205,3.4608,3.4608,3.3978,3.2841,3.3264,3.3283,3.2717,3.315,3.3455,3.3328,3.2905,3.2825,3.329,3.2901,3.2264,3.1668,3.2112,3.1692,3.0093,3.0879,3.1001,3.0043,3.0823,3.1481,3.1525,3.157,3.1929,3.2512,3.2736,3.3184,3.3986,3.3959,3.3796,3.3974,3.3587,3.2757,3.1723,3.1397,3.0871,3.0024,2.9779,2.9779,2.9779,2.9779,2.9779,2.9779,2.9779,2.9779,2.9779,2.9779,2.9779,2.9779,2.9779,2.9779,2.9792,2.9702,2.9482,2.9157,2.8454,2.7522,2.6326,2.5314,2.431,2.3551,2.2906,2.258,2.1765,2.1042,2.0531,1.9534,1.8365,1.7117,4.3305,4.317,4.1923,4.0621,3.9469,3.8975,3.8272,3.7404,3.7015,3.6342,3.5564,3.5489,3.5489,3.5489,3.5489,3.5489,3.5489,3.5489,3.5489,3.5489,3.5489,3.5489,3.5489,3.5489,3.5489,3.5489,3.5489,3.5489,3.5489,3.5489,3.5489,3.5489,3.5489,3.5489,3.5489,3.5489,3.5489,3.5474,3.4831,3.4653,3.4816,3.4517,3.4367,3.4474,3.4129,3.3484,3.2676,3.3152,3.3225,3.2703,3.3235,3.3608,3.3608,3.3299,3.3064,3.296,3.2257,3.2107,3.2648,3.2212,3.1388,3.0215,3.0609,3.0661,3.0203,3.0313,3.0657,3.1361,3.1496,3.178,3.2363,3.2482,3.2751,3.329,3.3724,3.4023,3.3888,3.3934,3.3485,3.2361,3.1749,3.1007,3.0088,2.9779,2.9779,2.9779,2.9779,2.9779,2.9779,2.9779,2.9779,2.9779,2.9779,2.9779,2.9779,2.9779,2.9779,2.9779,2.9779,2.9779,2.9625,2.8541,2.7506,2.7383,2.6289,2.5153,2.4308,2.4082,2.3737,2.2726,2.1578,2.0935,1.9716,1.9131,1.8272,4.3305,4.3095,4.1923,4.0621,3.9358,3.8886,3.8287,3.7629,3.7015,3.6387,3.5789,3.5594,3.5489,3.5489,3.5489,3.5489,3.5489,3.5489,3.5489,3.5489,3.5489,3.5489,3.5489,3.5489,3.5489,3.5489,3.5489,3.5489,3.5522,3.5718,3.5799,3.5814,3.5814,3.5814,3.5782,3.5636,3.5489,3.5429,3.4666,3.4324,3.4354,3.3484,3.3275,3.3829,3.3484,3.3006,3.258,3.3172,3.3435,3.3177,3.3802,3.4153,3.4145,3.4098,3.3677,3.2819,3.2261,3.2085,3.2626,3.2034,3.1246,3.0369,3.0489,3.0572,3.025,2.9982,3.0192,3.0727,3.1116,3.1481,3.2093,3.2213,3.2288,3.2527,3.3305,3.3544,3.3544,3.3829,3.3571,3.2825,3.2027,3.1133,3.0101,2.9779,2.9779,2.9779,2.9779,2.9779,2.9779,2.9779,2.9779,2.9779,2.9779,2.9779,2.9779,2.9779,2.9779,2.9779,2.9779,2.9779,2.9779,2.8609,2.7741,2.7877,2.6886,2.5913,2.4946,2.4702,2.483,2.3823,2.2848,2.1906,2.1033,2.0404,1.9534,4.3305,4.3095,4.1908,4.0606,3.9373,3.9298,3.896,3.8227,3.7584,3.6985,3.6342,3.5759,3.5489,3.5489,3.5489,3.5489,3.5489,3.5489,3.5489,3.5489,3.5489,3.5489,3.5489,3.5489,3.5489,3.5489,3.5489,3.5522,3.5587,3.6196,3.6554,3.6538,3.6554,3.6554,3.6415,3.5878,3.5504,3.5385,3.4247,3.3844,3.4174,3.2617,3.1989,3.2631,3.2572,3.2579,3.2647,3.3245,3.3869,3.4471,3.5068,3.547,3.547,3.5408,3.4678,3.346,3.3246,3.2395,3.1075,3.1627,3.1505,3.0028,3.0568,3.0792,2.9824,3.0011,3.0145,2.9703,3.0334,3.0878,3.1436,3.1615,3.1854,3.2303,3.1989,3.2363,3.335,3.308,3.2846,3.2795,3.2081,3.1048,2.9948,2.9779,2.9779,2.9779,2.9779,2.9779,2.9779,2.9779,2.9779,2.9779,2.9779,2.9779,2.9779,2.9779,2.9779,2.9779,2.9779,2.9779,2.9779,2.9599,2.8978,2.8497,2.8012,2.7088,2.5732,2.521,2.542,2.5041,2.4702,2.3869,2.2673,2.188,2.0935,4.2796,4.2013,4.1115,4.0217,3.9373,3.896,3.8601,3.8302,3.727,3.6701,3.6402,3.5804,3.5489,3.5489,3.5489,3.5489,3.5489,3.5489,3.5489,3.5489,3.5489,3.5489,3.5489,3.5489,3.5489,3.5489,3.5489,3.575,3.6181,3.6461,3.6873,3.7293,3.7368,3.7114,3.663,3.6337,3.5975,3.5434,3.4173,3.3619,3.3709,3.2303,3.1846,3.2497,3.2555,3.2573,3.2602,3.3659,3.4358,3.4616,3.5253,3.5616,3.5515,3.4687,3.3761,3.2797,3.2256,3.1871,3.164,3.1595,3.1178,3.019,3.0375,3.0603,3.0117,2.9918,2.9855,3.0117,3.0309,3.0624,3.0861,3.1227,3.1585,3.1809,3.2034,3.2258,3.2781,3.2975,3.2982,3.2425,3.1467,3.0487,3.0125,2.991,2.9818,2.9779,2.9779,2.9779,2.9779,2.9779,2.9779,2.9779,2.9779,2.9779,2.9779,2.9779,2.9779,2.9779,2.9779,2.9779,2.9779,2.949,2.8879,2.8975,2.877,2.8243,2.6835,2.6066,2.6191,2.542,2.521,2.5126,2.4382,2.3215,2.2221,4.2387,4.1392,4.0681,4.0023,3.9358,3.8916,3.8586,3.8317,3.7464,3.6915,3.6462,3.6013,3.5714,3.5519,3.5489,3.5489,3.5489,3.5489,3.5489,3.5489,3.5489,3.5489,3.5489,3.5489,3.5489,3.5554,3.575,3.6134,3.66,3.7098,3.7629,3.8104,3.7937,3.7528,3.701,3.6508,3.599,3.5344,3.4382,3.3739,3.341,3.2422,3.2049,3.2551,3.2788,3.3039,3.3235,3.4137,3.4712,3.4941,3.5362,3.5498,3.5182,3.41,3.3068,3.2344,3.1616,3.1393,3.1802,3.1481,3.1015,3.0638,3.0597,3.0641,3.0609,3.0058,2.998,3.0275,3.0248,3.0211,3.0512,3.0917,3.1256,3.1481,3.1899,3.2258,3.2467,3.2676,3.2308,3.1486,3.0883,3.025,2.9668,2.9529,2.9453,2.9528,2.9654,2.9779,2.9779,2.9779,2.9779,2.9779,2.9779,2.9779,2.9779,2.9779,2.9779,2.9779,2.9779,2.9779,2.9704,2.9314,2.9139,2.9314,2.9187,2.8768,2.812,2.7221,2.6375,2.5556,2.5546,2.563,2.4978,2.4376,2.3083,4.2021,4.1362,4.0666,3.9978,3.9388,3.926,3.896,3.8422,3.8257,3.7479,3.6552,3.6432,3.6058,3.5609,3.5489,3.5489,3.5489,3.5489,3.5489,3.5489,3.5489,3.5489,3.5489,3.5489,3.5489,3.5522,3.6196,3.6554,3.6752,3.7901,3.8635,3.869,3.8206,3.7806,3.7706,3.6352,3.5604,3.5325,3.4696,3.4084,3.3499,3.2736,3.2397,3.2636,3.3145,3.371,3.4406,3.4576,3.4941,3.547,3.5577,3.5228,3.4523,3.3711,3.3,3.2239,3.1582,3.1241,3.1224,3.1244,3.119,3.1095,3.1171,3.1089,3.0999,3.0626,3.0312,3.0228,2.999,2.9834,3.033,3.0519,3.0866,3.1376,3.16,3.1839,3.2153,3.1885,3.1115,3.0339,3.0313,2.9933,2.8813,2.8611,2.89,2.8976,2.9352,2.9616,2.9578,2.9641,2.9779,2.9741,2.9754,2.9779,2.9779,2.9779,2.9779,2.9779,2.9779,2.9779,2.9729,2.9478,2.9139,2.9214,2.8925,2.8512,2.7879,2.7085,2.6593,2.5998,2.6151,2.5826,2.503,2.4142,2.3338,4.1602,4.1287,4.0172,3.9619,3.9349,3.8916,3.8571,3.8382,3.7928,3.7255,3.6596,3.6492,3.6118,3.5624,3.5489,3.5489,3.5489,3.5489,3.5489,3.5489,3.5489,3.5489,3.5489,3.5489,3.5489,3.5522,3.5733,3.6415,3.7338,3.7921,3.8358,3.8745,3.8663,3.7975,3.7024,3.6477,3.6054,3.5419,3.4382,3.3694,3.341,3.2378,3.2065,3.2535,3.2815,3.3224,3.3928,3.48,3.5362,3.56,3.56,3.5042,3.3914,3.3034,3.2327,3.163,3.1343,3.119,3.119,3.119,3.119,3.119,3.119,3.119,3.119,3.1035,3.0699,3.038,3.0183,3.0091,2.9943,3.0255,3.0775,3.1436,3.1496,3.157,3.1663,3.1161,3.0799,3.0657,2.9874,2.8989,2.8512,2.8454,2.8386,2.8374,2.8863,2.9139,2.885,2.9352,2.9553,2.9315,2.9515,2.9729,2.9654,2.9666,2.9729,2.9716,2.9704,2.9779,2.9729,2.949,2.9202,2.8812,2.8536,2.8176,2.7516,2.7026,2.6544,2.6091,2.5842,2.5283,2.4534,2.3984,2.3495,4.1422,4.1235,3.9963,3.9388,3.9379,3.8945,3.8631,3.8407,3.8242,3.7659,3.6971,3.6836,3.6462,3.5923,3.5624,3.5504,3.5489,3.5489,3.5489,3.5489,3.5489,3.5489,3.5489,3.5489,3.5489,3.5554,3.5782,3.6384,3.7293,3.7661,3.8035,3.8414,3.8201,3.7584,3.6615,3.6306,3.5926,3.5357,3.4442,3.3739,3.3335,3.2452,3.211,3.2523,3.2586,3.2933,3.3608,3.4657,3.5247,3.5293,3.5447,3.489,3.3537,3.2949,3.2276,3.141,3.119,3.119,3.119,3.119,3.119,3.119,3.119,3.119,3.119,3.119,3.0918,3.0434,3.0105,2.9982,2.9937,2.9982,3.0565,3.1421,3.1496,3.1365,3.1102,3.0614,3.0033,2.9732,2.8857,2.8217,2.7816,2.8096,2.7959,2.7971,2.8411,2.87,2.8473,2.89,2.8976,2.9139,2.9478,2.9566,2.9478,2.9541,2.9666,2.9641,2.9603,2.9716,2.9767,2.9315,2.8913,2.8285,2.7883,2.7784,2.7262,2.6887,2.6452,2.6014,2.5553,2.4984,2.4449,2.4744,2.4337,4.1422,4.1242,3.9978,3.9388,3.9373,3.9254,3.8901,3.8542,3.896,3.8467,3.7539,3.7434,3.712,3.6492,3.5953,3.5669,3.5549,3.5489,3.5489,3.5489,3.5489,3.5489,3.5489,3.5489,3.5489,3.5619,3.6117,3.6508,3.6752,3.7293,3.7735,3.7661,3.7098,3.66,3.6368,3.5831,3.5554,3.5432,3.4758,3.4008,3.3455,3.2736,3.24,3.2453,3.2477,3.2707,3.3245,3.4087,3.4616,3.4719,3.5171,3.467,3.366,3.3339,3.2425,3.1275,3.1224,3.1326,3.1292,3.1529,3.1512,3.1562,3.1562,3.1275,3.1393,3.1392,3.1169,3.0507,2.9974,2.9832,3.0206,3.0088,3.0355,3.114,3.1278,3.0999,3.0464,3.0208,2.9418,2.8268,2.7696,2.741,2.6806,2.7477,2.7656,2.7582,2.8109,2.8373,2.8245,2.842,2.8874,2.9201,2.9514,2.9889,2.9943,3.0264,3.0306,2.9857,2.9732,2.9694,2.9479,2.8938,2.8348,2.7695,2.7356,2.7293,2.6996,2.6554,2.6172,2.5804,2.5307,2.4752,2.4719,2.4992,2.4849,4.1422,4.1272,3.9963,3.9388,3.9349,3.8886,3.8586,3.8457,3.8586,3.8287,3.7629,3.7928,3.7764,3.712,3.6507,3.6237,3.6088,3.5699,3.5489,3.5489,3.5489,3.5489,3.5489,3.5489,3.5489,3.5554,3.575,3.6054,3.6584,3.6798,3.6919,3.6904,3.6676,3.6306,3.5846,3.5619,3.5489,3.5325,3.4322,3.3739,3.341,3.2422,3.1792,3.1784,3.1855,3.1968,3.2188,3.3219,3.4399,3.517,3.4396,3.3863,3.344,3.256,3.1867,3.1529,3.1732,3.2022,3.2107,3.2459,3.2747,3.2831,3.2662,3.2577,3.2053,3.2059,3.173,3.1105,3.0536,3.0242,3.0428,3.0376,3.0473,3.0513,3.0644,3.0494,3.0086,2.9129,2.8149,2.7736,2.7196,2.6782,2.6741,2.704,2.7306,2.7102,2.7494,2.8021,2.7702,2.8633,2.9344,2.9398,2.968,3.0223,3.0621,3.0953,3.0887,3.0236,2.9943,2.9735,2.9122,2.8285,2.757,2.6876,2.6914,2.6854,2.6449,2.5981,2.5729,2.5687,2.5051,2.4591,2.4959,2.5238,2.5055,4.1662,4.1294,4.0262,3.9679,3.9394,3.8975,3.8826,3.8826,3.8811,3.8631,3.8347,3.8302,3.8182,3.7749,3.6896,3.6492,3.6402,3.5804,3.5504,3.5489,3.5489,3.5489,3.5489,3.5489,3.5489,3.5489,3.5489,3.5718,3.6054,3.6149,3.6149,3.6134,3.6149,3.5894,3.5587,3.5489,3.5489,3.531,3.4457,3.3934,3.3814,3.2901,3.2243,3.2079,3.2153,3.2346,3.2507,3.3166,3.4184,3.5094,3.4771,3.4201,3.3846,3.3102,3.2442,3.2205,3.2527,3.2747,3.2831,3.3186,3.3372,3.3389,3.3389,3.3039,3.2524,3.2381,3.2046,3.1022,3.0667,3.0531,3.0537,3.0732,3.0875,3.0822,3.0208,2.9628,2.9286,2.833,2.7617,2.7229,2.6803,2.6487,2.6499,2.6954,2.6929,2.6826,2.7228,2.7178,2.7006,2.8568,2.9623,2.944,2.9883,3.0555,3.0904,3.1213,3.1302,3.0694,2.9761,2.9608,2.8582,2.7657,2.7218,2.6713,2.6575,2.6418,2.6198,2.597,2.5876,2.5609,2.4943,2.4857,2.5272,2.5547,2.531,4.2021,4.1324,4.0681,4.0008,3.9433,3.9388,3.9313,3.9358,3.9328,3.9313,3.9179,3.8736,3.8571,3.8422,3.7404,3.6746,3.6701,3.6058,3.5639,3.5549,3.5489,3.5489,3.5489,3.5489,3.5489,3.5489,3.5489,3.5522,3.5636,3.5587,3.5522,3.5604,3.5587,3.5522,3.5554,3.5604,3.5651,3.5597,3.523,3.4789,3.4545,3.3879,3.3261,3.2751,3.3021,3.335,3.3437,3.3671,3.416,3.5553,3.5476,3.4885,3.4406,3.4404,3.3964,3.344,3.3372,3.3508,3.3558,3.3677,3.3642,3.3667,3.3693,3.3264,3.2817,3.262,3.2207,3.1139,3.0701,3.0701,3.0774,3.1152,3.1232,3.0999,2.995,2.8876,2.7966,2.765,2.7297,2.6658,2.6533,2.6499,2.6688,2.6927,2.7153,2.6927,2.719,2.7027,2.722,2.8384,2.8991,2.8919,2.973,3.0875,3.1151,3.1394,3.138,3.1096,2.9779,2.9,2.7895,2.714,2.6952,2.6713,2.6549,2.6487,2.6418,2.6253,2.6121,2.5933,2.5529,2.5577,2.5755,2.5899,2.5804,4.2006,4.1324,4.0666,4.0023,3.9448,3.9388,3.9388,3.9388,3.9388,3.9388,3.9343,3.9209,3.9134,3.9125,3.8272,3.7973,3.7704,3.6746,3.6028,3.5519,3.5489,3.5489,3.5489,3.5489,3.5489,3.5489,3.5489,3.5489,3.5489,3.5489,3.5489,3.5489,3.5587,3.5489,3.5619,3.6117,3.6368,3.6369,3.6277,3.5878,3.5307,3.4726,3.4075,3.3456,3.3469,3.3789,3.4075,3.3769,3.4211,3.4946,3.4684,3.4305,3.4447,3.4083,3.3778,3.3795,3.4066,3.4303,3.437,3.4754,3.4875,3.4416,3.4645,3.4594,3.339,3.3267,3.2907,3.2167,3.1613,3.1242,3.1239,3.1376,3.1263,3.0763,3.0254,2.938,2.8051,2.7196,2.6816,2.6589,2.6499,2.665,2.7052,2.7102,2.719,2.714,2.7065,2.7014,2.7576,2.8305,2.8738,2.8961,3.0411,3.1619,3.2057,3.2134,3.1956,3.1438,3.0099,2.8718,2.758,2.6788,2.6688,2.66,2.6524,2.6512,2.66,2.6477,2.6348,2.6253,2.6258,2.629,2.6377,2.6396,2.6286,4.2447,4.1856,4.1459,4.0756,3.9963,3.9873,3.9672,3.9433,3.9388,3.9388,3.9388,3.9388,3.9388,3.9328,3.8721,3.8362,3.8093,3.7075,3.6133,3.5624,3.5489,3.5489,3.5489,3.5489,3.5489,3.5489,3.5489,3.5489,3.5489,3.5489,3.5489,3.5554,3.5814,3.6054,3.6117,3.6768,3.7114,3.7053,3.6843,3.646,3.604,3.5416,3.4972,3.4416,3.4158,3.4165,3.4395,3.4211,3.441,3.4717,3.4444,3.4321,3.4852,3.4675,3.4433,3.4535,3.5148,3.5537,3.5723,3.587,3.5843,3.5167,3.5425,3.4516,3.3705,3.3371,3.3045,3.228,3.1693,3.1481,3.1496,3.1496,3.1204,3.0925,3.051,2.9889,2.8985,2.7835,2.6884,2.6658,2.6487,2.6801,2.7077,2.718,2.7205,2.7155,2.6876,2.6836,2.7169,2.7967,2.9032,2.9794,3.1322,3.2435,3.2957,3.3024,3.2701,3.1829,3.0507,2.906,2.7712,2.7054,2.6512,2.6487,2.6499,2.6751,2.6813,2.6688,2.6738,2.6987,2.7101,2.708,2.6979,2.6889,2.6691,4.2955,4.2396,4.2396,4.1654,4.0636,4.0427,4.0083,3.9619,3.9418,3.9388,3.9388,3.9388,3.9388,3.9254,3.8871,3.8542,3.8147,3.7541,3.6688,3.6099,3.5859,3.5829,3.575,3.5604,3.5489,3.5489,3.5489,3.5522,3.5668,3.5587,3.5733,3.591,3.6259,3.66,3.6889,3.7528,3.7962,3.7873,3.7681,3.7166,3.681,3.6214,3.5854,3.5252,3.4921,3.4668,3.4766,3.4681,3.474,3.473,3.4872,3.5224,3.5575,3.5628,3.5718,3.5718,3.6282,3.6508,3.6575,3.6732,3.6599,3.5852,3.5834,3.4925,3.3707,3.3344,3.3056,3.2348,3.1781,3.1496,3.1496,3.1496,3.157,3.147,3.0939,3.0538,3.0201,2.9063,2.8159,2.7118,2.7165,2.7467,2.7293,2.7266,2.7218,2.7168,2.6889,2.6741,2.7096,2.7833,2.9017,3.0062,3.1397,3.2332,3.2855,3.296,3.2756,3.1794,3.0552,2.9462,2.8027,2.7134,2.6611,2.6521,2.6562,2.6801,2.6952,2.6864,2.7115,2.7657,2.7582,2.7203,2.7178,2.7304,2.7115,4.294,4.2396,4.2396,4.1946,4.1227,4.0651,4.0307,4.0157,3.9619,3.9388,3.9388,3.9388,3.9388,3.9284,3.9298,3.8916,3.8366,3.7892,3.7658,3.7061,3.6677,3.643,3.6352,3.6022,3.5701,3.5489,3.5636,3.5958,3.6086,3.5894,3.629,3.7025,3.6934,3.6994,3.7674,3.8302,3.8734,3.8789,3.887,3.8525,3.7716,3.7279,3.6631,3.5814,3.5522,3.5396,3.5354,3.5369,3.5395,3.5412,3.605,3.6383,3.6472,3.6078,3.6084,3.6502,3.6863,3.71,3.71,3.7432,3.6937,3.6238,3.6185,3.5817,3.4562,3.3885,3.3581,3.3011,3.2153,3.154,3.1496,3.16,3.1839,3.1945,3.1827,3.1294,3.1043,3.072,2.9896,2.8692,2.8433,2.807,2.7754,2.742,2.7266,2.7331,2.7331,2.704,2.7021,2.8053,2.9355,3.0295,3.1219,3.1942,3.2571,3.2527,3.2346,3.134,3.0341,2.9841,2.8522,2.7323,2.676,2.7096,2.6924,2.6788,2.6889,2.7077,2.7419,2.7984,2.7632,2.7228,2.7482,2.7733,2.753,4.3095,4.2836,4.2545,4.2021,4.1339,4.0681,4.0202,3.9858,3.9559,3.9388,3.9388,3.9373,3.92,3.8975,3.8871,3.8527,3.8159,3.806,3.7919,3.7572,3.7377,3.7219,3.7219,3.6799,3.6723,3.6707,3.6707,3.6585,3.6646,3.6753,3.7101,3.7589,3.7687,3.7987,3.8442,3.9113,3.9437,3.9584,3.9489,3.9183,3.8358,3.8035,3.7115,3.6492,3.6384,3.6243,3.5737,3.6474,3.6497,3.6381,3.688,3.7437,3.7528,3.7304,3.6975,3.7364,3.7669,3.7912,3.7946,3.8253,3.7767,3.6564,3.6662,3.6093,3.5161,3.4596,3.4317,3.3585,3.2791,3.2004,3.2034,3.2004,3.2333,3.2781,3.2691,3.2333,3.2164,3.25,3.1668,3.0347,2.9376,2.8754,2.8118,2.7748,2.7384,2.7406,2.7681,2.7586,2.7326,2.8469,2.992,3.0951,3.1886,3.2608,3.2915,3.2512,3.2258,3.1247,3.0497,2.9961,2.9507,2.8538,2.8206,2.8317,2.791,2.7535,2.7555,2.7959,2.816,2.8284,2.8009,2.7858,2.8072,2.8134,2.7908,4.3135,4.309,4.2447,4.1901,4.1347,4.0666,4.0113,3.9627,3.9484,3.9388,3.9388,3.9358,3.9125,3.8727,3.8611,3.8382,3.7855,3.7997,3.8277,3.8293,3.8087,3.8035,3.8007,3.7851,3.7677,3.7515,3.7847,3.7658,3.7395,3.7456,3.7879,3.8374,3.8854,3.9016,3.9262,3.9688,4.0045,3.9901,3.9542,3.9123,3.8772,3.8161,3.7515,3.6934,3.7485,3.7145,3.6399,3.7291,3.7486,3.7391,3.7763,3.8493,3.8799,3.856,3.8362,3.843,3.8785,3.8937,3.8988,3.9174,3.8655,3.7511,3.7295,3.6579,3.5776,3.5515,3.511,3.406,3.3193,3.2706,3.2706,3.2706,3.3036,3.344,3.3529,3.341,3.3333,3.3374,3.3351,3.2026,3.0491,2.9531,2.9011,2.8892,2.8664,2.8187,2.8433,2.8887,2.8754,2.9416,3.065,3.1738,3.2717,3.3497,3.3484,3.2676,3.2333,3.1679,3.1096,3.0666,3.0425,3.0058,2.9962,2.9879,2.9437,2.9105,2.9019,2.8748,2.8871,2.8857,2.8584,2.8373,2.826,2.8398,2.8386,4.2515,4.247,4.1811,4.1444,4.1317,4.0651,4.0352,4.0202,3.9649,3.9388,3.9388,3.9373,3.9334,3.9189,3.9234,3.8956,3.8826,3.9003,3.9316,3.9324,3.9002,3.8772,3.869,3.8064,3.8108,3.8254,3.8629,3.8701,3.8546,3.8214,3.8618,3.9451,3.9259,3.9193,3.9782,3.9995,4.0096,4.007,3.9978,3.961,3.8978,3.8274,3.7905,3.7748,3.7835,3.7764,3.7472,3.8206,3.8383,3.7963,3.9017,3.9408,3.9156,3.9588,3.9767,3.9673,3.9377,3.9005,3.9182,3.9537,3.9512,3.8655,3.8558,3.8248,3.7411,3.6293,3.5612,3.4709,3.3863,3.341,3.338,3.338,3.3739,3.3948,3.4023,3.4038,3.4083,3.4203,3.4148,3.3782,3.2299,3.0976,3.0104,3.0099,2.9991,2.9503,2.9205,2.9632,3.0167,3.0692,3.1433,3.2548,3.3001,3.3702,3.3664,3.2901,3.2482,3.1989,3.1841,3.1547,3.1659,3.1668,3.1773,3.1601,3.1124,3.0241,2.9507,2.9308,2.9508,2.9336,2.89,2.8536,2.8197,2.8423,2.88,4.2396,4.2306,4.1287,4.104,4.1272,4.0292,4.0068,4.0217,3.9709,3.9388,3.9388,3.9388,3.9234,3.904,3.865,3.8576,3.8793,3.9294,3.9636,4.0031,3.9733,3.9575,3.9532,3.9279,3.9119,3.9241,3.9801,4.0227,3.9961,3.9631,3.9709,4.0372,4.0017,3.9731,4.007,4.0096,4.0113,4.0096,4.007,3.9944,3.9584,3.9236,3.8843,3.8469,3.8816,3.8569,3.8306,3.8995,3.9156,3.8789,3.9558,3.9944,3.9731,3.9885,4.0079,4.0045,3.98,3.9631,3.969,3.996,3.9673,3.9242,3.9005,3.8777,3.8329,3.7537,3.6594,3.5954,3.4758,3.4193,3.4115,3.4084,3.4457,3.4666,3.467,3.4629,3.4749,3.4923,3.4902,3.4552,3.4137,3.2862,3.1567,3.0951,3.0665,3.0031,2.981,3.0132,3.0809,3.1564,3.2404,3.3421,3.3527,3.3648,3.338,3.2916,3.2677,3.2378,3.2901,3.2773,3.317,3.3299,3.3198,3.3188,3.2897,3.1775,3.0246,2.9995,3.0375,2.9817,2.9189,2.885,2.8561,2.8988,2.9315,4.2396,4.2276,4.095,4.0786,4.1272,3.9978,3.9813,4.0292,3.9709,3.9388,3.9388,3.9379,3.9178,3.8963,3.8762,3.9129,3.9561,3.9659,4.0093,4.045,4.0485,4.0383,4.034,4.0315,4.0332,4.0417,4.1006,4.1471,4.1507,4.1109,4.0863,4.1204,4.0645,4.0282,4.0121,4.0113,4.0113,4.0113,4.0113,4.007,4.002,4.0045,3.9679,3.9558,3.9627,3.9558,3.8778,3.9348,3.9636,3.9516,3.9731,4.0045,4.002,4.0045,4.0113,4.0096,3.9994,4.0011,3.9994,4.0028,3.9774,3.9503,3.93,3.9343,3.9202,3.8569,3.7947,3.7342,3.5946,3.5262,3.498,3.4918,3.5143,3.5383,3.5501,3.5389,3.5334,3.5466,3.5602,3.5453,3.5127,3.472,3.3441,3.2133,3.1318,3.0604,3.0484,3.0749,3.161,3.2645,3.3274,3.4145,3.3736,3.3634,3.338,3.3051,3.2781,3.2901,3.338,3.3723,3.3971,3.4167,3.4182,3.4209,3.4197,3.3059,3.1424,3.1282,3.1059,2.9995,2.9113,2.9101,2.9101,2.9465,2.9666,4.2396,4.2291,4.095,4.0831,4.1324,3.9978,3.9813,4.0412,3.9723,3.9388,3.9388,3.9415,3.944,3.9668,4.0071,4.0496,4.0986,4.1751,4.1825,4.1702,4.1525,4.1187,4.1119,4.1119,4.1136,4.1238,4.1863,4.2557,4.2929,4.2455,4.1847,4.1271,4.1068,4.0688,4.0316,4.0113,4.0113,4.0113,4.0113,4.0113,4.0113,4.0113,4.002,3.9995,4.0045,4.002,3.9944,4.0045,4.0045,3.9876,4.002,4.0113,4.0113,4.0113,4.0113,4.0113,4.0113,4.0113,4.0113,4.0113,4.0079,4.0028,3.996,3.9876,3.9783,3.9208,3.8799,3.8384,3.692,3.6383,3.6121,3.5978,3.5869,3.6182,3.6399,3.6461,3.6261,3.5981,3.6119,3.6245,3.5995,3.5522,3.5123,3.3812,3.2739,3.2017,3.2237,3.2489,3.3191,3.4053,3.43,3.4562,3.3925,3.3649,3.3514,3.332,3.326,3.3559,3.4023,3.4262,3.447,3.4681,3.486,3.4835,3.4658,3.3636,3.277,3.2231,3.1362,2.9893,2.9151,2.9252,2.9202,2.9302,2.9553,4.2731,4.2351,4.1856,4.1782,4.1931,4.0576,4.0397,4.0756,3.9903,3.9388,3.9388,3.943,3.9501,3.9869,4.0483,4.0942,4.1181,4.193,4.2257,4.2236,4.1982,4.188,4.1863,4.1863,4.188,4.2033,4.2608,4.3047,4.3284,4.3436,4.2861,4.2185,4.1559,4.0764,4.035,4.018,4.0163,4.013,4.0113,4.0113,4.0113,4.0113,4.0113,4.0113,4.0113,4.0113,4.007,4.007,4.0113,4.0113,4.0113,4.0113,4.0113,4.0113,4.0113,4.0113,4.0113,4.0113,4.0113,4.0113,4.0113,4.0113,4.0096,4.0113,4.0045,3.9368,3.9005,3.8409,3.7613,3.6964,3.7203,3.6707,3.643,3.698,3.7249,3.7294,3.7294,3.6981,3.6874,3.7112,3.6706,3.6213,3.5869,3.5446,3.4422,3.3619,3.3943,3.4233,3.4666,3.4996,3.507,3.4951,3.4352,3.4143,3.4053,3.3918,3.3784,3.4203,3.4637,3.4786,3.4936,3.513,3.5252,3.5279,3.5019,3.4075,3.331,3.2806,3.1523,2.9638,2.9265,2.9591,2.9465,2.9239,2.9478,4.3075,4.2656,4.2656,4.2695,4.2476,4.125,4.0988,4.113,4.0217,3.9559,3.9388,3.9394,3.9797,4.0353,4.0912,4.1766,4.2249,4.2818,4.2976,4.2946,4.2844,4.2675,4.2625,4.2625,4.2642,4.2811,4.3335,4.3809,4.3876,4.435,4.369,4.2794,4.21,4.1457,4.0629,4.0409,4.0409,4.0417,4.018,4.0113,4.0113,4.0113,4.0113,4.0113,4.0113,4.0113,4.0113,4.0113,4.0113,4.0113,4.0113,4.0113,4.0113,4.0113,4.0113,4.0113,4.0113,4.0113,4.0113,4.0113,4.0113,4.0113,4.0113,4.0113,3.9927,3.9568,3.9411,3.9236,3.8145,3.7512,3.8064,3.7469,3.7352,3.7847,3.7602,3.7677,3.8092,3.8064,3.7991,3.8003,3.7454,3.6859,3.6213,3.582,3.5227,3.4388,3.4289,3.4547,3.4966,3.5235,3.5355,3.516,3.4771,3.4726,3.4726,3.4427,3.4233,3.4726,3.51,3.522,3.5385,3.5489,3.5457,3.5359,3.4986,3.4375,3.3602,3.2721,3.1019,2.9085,2.9101,2.9227,2.9453,2.9277,2.9566,4.326,4.329,4.323,4.3245,4.3065,4.1893,4.1407,4.1369,4.0636,3.9963,3.9454,3.9424,4.0274,4.1351,4.1629,4.246,4.3626,4.412,4.4276,4.409,4.3639,4.3453,4.3403,4.3403,4.3403,4.3589,4.3995,4.4333,4.4451,4.453,4.4012,4.3504,4.2946,4.2422,4.1288,4.117,4.1187,4.1085,4.051,4.0299,4.0231,4.0197,4.0113,4.0113,4.0113,4.0113,4.0113,4.0113,4.0113,4.0113,4.0113,4.0113,4.0113,4.0113,4.0113,4.0113,4.0113,4.0113,4.0113,4.0113,4.0113,4.0113,4.0113,4.0113,4.0113,4.002,3.9927,3.9705,3.9032,3.8718,3.8624,3.8318,3.8402,3.8513,3.8318,3.8346,3.8805,3.8968,3.887,3.8761,3.8161,3.7485,3.6692,3.6054,3.5653,3.5143,3.4786,3.4876,3.5235,3.5385,3.5474,3.5385,3.5085,3.5085,3.5011,3.4756,3.4741,3.522,3.5459,3.5489,3.5489,3.5489,3.5457,3.5424,3.51,3.4591,3.3553,3.2481,3.0591,2.8869,2.8533,2.8624,2.8963,2.9352,2.9641,4.3075,4.2746,4.311,4.3305,4.311,4.1938,4.1647,4.1826,4.0905,4.0038,3.9493,3.9388,3.999,4.0995,4.1901,4.2724,4.3697,4.4485,4.4598,4.4547,4.4215,4.4231,4.4164,4.4096,4.413,4.4231,4.4547,4.4598,4.4564,4.4598,4.4113,4.3606,4.3453,4.2878,4.2185,4.1914,4.1931,4.1796,4.1271,4.0832,4.0764,4.04,4.013,4.013,4.0113,4.0113,4.0113,4.0113,4.0113,4.0113,4.0113,4.0113,4.0113,4.0113,4.0113,4.0113,4.0113,4.0113,4.0113,4.0113,4.0113,4.0113,4.0113,4.0113,4.0113,4.0113,4.0113,3.9969,3.9437,3.9262,3.9411,3.8924,3.8951,3.948,3.9506,3.9532,3.9731,3.9662,3.9542,3.9437,3.9022,3.7876,3.6934,3.6086,3.5604,3.5489,3.513,3.51,3.54,3.5444,3.5489,3.5489,3.537,3.537,3.5295,3.5055,3.4996,3.5325,3.5474,3.5489,3.5489,3.5489,3.5489,3.5457,3.5166,3.4773,3.3554,3.2208,3.0226,2.8846,2.8503,2.8321,2.8637,2.9164,2.9704,4.2611,4.2171,4.297,4.3021,4.2611,4.1968,4.1811,4.1572,4.0546,3.9798,3.9505,3.9717,4.0378,4.1247,4.2062,4.2939,4.3756,4.4281,4.4598,4.4598,4.4581,4.453,4.4547,4.4598,4.4496,4.4598,4.4598,4.4598,4.4598,4.4598,4.4316,4.3995,4.3792,4.3623,4.3149,4.2929,4.2675,4.2489,4.2016,4.1407,4.1136,4.0747,4.04,4.0197,4.0113,4.0113,4.0113,4.0113,4.0113,4.0113,4.0113,4.0113,4.0113,4.0113,4.0113,4.0113,4.0113,4.0113,4.0113,4.0113,4.0113,4.0113,4.0113,4.0113,4.0113,4.0113,4.0113,3.9927,3.9532,3.9662,3.9833,3.9342,3.9542,4.007,4.007,4.007,4.0045,3.9952,3.9927,3.9808,3.9584,3.8398,3.7188,3.6259,3.5489,3.5489,3.5474,3.5489,3.5489,3.5489,3.5489,3.5489,3.5489,3.5459,3.5459,3.54,3.5385,3.5474,3.5489,3.5489,3.5489,3.5489,3.5489,3.5489,3.5311,3.4787,3.3475,3.1968,3.0372,2.9178,2.8447,2.8371,2.8409,2.89,2.9528,4.2006,4.1624,4.2776,4.2566,4.1624,4.1946,4.1527,4.0382,3.9732,3.952,3.9538,4.0343,4.1113,4.2062,4.2925,4.3651,4.431,4.4525,4.457,4.4598,4.4598,4.4598,4.4598,4.4598,4.4598,4.4598,4.4598,4.4598,4.4598,4.4598,4.4547,4.4513,4.4395,4.4276,4.4028,4.3758,4.347,4.325,4.2726,4.2168,4.1762,4.1373,4.1001,4.0722,4.0451,4.0324,4.0299,4.0197,4.013,4.0113,4.0113,4.0113,4.0113,4.0113,4.0113,4.0113,4.0113,4.0113,4.0113,4.0113,4.0113,4.0113,4.0113,4.0113,4.0113,4.0113,4.0113,4.0113,3.9901,3.9969,3.9995,3.9952,3.9952,4.0096,4.0096,4.0096,4.0096,4.007,4.007,3.9995,3.9876,3.8995,3.7703,3.6677,3.5718,3.5489,3.5489,3.5489,3.5489,3.5489,3.5489,3.5489,3.5489,3.5489,3.5489,3.5489,3.5489,3.5489,3.5489,3.5489,3.5489,3.5489,3.5489,3.5489,3.5489,3.4878,3.3806,3.2482,3.0954,2.9822,2.8685,2.8225,2.8221,2.8648,2.9164,4.1549,4.1512,4.2336,4.2162,4.1399,4.1123,4.0472,3.9753,3.9933,4.0185,4.0328,4.0603,4.1609,4.2894,4.3199,4.3844,4.431,4.4598,4.4598,4.4598,4.4598,4.4598,4.4598,4.4598,4.4598,4.4598,4.4598,4.4598,4.4598,4.4598,4.4598,4.4581,4.4598,4.4598,4.4513,4.4333,4.4231,4.3995,4.3403,4.2963,4.254,4.2202,4.183,4.1508,4.095,4.0832,4.073,4.0299,4.0163,4.0113,4.0113,4.0113,4.0113,4.0113,4.0113,4.0113,4.0113,4.0113,4.0113,4.0113,4.0113,4.0113,4.0113,4.0113,4.0113,4.0113,4.0113,4.0113,4.0113,4.0113,4.0113,4.0113,4.0113,4.0113,4.0113,4.0113,4.0113,4.0113,4.0096,4.002,3.9901,3.9156,3.7905,3.698,3.6102,3.5718,3.5489,3.5489,3.5489,3.5489,3.5489,3.5489,3.5489,3.5489,3.5489,3.5489,3.5489,3.5489,3.5489,3.5489,3.5489,3.5489,3.5489,3.5489,3.5489,3.5066,3.4369,3.2969,3.1575,3.008,2.8919,2.8402,2.8118,2.862,2.8913,4.0831,4.0741,4.1632,4.1632,4.095,4.0292,3.9768,3.9565,4.0211,4.0751,4.1229,4.1625,4.2316,4.3169,4.3651,4.4121,4.4542,4.4598,4.4598,4.4598,4.4598,4.4598,4.4598,4.4598,4.4598,4.4598,4.4598,4.4598,4.4598,4.4598,4.4598,4.4598,4.4598,4.4598,4.4564,4.4547,4.4564,4.4412,4.4096,4.3741,4.3352,4.2963,4.2692,4.2269,4.1644,4.1339,4.117,4.0544,4.0197,4.0113,4.0113,4.0113,4.0113,4.0113,4.0113,4.0113,4.0113,4.0113,4.0113,4.0113,4.0113,4.0113,4.0113,4.0113,4.0113,4.0113,4.0113,4.0113,4.0113,4.0113,4.0113,4.0113,4.0113,4.0113,4.0113,4.0113,4.0113,4.0113,4.0045,3.9978,3.9558,3.8924,3.806,3.7188,3.6492,3.6134,3.575,3.5489,3.5489,3.5489,3.5489,3.5489,3.5489,3.5489,3.5489,3.5489,3.5489,3.5489,3.5489,3.5489,3.5489,3.5489,3.5489,3.5489,3.5489,3.4989,3.4475,3.3533,3.2252,3.0783,2.9731,2.941,2.9032,2.8808,2.8992,4.0023,3.9649,4.0741,4.0905,4.0367,3.9753,3.9475,3.961,4.0493,4.1247,4.1997,4.2847,4.3229,4.3667,4.4138,4.4412,4.4598,4.4598,4.4598,4.4598,4.4598,4.4598,4.4598,4.4598,4.4598,4.4598,4.4598,4.4598,4.4598,4.4598,4.4598,4.4598,4.4598,4.4598,4.4598,4.4598,4.4598,4.4547,4.4445,4.4181,4.3775,4.3453,4.3183,4.2608,4.1999,4.1491,4.1305,4.0832,4.0282,4.0299,4.0231,4.0282,4.0113,4.0113,4.0113,4.0113,4.0113,4.0113,4.0113,4.0113,4.0113,4.0113,4.0113,4.0113,4.0113,4.0113,4.0113,4.0113,4.0113,4.0113,4.0113,4.0113,4.0113,4.0113,4.0113,4.0113,4.0113,4.0113,4.007,3.9995,3.9756,3.9129,3.8608,3.7758,3.7068,3.6615,3.615,3.5799,3.5489,3.5489,3.5489,3.5489,3.5489,3.5489,3.5489,3.5489,3.5489,3.5489,3.5489,3.5489,3.5489,3.5489,3.5489,3.5489,3.5474,3.5029,3.448,3.3547,3.2717,3.1785,3.0932,3.062,3.0159,2.9561,2.9372,3.9873,4.0127,3.9963,4.0053,4.0292,3.9694,3.9758,4.0466,4.1313,4.1772,4.2125,4.2909,4.368,4.4241,4.4412,4.4598,4.4598,4.4598,4.4598,4.4598,4.4598,4.4598,4.4598,4.4598,4.4598,4.4598,4.4598,4.4598,4.4598,4.4598,4.4598,4.4598,4.4598,4.4598,4.4598,4.4598,4.4615,4.4733,4.4581,4.457,4.4384,4.4299,4.4113,4.3741,4.3284,4.2811,4.2523,4.2083,4.183,4.1745,4.1187,4.0713,4.0163,4.0146,4.013,4.0113,4.018,4.018,4.0113,4.0113,4.0113,4.0113,4.0113,4.0113,4.0113,4.0113,4.0113,4.0113,4.0113,4.0113,4.0113,4.0113,4.0113,4.0113,4.002,4.002,4.0045,4.0045,4.0045,3.9995,3.9876,3.9463,3.8962,3.8409,3.7729,3.7172,3.6691,3.6212,3.5686,3.5489,3.5489,3.5489,3.5489,3.5489,3.5489,3.5489,3.5489,3.5489,3.5489,3.5489,3.5489,3.5489,3.5489,3.5489,3.5397,3.5073,3.4558,3.3645,3.2848,3.2389,3.1597,3.1034,3.0842,3.0381,3.017,3.9634,3.9888,3.9574,3.9619,3.9858,3.9559,3.9666,4.022,4.1046,4.1642,4.2189,4.3259,4.4167,4.4587,4.4598,4.4598,4.4598,4.4598,4.4598,4.4598,4.4598,4.4598,4.4598,4.4598,4.4598,4.4598,4.4598,4.4598,4.4598,4.4598,4.4598,4.4598,4.4598,4.4598,4.4598,4.4615,4.4773,4.506,4.4835,4.4835,4.4993,4.5043,4.4852,4.4553,4.4198,4.3809,4.32,4.2726,4.2388,4.2236,4.183,4.161,4.1255,4.1204,4.0959,4.0739,4.0578,4.0451,4.0248,4.0113,4.013,4.0163,4.0113,4.0113,4.0113,4.0113,4.0113,4.0113,4.0113,4.0113,4.0113,4.0113,4.0113,4.0113,3.9688,3.9394,3.9394,3.9437,3.9688,4.007,3.985,3.9532,3.9113,3.8962,3.8241,3.7499,3.7054,3.6306,3.5799,3.5489,3.5489,3.5489,3.5489,3.5489,3.5489,3.5489,3.5489,3.5489,3.5489,3.5489,3.5489,3.5489,3.5489,3.5489,3.5457,3.5329,3.4684,3.3858,3.3671,3.341,3.2378,3.1328,3.1245,3.1196,3.0878,3.9403,3.9388,3.9388,3.9388,3.9388,3.9388,3.9349,3.9439,4.0297,4.1168,4.1981,4.3584,4.4384,4.457,4.4598,4.4598,4.4598,4.4598,4.4598,4.4598,4.4598,4.4598,4.4598,4.4598,4.4598,4.4699,4.4756,4.4682,4.4598,4.4598,4.4598,4.4598,4.4598,4.4598,4.4615,4.4801,4.5043,4.5365,4.5365,4.5314,4.55,4.5669,4.5196,4.4869,4.4632,4.4282,4.3589,4.3081,4.2658,4.2557,4.2557,4.2236,4.2066,4.1914,4.1542,4.1255,4.1018,4.0764,4.0468,4.0214,4.0248,4.0248,4.018,4.0146,4.0163,4.0163,4.0163,4.013,4.013,4.0113,4.0113,4.0113,4.0113,3.9927,3.9411,3.8827,3.8799,3.8772,3.9209,3.9731,3.9506,3.9183,3.9102,3.8978,3.8497,3.7761,3.7115,3.6368,3.5782,3.5587,3.5489,3.5489,3.5489,3.5489,3.5489,3.5489,3.5489,3.5489,3.5489,3.5489,3.5489,3.5489,3.5489,3.5489,3.5424,3.5294,3.492,3.4215,3.416,3.4041,3.3001,3.1887,3.2145,3.2007,3.146,3.9388,3.9388,3.9388,3.9388,3.9388,3.9388,3.9095,3.8898,4.0079,4.0931,4.158,4.2804,4.3873,4.4598,4.4598,4.4598,4.4598,4.4598,4.4598,4.4598,4.4598,4.4598,4.4598,4.4598,4.4598,4.475,4.4925,4.506,4.4699,4.4598,4.4598,4.4598,4.4598,4.4632,4.4733,4.4993,4.5432,4.5805,4.6058,4.6041,4.5771,4.5703,4.5246,4.5094,4.5162,4.4874,4.4519,4.4293,4.4192,4.4005,4.3453,4.2878,4.2489,4.2252,4.1863,4.1407,4.1204,4.1102,4.0781,4.0443,4.0443,4.0916,4.0781,4.04,4.0417,4.0383,4.035,4.0265,4.0231,4.018,4.0163,4.0113,4.007,3.9731,3.9289,3.8553,3.8189,3.8104,3.8234,3.8374,3.8318,3.8234,3.829,3.8104,3.7847,3.7279,3.6934,3.6228,3.5668,3.5554,3.5489,3.5489,3.5489,3.5489,3.5489,3.5489,3.5489,3.5489,3.5489,3.5489,3.5489,3.5489,3.5489,3.5489,3.5359,3.5213,3.4758,3.4461,3.4016,3.3762,3.3103,3.2541,3.2776,3.2472,3.1621]}]]